<?xml version="1.0" encoding="UTF-8" standalone="no" ?>
<gpx xmlns="http://www.topografix.com/GPX/1/1" xmlns:xsi="http://www.w3.org/2001/XMLSchema-instance" xsi:schemaLocation="http://www.topografix.com/GPX/1/1 http://www.topografix.com/GPX/1/1/gpx.xsd" version="1.1" creator="VisuGPX - https://www.visugpx.com">
  <metadata>
    <name>Rando : Mont-Dore &amp;gt; Chambon-sur-Lac</name>
  </metadata>
  <trk>
    <name><![CDATA[Mont-Dore > Chambon-sur-Lac]]></name>
    <trkseg>
      <trkpt lat="45.57437" lon="2.8103">
        <ele>1046</ele>
        <time>2013-08-18T06:53:51.000Z</time>
      </trkpt>
      <trkpt lat="45.57439" lon="2.81032">
        <ele>1046.1999511719</ele>
        <time>2013-08-18T06:54:14.000Z</time>
      </trkpt>
      <trkpt lat="45.5744" lon="2.81035">
        <ele>1046.5999755859</ele>
        <time>2013-08-18T06:54:32.000Z</time>
      </trkpt>
      <trkpt lat="45.5743" lon="2.81034">
        <ele>1046.5999755859</ele>
        <time>2013-08-18T06:54:46.000Z</time>
      </trkpt>
      <trkpt lat="45.57424" lon="2.81048">
        <ele>1048.4000244141</ele>
        <time>2013-08-18T06:54:58.000Z</time>
      </trkpt>
      <trkpt lat="45.57401" lon="2.81047">
        <ele>1047.5999755859</ele>
        <time>2013-08-18T06:55:14.000Z</time>
      </trkpt>
      <trkpt lat="45.57393" lon="2.81055">
        <ele>1047.8000488281</ele>
        <time>2013-08-18T06:55:24.000Z</time>
      </trkpt>
      <trkpt lat="45.57369" lon="2.81058">
        <ele>1048.5999755859</ele>
        <time>2013-08-18T06:55:42.000Z</time>
      </trkpt>
      <trkpt lat="45.57359" lon="2.81085">
        <ele>1050.8000488281</ele>
        <time>2013-08-18T06:55:59.000Z</time>
      </trkpt>
      <trkpt lat="45.57358" lon="2.81106">
        <ele>1055.5999755859</ele>
        <time>2013-08-18T06:56:12.000Z</time>
      </trkpt>
      <trkpt lat="45.57356" lon="2.81119">
        <ele>1059</ele>
        <time>2013-08-18T06:56:20.000Z</time>
      </trkpt>
      <trkpt lat="45.57351" lon="2.81125">
        <ele>1060.8000488281</ele>
        <time>2013-08-18T06:56:25.000Z</time>
      </trkpt>
      <trkpt lat="45.57343" lon="2.81128">
        <ele>1062</ele>
        <time>2013-08-18T06:56:33.000Z</time>
      </trkpt>
      <trkpt lat="45.57342" lon="2.81138">
        <ele>1063</ele>
        <time>2013-08-18T06:56:47.000Z</time>
      </trkpt>
      <trkpt lat="45.5735" lon="2.81152">
        <ele>1065.1999511719</ele>
        <time>2013-08-18T06:57:04.000Z</time>
      </trkpt>
      <trkpt lat="45.57355" lon="2.8116">
        <ele>1066.5999755859</ele>
        <time>2013-08-18T06:57:18.000Z</time>
      </trkpt>
      <trkpt lat="45.57362" lon="2.81175">
        <ele>1069.8000488281</ele>
        <time>2013-08-18T06:57:31.000Z</time>
      </trkpt>
      <trkpt lat="45.57359" lon="2.81185">
        <ele>1073.1999511719</ele>
        <time>2013-08-18T06:57:45.000Z</time>
      </trkpt>
      <trkpt lat="45.57354" lon="2.8119">
        <ele>1074.8000488281</ele>
        <time>2013-08-18T06:58:00.000Z</time>
      </trkpt>
      <trkpt lat="45.57353" lon="2.81194">
        <ele>1076</ele>
        <time>2013-08-18T06:58:16.000Z</time>
      </trkpt>
      <trkpt lat="45.57358" lon="2.81204">
        <ele>1081</ele>
        <time>2013-08-18T06:58:31.000Z</time>
      </trkpt>
      <trkpt lat="45.57359" lon="2.81207">
        <ele>1082.4000244141</ele>
        <time>2013-08-18T06:58:47.000Z</time>
      </trkpt>
      <trkpt lat="45.57358" lon="2.81209">
        <ele>1083.1999511719</ele>
        <time>2013-08-18T06:59:04.000Z</time>
      </trkpt>
      <trkpt lat="45.57357" lon="2.81216">
        <ele>1085.5999755859</ele>
        <time>2013-08-18T06:59:19.000Z</time>
      </trkpt>
      <trkpt lat="45.57354" lon="2.8122">
        <ele>1086.8000488281</ele>
        <time>2013-08-18T06:59:33.000Z</time>
      </trkpt>
      <trkpt lat="45.57351" lon="2.81222">
        <ele>1087.1999511719</ele>
        <time>2013-08-18T06:59:49.000Z</time>
      </trkpt>
      <trkpt lat="45.57351" lon="2.81226">
        <ele>1088.5999755859</ele>
        <time>2013-08-18T07:00:11.000Z</time>
      </trkpt>
      <trkpt lat="45.57351" lon="2.81231">
        <ele>1090.8000488281</ele>
        <time>2013-08-18T07:00:24.000Z</time>
      </trkpt>
      <trkpt lat="45.57363" lon="2.81242">
        <ele>1097</ele>
        <time>2013-08-18T07:00:42.000Z</time>
      </trkpt>
      <trkpt lat="45.57364" lon="2.81249">
        <ele>1099.5999755859</ele>
        <time>2013-08-18T07:00:59.000Z</time>
      </trkpt>
      <trkpt lat="45.57359" lon="2.81254">
        <ele>1100.4000244141</ele>
        <time>2013-08-18T07:01:17.000Z</time>
      </trkpt>
      <trkpt lat="45.57343" lon="2.81254">
        <ele>1097.8000488281</ele>
        <time>2013-08-18T07:01:32.000Z</time>
      </trkpt>
      <trkpt lat="45.57329" lon="2.81264">
        <ele>1098.1999511719</ele>
        <time>2013-08-18T07:01:48.000Z</time>
      </trkpt>
      <trkpt lat="45.57315" lon="2.81274">
        <ele>1099</ele>
        <time>2013-08-18T07:02:03.000Z</time>
      </trkpt>
      <trkpt lat="45.57297" lon="2.81288">
        <ele>1100.8000488281</ele>
        <time>2013-08-18T07:02:19.000Z</time>
      </trkpt>
      <trkpt lat="45.57281" lon="2.81304">
        <ele>1103.8000488281</ele>
        <time>2013-08-18T07:02:36.000Z</time>
      </trkpt>
      <trkpt lat="45.57267" lon="2.81314">
        <ele>1105.1999511719</ele>
        <time>2013-08-18T07:02:52.000Z</time>
      </trkpt>
      <trkpt lat="45.57256" lon="2.81322">
        <ele>1106.4000244141</ele>
        <time>2013-08-18T07:03:09.000Z</time>
      </trkpt>
      <trkpt lat="45.57237" lon="2.81333">
        <ele>1107.5999755859</ele>
        <time>2013-08-18T07:03:28.000Z</time>
      </trkpt>
      <trkpt lat="45.57222" lon="2.81341">
        <ele>1108.4000244141</ele>
        <time>2013-08-18T07:03:45.000Z</time>
      </trkpt>
      <trkpt lat="45.57203" lon="2.81352">
        <ele>1108.8000488281</ele>
        <time>2013-08-18T07:04:06.000Z</time>
      </trkpt>
      <trkpt lat="45.57183" lon="2.81361">
        <ele>1108.1999511719</ele>
        <time>2013-08-18T07:04:23.000Z</time>
      </trkpt>
      <trkpt lat="45.57169" lon="2.81367">
        <ele>1107.4000244141</ele>
        <time>2013-08-18T07:04:40.000Z</time>
      </trkpt>
      <trkpt lat="45.57149" lon="2.8137">
        <ele>1106.4000244141</ele>
        <time>2013-08-18T07:04:56.000Z</time>
      </trkpt>
      <trkpt lat="45.57131" lon="2.81379">
        <ele>1108.4000244141</ele>
        <time>2013-08-18T07:05:13.000Z</time>
      </trkpt>
      <trkpt lat="45.57125" lon="2.8138">
        <ele>1108.1999511719</ele>
        <time>2013-08-18T07:05:19.000Z</time>
      </trkpt>
      <trkpt lat="45.57107" lon="2.8139">
        <ele>1110.4000244141</ele>
        <time>2013-08-18T07:05:36.000Z</time>
      </trkpt>
      <trkpt lat="45.57101" lon="2.81395">
        <ele>1111.1999511719</ele>
        <time>2013-08-18T07:05:43.000Z</time>
      </trkpt>
      <trkpt lat="45.57087" lon="2.81406">
        <ele>1113.5999755859</ele>
        <time>2013-08-18T07:05:56.000Z</time>
      </trkpt>
      <trkpt lat="45.57085" lon="2.81408">
        <ele>1114</ele>
        <time>2013-08-18T07:05:58.000Z</time>
      </trkpt>
      <trkpt lat="45.57072" lon="2.81414">
        <ele>1114.4000244141</ele>
        <time>2013-08-18T07:06:14.000Z</time>
      </trkpt>
      <trkpt lat="45.57057" lon="2.81424">
        <ele>1116</ele>
        <time>2013-08-18T07:06:30.000Z</time>
      </trkpt>
      <trkpt lat="45.57042" lon="2.8143">
        <ele>1116</ele>
        <time>2013-08-18T07:06:48.000Z</time>
      </trkpt>
      <trkpt lat="45.57027" lon="2.81438">
        <ele>1117.1999511719</ele>
        <time>2013-08-18T07:07:03.000Z</time>
      </trkpt>
      <trkpt lat="45.5701" lon="2.81445">
        <ele>1118.1999511719</ele>
        <time>2013-08-18T07:07:20.000Z</time>
      </trkpt>
      <trkpt lat="45.57006" lon="2.81446">
        <ele>1117.8000488281</ele>
        <time>2013-08-18T07:07:34.000Z</time>
      </trkpt>
      <trkpt lat="45.57002" lon="2.81443">
        <ele>1116</ele>
        <time>2013-08-18T07:08:07.000Z</time>
      </trkpt>
      <trkpt lat="45.57002" lon="2.81441">
        <ele>1115.1999511719</ele>
        <time>2013-08-18T07:08:34.000Z</time>
      </trkpt>
      <trkpt lat="45.57003" lon="2.81442">
        <ele>1115.5999755859</ele>
        <time>2013-08-18T07:09:05.000Z</time>
      </trkpt>
      <trkpt lat="45.57001" lon="2.81443">
        <ele>1115.8000488281</ele>
        <time>2013-08-18T07:09:33.000Z</time>
      </trkpt>
      <trkpt lat="45.57001" lon="2.81443">
        <ele>1116.1999511719</ele>
        <time>2013-08-18T07:10:04.000Z</time>
      </trkpt>
      <trkpt lat="45.57002" lon="2.81443">
        <ele>1116</ele>
        <time>2013-08-18T07:10:27.000Z</time>
      </trkpt>
      <trkpt lat="45.57001" lon="2.81438">
        <ele>1113.8000488281</ele>
        <time>2013-08-18T07:10:53.000Z</time>
      </trkpt>
      <trkpt lat="45.56994" lon="2.81437">
        <ele>1112.5999755859</ele>
        <time>2013-08-18T07:11:04.000Z</time>
      </trkpt>
      <trkpt lat="45.56989" lon="2.81442">
        <ele>1113.8000488281</ele>
        <time>2013-08-18T07:11:09.000Z</time>
      </trkpt>
      <trkpt lat="45.56981" lon="2.81448">
        <ele>1115</ele>
        <time>2013-08-18T07:11:17.000Z</time>
      </trkpt>
      <trkpt lat="45.56965" lon="2.8146">
        <ele>1117.4000244141</ele>
        <time>2013-08-18T07:11:33.000Z</time>
      </trkpt>
      <trkpt lat="45.56947" lon="2.8147">
        <ele>1120</ele>
        <time>2013-08-18T07:11:50.000Z</time>
      </trkpt>
      <trkpt lat="45.56932" lon="2.81472">
        <ele>1119.8000488281</ele>
        <time>2013-08-18T07:12:05.000Z</time>
      </trkpt>
      <trkpt lat="45.56918" lon="2.81472">
        <ele>1118.5999755859</ele>
        <time>2013-08-18T07:12:20.000Z</time>
      </trkpt>
      <trkpt lat="45.56909" lon="2.8148">
        <ele>1120.5999755859</ele>
        <time>2013-08-18T07:12:33.000Z</time>
      </trkpt>
      <trkpt lat="45.56908" lon="2.81485">
        <ele>1122.1999511719</ele>
        <time>2013-08-18T07:12:42.000Z</time>
      </trkpt>
      <trkpt lat="45.56913" lon="2.81487">
        <ele>1123.5999755859</ele>
        <time>2013-08-18T07:12:48.000Z</time>
      </trkpt>
      <trkpt lat="45.56927" lon="2.81496">
        <ele>1127.8000488281</ele>
        <time>2013-08-18T07:13:04.000Z</time>
      </trkpt>
      <trkpt lat="45.56941" lon="2.81501">
        <ele>1131</ele>
        <time>2013-08-18T07:13:19.000Z</time>
      </trkpt>
      <trkpt lat="45.56953" lon="2.81508">
        <ele>1135.4000244141</ele>
        <time>2013-08-18T07:13:33.000Z</time>
      </trkpt>
      <trkpt lat="45.56965" lon="2.81509">
        <ele>1136.5999755859</ele>
        <time>2013-08-18T07:13:47.000Z</time>
      </trkpt>
      <trkpt lat="45.56979" lon="2.81505">
        <ele>1136.5999755859</ele>
        <time>2013-08-18T07:14:04.000Z</time>
      </trkpt>
      <trkpt lat="45.56993" lon="2.81506">
        <ele>1139.4000244141</ele>
        <time>2013-08-18T07:14:20.000Z</time>
      </trkpt>
      <trkpt lat="45.57008" lon="2.81509">
        <ele>1143.5999755859</ele>
        <time>2013-08-18T07:14:37.000Z</time>
      </trkpt>
      <trkpt lat="45.57014" lon="2.81519">
        <ele>1150.1999511719</ele>
        <time>2013-08-18T07:14:51.000Z</time>
      </trkpt>
      <trkpt lat="45.57006" lon="2.81523">
        <ele>1151.8000488281</ele>
        <time>2013-08-18T07:15:07.000Z</time>
      </trkpt>
      <trkpt lat="45.56998" lon="2.81527">
        <ele>1152.4000244141</ele>
        <time>2013-08-18T07:15:24.000Z</time>
      </trkpt>
      <trkpt lat="45.56987" lon="2.81538">
        <ele>1157.1999511719</ele>
        <time>2013-08-18T07:15:42.000Z</time>
      </trkpt>
      <trkpt lat="45.56974" lon="2.81551">
        <ele>1161.1999511719</ele>
        <time>2013-08-18T07:15:59.000Z</time>
      </trkpt>
      <trkpt lat="45.56964" lon="2.81557">
        <ele>1163.4000244141</ele>
        <time>2013-08-18T07:16:15.000Z</time>
      </trkpt>
      <trkpt lat="45.5695" lon="2.81557">
        <ele>1161.5999755859</ele>
        <time>2013-08-18T07:16:30.000Z</time>
      </trkpt>
      <trkpt lat="45.56936" lon="2.81567">
        <ele>1165</ele>
        <time>2013-08-18T07:16:48.000Z</time>
      </trkpt>
      <trkpt lat="45.5692" lon="2.81574">
        <ele>1164.5999755859</ele>
        <time>2013-08-18T07:17:05.000Z</time>
      </trkpt>
      <trkpt lat="45.56907" lon="2.81573">
        <ele>1161</ele>
        <time>2013-08-18T07:17:21.000Z</time>
      </trkpt>
      <trkpt lat="45.56894" lon="2.81572">
        <ele>1158.1999511719</ele>
        <time>2013-08-18T07:17:37.000Z</time>
      </trkpt>
      <trkpt lat="45.56879" lon="2.81589">
        <ele>1162.1999511719</ele>
        <time>2013-08-18T07:17:57.000Z</time>
      </trkpt>
      <trkpt lat="45.56877" lon="2.81599">
        <ele>1166.4000244141</ele>
        <time>2013-08-18T07:18:13.000Z</time>
      </trkpt>
      <trkpt lat="45.56869" lon="2.81617">
        <ele>1173.1999511719</ele>
        <time>2013-08-18T07:18:30.000Z</time>
      </trkpt>
      <trkpt lat="45.56863" lon="2.81626">
        <ele>1176</ele>
        <time>2013-08-18T07:18:47.000Z</time>
      </trkpt>
      <trkpt lat="45.56857" lon="2.81636">
        <ele>1179.4000244141</ele>
        <time>2013-08-18T07:19:04.000Z</time>
      </trkpt>
      <trkpt lat="45.56846" lon="2.81641">
        <ele>1180.1999511719</ele>
        <time>2013-08-18T07:19:21.000Z</time>
      </trkpt>
      <trkpt lat="45.56831" lon="2.81651">
        <ele>1183</ele>
        <time>2013-08-18T07:19:37.000Z</time>
      </trkpt>
      <trkpt lat="45.56815" lon="2.81657">
        <ele>1183.1999511719</ele>
        <time>2013-08-18T07:19:54.000Z</time>
      </trkpt>
      <trkpt lat="45.56811" lon="2.81678">
        <ele>1194</ele>
        <time>2013-08-18T07:20:12.000Z</time>
      </trkpt>
      <trkpt lat="45.56811" lon="2.81681">
        <ele>1195.8000488281</ele>
        <time>2013-08-18T07:20:33.000Z</time>
      </trkpt>
      <trkpt lat="45.56811" lon="2.81683">
        <ele>1196.8000488281</ele>
        <time>2013-08-18T07:20:58.000Z</time>
      </trkpt>
      <trkpt lat="45.56812" lon="2.81683">
        <ele>1196.8000488281</ele>
        <time>2013-08-18T07:21:19.000Z</time>
      </trkpt>
      <trkpt lat="45.56811" lon="2.81688">
        <ele>1199.1999511719</ele>
        <time>2013-08-18T07:21:40.000Z</time>
      </trkpt>
      <trkpt lat="45.56806" lon="2.81703">
        <ele>1205.1999511719</ele>
        <time>2013-08-18T07:21:56.000Z</time>
      </trkpt>
      <trkpt lat="45.56799" lon="2.8171">
        <ele>1206.8000488281</ele>
        <time>2013-08-18T07:22:11.000Z</time>
      </trkpt>
      <trkpt lat="45.56793" lon="2.81716">
        <ele>1209</ele>
        <time>2013-08-18T07:22:26.000Z</time>
      </trkpt>
      <trkpt lat="45.56786" lon="2.81725">
        <ele>1211.8000488281</ele>
        <time>2013-08-18T07:22:43.000Z</time>
      </trkpt>
      <trkpt lat="45.5678" lon="2.81745">
        <ele>1218.5999755859</ele>
        <time>2013-08-18T07:23:01.000Z</time>
      </trkpt>
      <trkpt lat="45.5677" lon="2.81755">
        <ele>1218</ele>
        <time>2013-08-18T07:23:17.000Z</time>
      </trkpt>
      <trkpt lat="45.56764" lon="2.81765">
        <ele>1220.8000488281</ele>
        <time>2013-08-18T07:23:36.000Z</time>
      </trkpt>
      <trkpt lat="45.56754" lon="2.81771">
        <ele>1219.4000244141</ele>
        <time>2013-08-18T07:23:55.000Z</time>
      </trkpt>
      <trkpt lat="45.56746" lon="2.8178">
        <ele>1221.1999511719</ele>
        <time>2013-08-18T07:24:12.000Z</time>
      </trkpt>
      <trkpt lat="45.56737" lon="2.81798">
        <ele>1226.5999755859</ele>
        <time>2013-08-18T07:24:30.000Z</time>
      </trkpt>
      <trkpt lat="45.56722" lon="2.81809">
        <ele>1226.8000488281</ele>
        <time>2013-08-18T07:24:49.000Z</time>
      </trkpt>
      <trkpt lat="45.56715" lon="2.81822">
        <ele>1232.5999755859</ele>
        <time>2013-08-18T07:25:02.000Z</time>
      </trkpt>
      <trkpt lat="45.56709" lon="2.81831">
        <ele>1238.8000488281</ele>
        <time>2013-08-18T07:25:17.000Z</time>
      </trkpt>
      <trkpt lat="45.56704" lon="2.81835">
        <ele>1239.8000488281</ele>
        <time>2013-08-18T07:25:30.000Z</time>
      </trkpt>
      <trkpt lat="45.56702" lon="2.81835">
        <ele>1240</ele>
        <time>2013-08-18T07:25:53.000Z</time>
      </trkpt>
      <trkpt lat="45.56702" lon="2.81835">
        <ele>1240</ele>
        <time>2013-08-18T07:26:24.000Z</time>
      </trkpt>
      <trkpt lat="45.56701" lon="2.81834">
        <ele>1240.1999511719</ele>
        <time>2013-08-18T07:26:54.000Z</time>
      </trkpt>
      <trkpt lat="45.56698" lon="2.81838">
        <ele>1241</ele>
        <time>2013-08-18T07:27:33.000Z</time>
      </trkpt>
      <trkpt lat="45.56705" lon="2.81804">
        <ele>1228.5999755859</ele>
        <time>2013-08-18T07:28:06.000Z</time>
      </trkpt>
      <trkpt lat="45.56695" lon="2.8181">
        <ele>1235.1999511719</ele>
        <time>2013-08-18T07:28:34.000Z</time>
      </trkpt>
      <trkpt lat="45.56694" lon="2.81819">
        <ele>1238.5999755859</ele>
        <time>2013-08-18T07:29:11.000Z</time>
      </trkpt>
      <trkpt lat="45.56699" lon="2.81821">
        <ele>1238.4000244141</ele>
        <time>2013-08-18T07:29:25.000Z</time>
      </trkpt>
      <trkpt lat="45.56705" lon="2.81824">
        <ele>1237.5999755859</ele>
        <time>2013-08-18T07:29:37.000Z</time>
      </trkpt>
      <trkpt lat="45.56708" lon="2.81824">
        <ele>1236.1999511719</ele>
        <time>2013-08-18T07:29:50.000Z</time>
      </trkpt>
      <trkpt lat="45.5671" lon="2.81832">
        <ele>1238.8000488281</ele>
        <time>2013-08-18T07:30:01.000Z</time>
      </trkpt>
      <trkpt lat="45.5671" lon="2.81835">
        <ele>1239.4000244141</ele>
        <time>2013-08-18T07:30:04.000Z</time>
      </trkpt>
      <trkpt lat="45.56708" lon="2.81844">
        <ele>1242.5999755859</ele>
        <time>2013-08-18T07:30:12.000Z</time>
      </trkpt>
      <trkpt lat="45.56713" lon="2.81846">
        <ele>1243</ele>
        <time>2013-08-18T07:30:24.000Z</time>
      </trkpt>
      <trkpt lat="45.56714" lon="2.81852">
        <ele>1246.1999511719</ele>
        <time>2013-08-18T07:30:39.000Z</time>
      </trkpt>
      <trkpt lat="45.56711" lon="2.81856">
        <ele>1248.5999755859</ele>
        <time>2013-08-18T07:30:54.000Z</time>
      </trkpt>
      <trkpt lat="45.56707" lon="2.81861">
        <ele>1251.1999511719</ele>
        <time>2013-08-18T07:31:10.000Z</time>
      </trkpt>
      <trkpt lat="45.56705" lon="2.81874">
        <ele>1258</ele>
        <time>2013-08-18T07:31:25.000Z</time>
      </trkpt>
      <trkpt lat="45.56706" lon="2.81875">
        <ele>1258.5999755859</ele>
        <time>2013-08-18T07:31:43.000Z</time>
      </trkpt>
      <trkpt lat="45.56712" lon="2.81878">
        <ele>1259.4000244141</ele>
        <time>2013-08-18T07:31:58.000Z</time>
      </trkpt>
      <trkpt lat="45.5672" lon="2.81877">
        <ele>1258.8000488281</ele>
        <time>2013-08-18T07:32:13.000Z</time>
      </trkpt>
      <trkpt lat="45.56724" lon="2.81873">
        <ele>1257.5999755859</ele>
        <time>2013-08-18T07:32:30.000Z</time>
      </trkpt>
      <trkpt lat="45.56731" lon="2.81866">
        <ele>1256.1999511719</ele>
        <time>2013-08-18T07:32:45.000Z</time>
      </trkpt>
      <trkpt lat="45.56742" lon="2.8185">
        <ele>1251.8000488281</ele>
        <time>2013-08-18T07:33:00.000Z</time>
      </trkpt>
      <trkpt lat="45.56751" lon="2.81845">
        <ele>1252.8000488281</ele>
        <time>2013-08-18T07:33:14.000Z</time>
      </trkpt>
      <trkpt lat="45.56762" lon="2.81834">
        <ele>1251.5999755859</ele>
        <time>2013-08-18T07:33:28.000Z</time>
      </trkpt>
      <trkpt lat="45.56769" lon="2.81834">
        <ele>1253.8000488281</ele>
        <time>2013-08-18T07:33:39.000Z</time>
      </trkpt>
      <trkpt lat="45.56771" lon="2.81846">
        <ele>1259.8000488281</ele>
        <time>2013-08-18T07:33:56.000Z</time>
      </trkpt>
      <trkpt lat="45.5677" lon="2.8185">
        <ele>1261.4000244141</ele>
        <time>2013-08-18T07:34:12.000Z</time>
      </trkpt>
      <trkpt lat="45.56767" lon="2.81863">
        <ele>1265.8000488281</ele>
        <time>2013-08-18T07:34:30.000Z</time>
      </trkpt>
      <trkpt lat="45.56757" lon="2.81886">
        <ele>1272.8000488281</ele>
        <time>2013-08-18T07:34:47.000Z</time>
      </trkpt>
      <trkpt lat="45.56752" lon="2.81891">
        <ele>1274.1999511719</ele>
        <time>2013-08-18T07:35:04.000Z</time>
      </trkpt>
      <trkpt lat="45.56739" lon="2.81897">
        <ele>1273.5999755859</ele>
        <time>2013-08-18T07:35:21.000Z</time>
      </trkpt>
      <trkpt lat="45.56728" lon="2.81912">
        <ele>1278.5999755859</ele>
        <time>2013-08-18T07:35:37.000Z</time>
      </trkpt>
      <trkpt lat="45.56716" lon="2.81912">
        <ele>1276</ele>
        <time>2013-08-18T07:35:53.000Z</time>
      </trkpt>
      <trkpt lat="45.56707" lon="2.81912">
        <ele>1277</ele>
        <time>2013-08-18T07:36:10.000Z</time>
      </trkpt>
      <trkpt lat="45.56697" lon="2.81925">
        <ele>1279.5999755859</ele>
        <time>2013-08-18T07:36:28.000Z</time>
      </trkpt>
      <trkpt lat="45.56693" lon="2.81938">
        <ele>1287</ele>
        <time>2013-08-18T07:36:45.000Z</time>
      </trkpt>
      <trkpt lat="45.56682" lon="2.81964">
        <ele>1301.1999511719</ele>
        <time>2013-08-18T07:37:02.000Z</time>
      </trkpt>
      <trkpt lat="45.56673" lon="2.81978">
        <ele>1306.4000244141</ele>
        <time>2013-08-18T07:37:19.000Z</time>
      </trkpt>
      <trkpt lat="45.56669" lon="2.81982">
        <ele>1307.4000244141</ele>
        <time>2013-08-18T07:37:37.000Z</time>
      </trkpt>
      <trkpt lat="45.56658" lon="2.81989">
        <ele>1308.4000244141</ele>
        <time>2013-08-18T07:37:52.000Z</time>
      </trkpt>
      <trkpt lat="45.56646" lon="2.81989">
        <ele>1304.8000488281</ele>
        <time>2013-08-18T07:38:07.000Z</time>
      </trkpt>
      <trkpt lat="45.56645" lon="2.81988">
        <ele>1304.1999511719</ele>
        <time>2013-08-18T07:38:22.000Z</time>
      </trkpt>
      <trkpt lat="45.56644" lon="2.81986">
        <ele>1302.8000488281</ele>
        <time>2013-08-18T07:38:44.000Z</time>
      </trkpt>
      <trkpt lat="45.56643" lon="2.81987">
        <ele>1302.8000488281</ele>
        <time>2013-08-18T07:39:04.000Z</time>
      </trkpt>
      <trkpt lat="45.56644" lon="2.81987">
        <ele>1303.1999511719</ele>
        <time>2013-08-18T07:39:30.000Z</time>
      </trkpt>
      <trkpt lat="45.56643" lon="2.81996">
        <ele>1307.5999755859</ele>
        <time>2013-08-18T07:40:10.000Z</time>
      </trkpt>
      <trkpt lat="45.56644" lon="2.81999">
        <ele>1309.4000244141</ele>
        <time>2013-08-18T07:40:47.000Z</time>
      </trkpt>
      <trkpt lat="45.56646" lon="2.82005">
        <ele>1312.8000488281</ele>
        <time>2013-08-18T07:41:25.000Z</time>
      </trkpt>
      <trkpt lat="45.56646" lon="2.82006">
        <ele>1313.5999755859</ele>
        <time>2013-08-18T07:41:49.000Z</time>
      </trkpt>
      <trkpt lat="45.56647" lon="2.82008">
        <ele>1314.4000244141</ele>
        <time>2013-08-18T07:42:13.000Z</time>
      </trkpt>
      <trkpt lat="45.56647" lon="2.82009">
        <ele>1314.8000488281</ele>
        <time>2013-08-18T07:42:43.000Z</time>
      </trkpt>
      <trkpt lat="45.56648" lon="2.82004">
        <ele>1312.5999755859</ele>
        <time>2013-08-18T07:43:07.000Z</time>
      </trkpt>
      <trkpt lat="45.56647" lon="2.82002">
        <ele>1311.5999755859</ele>
        <time>2013-08-18T07:43:27.000Z</time>
      </trkpt>
      <trkpt lat="45.56645" lon="2.82">
        <ele>1310.1999511719</ele>
        <time>2013-08-18T07:43:48.000Z</time>
      </trkpt>
      <trkpt lat="45.56645" lon="2.81999">
        <ele>1309.5999755859</ele>
        <time>2013-08-18T07:44:06.000Z</time>
      </trkpt>
      <trkpt lat="45.5664" lon="2.81991">
        <ele>1304.4000244141</ele>
        <time>2013-08-18T07:44:26.000Z</time>
      </trkpt>
      <trkpt lat="45.56632" lon="2.81966">
        <ele>1290.8000488281</ele>
        <time>2013-08-18T07:44:42.000Z</time>
      </trkpt>
      <trkpt lat="45.56626" lon="2.81954">
        <ele>1287.8000488281</ele>
        <time>2013-08-18T07:44:58.000Z</time>
      </trkpt>
      <trkpt lat="45.56623" lon="2.81951">
        <ele>1287.8000488281</ele>
        <time>2013-08-18T07:45:15.000Z</time>
      </trkpt>
      <trkpt lat="45.56621" lon="2.81953">
        <ele>1289.8000488281</ele>
        <time>2013-08-18T07:45:34.000Z</time>
      </trkpt>
      <trkpt lat="45.56619" lon="2.81951">
        <ele>1290</ele>
        <time>2013-08-18T07:45:50.000Z</time>
      </trkpt>
      <trkpt lat="45.56616" lon="2.81943">
        <ele>1287.4000244141</ele>
        <time>2013-08-18T07:46:10.000Z</time>
      </trkpt>
      <trkpt lat="45.5661" lon="2.81939">
        <ele>1288.1999511719</ele>
        <time>2013-08-18T07:46:28.000Z</time>
      </trkpt>
      <trkpt lat="45.56597" lon="2.81934">
        <ele>1292.4000244141</ele>
        <time>2013-08-18T07:46:42.000Z</time>
      </trkpt>
      <trkpt lat="45.56591" lon="2.81926">
        <ele>1291.1999511719</ele>
        <time>2013-08-18T07:46:59.000Z</time>
      </trkpt>
      <trkpt lat="45.5659" lon="2.8192">
        <ele>1289.8000488281</ele>
        <time>2013-08-18T07:47:09.000Z</time>
      </trkpt>
      <trkpt lat="45.56586" lon="2.81928">
        <ele>1295</ele>
        <time>2013-08-18T07:47:23.000Z</time>
      </trkpt>
      <trkpt lat="45.56585" lon="2.81935">
        <ele>1298.8000488281</ele>
        <time>2013-08-18T07:47:36.000Z</time>
      </trkpt>
      <trkpt lat="45.56584" lon="2.81944">
        <ele>1304.1999511719</ele>
        <time>2013-08-18T07:47:48.000Z</time>
      </trkpt>
      <trkpt lat="45.56582" lon="2.81945">
        <ele>1306</ele>
        <time>2013-08-18T07:48:02.000Z</time>
      </trkpt>
      <trkpt lat="45.5658" lon="2.81944">
        <ele>1306.5999755859</ele>
        <time>2013-08-18T07:48:31.000Z</time>
      </trkpt>
      <trkpt lat="45.5658" lon="2.81947">
        <ele>1308</ele>
        <time>2013-08-18T07:48:49.000Z</time>
      </trkpt>
      <trkpt lat="45.56579" lon="2.81947">
        <ele>1308.4000244141</ele>
        <time>2013-08-18T07:49:03.000Z</time>
      </trkpt>
      <trkpt lat="45.56578" lon="2.81946">
        <ele>1308.4000244141</ele>
        <time>2013-08-18T07:49:19.000Z</time>
      </trkpt>
      <trkpt lat="45.56578" lon="2.81945">
        <ele>1308</ele>
        <time>2013-08-18T07:49:35.000Z</time>
      </trkpt>
      <trkpt lat="45.56575" lon="2.81939">
        <ele>1306.5999755859</ele>
        <time>2013-08-18T07:49:51.000Z</time>
      </trkpt>
      <trkpt lat="45.56564" lon="2.81935">
        <ele>1310</ele>
        <time>2013-08-18T07:50:05.000Z</time>
      </trkpt>
      <trkpt lat="45.56561" lon="2.81924">
        <ele>1306</ele>
        <time>2013-08-18T07:50:19.000Z</time>
      </trkpt>
      <trkpt lat="45.56561" lon="2.81922">
        <ele>1304.5999755859</ele>
        <time>2013-08-18T07:50:49.000Z</time>
      </trkpt>
      <trkpt lat="45.56561" lon="2.81921">
        <ele>1304.5999755859</ele>
        <time>2013-08-18T07:51:07.000Z</time>
      </trkpt>
      <trkpt lat="45.56562" lon="2.8192">
        <ele>1304.4000244141</ele>
        <time>2013-08-18T07:51:25.000Z</time>
      </trkpt>
      <trkpt lat="45.56562" lon="2.8192">
        <ele>1304.1999511719</ele>
        <time>2013-08-18T07:51:50.000Z</time>
      </trkpt>
      <trkpt lat="45.56561" lon="2.81919">
        <ele>1304.4000244141</ele>
        <time>2013-08-18T07:52:06.000Z</time>
      </trkpt>
      <trkpt lat="45.56562" lon="2.81919">
        <ele>1304.1999511719</ele>
        <time>2013-08-18T07:52:28.000Z</time>
      </trkpt>
      <trkpt lat="45.56562" lon="2.8192">
        <ele>1304.1999511719</ele>
        <time>2013-08-18T07:52:44.000Z</time>
      </trkpt>
      <trkpt lat="45.56563" lon="2.8192">
        <ele>1303.8000488281</ele>
        <time>2013-08-18T07:53:06.000Z</time>
      </trkpt>
      <trkpt lat="45.5656" lon="2.81913">
        <ele>1304.4000244141</ele>
        <time>2013-08-18T07:53:19.000Z</time>
      </trkpt>
      <trkpt lat="45.56557" lon="2.81901">
        <ele>1304.4000244141</ele>
        <time>2013-08-18T07:53:32.000Z</time>
      </trkpt>
      <trkpt lat="45.56557" lon="2.81892">
        <ele>1303.4000244141</ele>
        <time>2013-08-18T07:53:45.000Z</time>
      </trkpt>
      <trkpt lat="45.56558" lon="2.81884">
        <ele>1302</ele>
        <time>2013-08-18T07:53:52.000Z</time>
      </trkpt>
      <trkpt lat="45.56557" lon="2.81861">
        <ele>1299.5999755859</ele>
        <time>2013-08-18T07:54:06.000Z</time>
      </trkpt>
      <trkpt lat="45.56558" lon="2.81846">
        <ele>1297.4000244141</ele>
        <time>2013-08-18T07:54:21.000Z</time>
      </trkpt>
      <trkpt lat="45.56558" lon="2.81847">
        <ele>1297.4000244141</ele>
        <time>2013-08-18T07:54:40.000Z</time>
      </trkpt>
      <trkpt lat="45.56557" lon="2.81848">
        <ele>1298</ele>
        <time>2013-08-18T07:55:00.000Z</time>
      </trkpt>
      <trkpt lat="45.56557" lon="2.81847">
        <ele>1297.8000488281</ele>
        <time>2013-08-18T07:55:16.000Z</time>
      </trkpt>
      <trkpt lat="45.56556" lon="2.81845">
        <ele>1298</ele>
        <time>2013-08-18T07:55:29.000Z</time>
      </trkpt>
      <trkpt lat="45.56556" lon="2.81845">
        <ele>1298</ele>
        <time>2013-08-18T07:55:56.000Z</time>
      </trkpt>
      <trkpt lat="45.56555" lon="2.81845">
        <ele>1298.5999755859</ele>
        <time>2013-08-18T07:56:33.000Z</time>
      </trkpt>
      <trkpt lat="45.56555" lon="2.81844">
        <ele>1298.4000244141</ele>
        <time>2013-08-18T07:57:08.000Z</time>
      </trkpt>
      <trkpt lat="45.56553" lon="2.81842">
        <ele>1299.4000244141</ele>
        <time>2013-08-18T07:57:11.000Z</time>
      </trkpt>
      <trkpt lat="45.5655" lon="2.81839">
        <ele>1300.5999755859</ele>
        <time>2013-08-18T07:57:15.000Z</time>
      </trkpt>
      <trkpt lat="45.56537" lon="2.81839">
        <ele>1304.5999755859</ele>
        <time>2013-08-18T07:57:30.000Z</time>
      </trkpt>
      <trkpt lat="45.56529" lon="2.81834">
        <ele>1304.8000488281</ele>
        <time>2013-08-18T07:57:43.000Z</time>
      </trkpt>
      <trkpt lat="45.56527" lon="2.81835">
        <ele>1306.1999511719</ele>
        <time>2013-08-18T07:57:58.000Z</time>
      </trkpt>
      <trkpt lat="45.5652" lon="2.81839">
        <ele>1310</ele>
        <time>2013-08-18T07:58:09.000Z</time>
      </trkpt>
      <trkpt lat="45.56511" lon="2.81842">
        <ele>1313.5999755859</ele>
        <time>2013-08-18T07:58:23.000Z</time>
      </trkpt>
      <trkpt lat="45.56505" lon="2.81845">
        <ele>1315.8000488281</ele>
        <time>2013-08-18T07:58:36.000Z</time>
      </trkpt>
      <trkpt lat="45.56497" lon="2.81848">
        <ele>1318.5999755859</ele>
        <time>2013-08-18T07:58:49.000Z</time>
      </trkpt>
      <trkpt lat="45.5649" lon="2.8185">
        <ele>1321.1999511719</ele>
        <time>2013-08-18T07:59:02.000Z</time>
      </trkpt>
      <trkpt lat="45.56487" lon="2.8185">
        <ele>1322</ele>
        <time>2013-08-18T07:59:05.000Z</time>
      </trkpt>
      <trkpt lat="45.56484" lon="2.81851">
        <ele>1323.1999511719</ele>
        <time>2013-08-18T07:59:18.000Z</time>
      </trkpt>
      <trkpt lat="45.56477" lon="2.81851">
        <ele>1325.5999755859</ele>
        <time>2013-08-18T07:59:33.000Z</time>
      </trkpt>
      <trkpt lat="45.56473" lon="2.81853">
        <ele>1327.5999755859</ele>
        <time>2013-08-18T07:59:43.000Z</time>
      </trkpt>
      <trkpt lat="45.56467" lon="2.81851">
        <ele>1329</ele>
        <time>2013-08-18T07:59:56.000Z</time>
      </trkpt>
      <trkpt lat="45.56463" lon="2.81852">
        <ele>1329.5999755859</ele>
        <time>2013-08-18T08:00:15.000Z</time>
      </trkpt>
      <trkpt lat="45.56458" lon="2.81849">
        <ele>1330</ele>
        <time>2013-08-18T08:00:27.000Z</time>
      </trkpt>
      <trkpt lat="45.56457" lon="2.81849">
        <ele>1330</ele>
        <time>2013-08-18T08:00:45.000Z</time>
      </trkpt>
      <trkpt lat="45.56456" lon="2.81849">
        <ele>1330.1999511719</ele>
        <time>2013-08-18T08:01:16.000Z</time>
      </trkpt>
      <trkpt lat="45.56455" lon="2.8185">
        <ele>1330.4000244141</ele>
        <time>2013-08-18T08:01:47.000Z</time>
      </trkpt>
      <trkpt lat="45.56454" lon="2.81849">
        <ele>1330.4000244141</ele>
        <time>2013-08-18T08:02:14.000Z</time>
      </trkpt>
      <trkpt lat="45.56454" lon="2.81849">
        <ele>1330.4000244141</ele>
        <time>2013-08-18T08:02:40.000Z</time>
      </trkpt>
      <trkpt lat="45.56454" lon="2.81848">
        <ele>1330.4000244141</ele>
        <time>2013-08-18T08:03:16.000Z</time>
      </trkpt>
      <trkpt lat="45.56453" lon="2.8185">
        <ele>1330.8000488281</ele>
        <time>2013-08-18T08:03:48.000Z</time>
      </trkpt>
      <trkpt lat="45.56447" lon="2.81858">
        <ele>1332.8000488281</ele>
        <time>2013-08-18T08:04:03.000Z</time>
      </trkpt>
      <trkpt lat="45.56441" lon="2.81863">
        <ele>1334.4000244141</ele>
        <time>2013-08-18T08:04:15.000Z</time>
      </trkpt>
      <trkpt lat="45.56432" lon="2.81863">
        <ele>1335.5999755859</ele>
        <time>2013-08-18T08:04:28.000Z</time>
      </trkpt>
      <trkpt lat="45.56422" lon="2.81862">
        <ele>1336.5999755859</ele>
        <time>2013-08-18T08:04:42.000Z</time>
      </trkpt>
      <trkpt lat="45.56416" lon="2.81862">
        <ele>1337.4000244141</ele>
        <time>2013-08-18T08:04:55.000Z</time>
      </trkpt>
      <trkpt lat="45.56407" lon="2.81864">
        <ele>1339.1999511719</ele>
        <time>2013-08-18T08:05:10.000Z</time>
      </trkpt>
      <trkpt lat="45.56405" lon="2.81868">
        <ele>1340.5999755859</ele>
        <time>2013-08-18T08:05:19.000Z</time>
      </trkpt>
      <trkpt lat="45.56404" lon="2.81873">
        <ele>1342.1999511719</ele>
        <time>2013-08-18T08:05:25.000Z</time>
      </trkpt>
      <trkpt lat="45.56392" lon="2.81883">
        <ele>1347.4000244141</ele>
        <time>2013-08-18T08:05:41.000Z</time>
      </trkpt>
      <trkpt lat="45.56386" lon="2.81887">
        <ele>1349.8000488281</ele>
        <time>2013-08-18T08:05:54.000Z</time>
      </trkpt>
      <trkpt lat="45.56381" lon="2.81891">
        <ele>1351.4000244141</ele>
        <time>2013-08-18T08:06:06.000Z</time>
      </trkpt>
      <trkpt lat="45.56378" lon="2.81894">
        <ele>1352.4000244141</ele>
        <time>2013-08-18T08:06:18.000Z</time>
      </trkpt>
      <trkpt lat="45.56372" lon="2.81898">
        <ele>1354</ele>
        <time>2013-08-18T08:06:29.000Z</time>
      </trkpt>
      <trkpt lat="45.56368" lon="2.81898">
        <ele>1354.4000244141</ele>
        <time>2013-08-18T08:06:41.000Z</time>
      </trkpt>
      <trkpt lat="45.56359" lon="2.81904">
        <ele>1357.1999511719</ele>
        <time>2013-08-18T08:06:54.000Z</time>
      </trkpt>
      <trkpt lat="45.56353" lon="2.81906">
        <ele>1358.5999755859</ele>
        <time>2013-08-18T08:07:08.000Z</time>
      </trkpt>
      <trkpt lat="45.56345" lon="2.81911">
        <ele>1361.4000244141</ele>
        <time>2013-08-18T08:07:20.000Z</time>
      </trkpt>
      <trkpt lat="45.56341" lon="2.81912">
        <ele>1362.4000244141</ele>
        <time>2013-08-18T08:07:27.000Z</time>
      </trkpt>
      <trkpt lat="45.56334" lon="2.81912">
        <ele>1363.5999755859</ele>
        <time>2013-08-18T08:07:43.000Z</time>
      </trkpt>
      <trkpt lat="45.56324" lon="2.81914">
        <ele>1365.5999755859</ele>
        <time>2013-08-18T08:07:58.000Z</time>
      </trkpt>
      <trkpt lat="45.5632" lon="2.81914">
        <ele>1366.4000244141</ele>
        <time>2013-08-18T08:08:11.000Z</time>
      </trkpt>
      <trkpt lat="45.56312" lon="2.81913">
        <ele>1367.4000244141</ele>
        <time>2013-08-18T08:08:23.000Z</time>
      </trkpt>
      <trkpt lat="45.56309" lon="2.81912">
        <ele>1367.5999755859</ele>
        <time>2013-08-18T08:08:38.000Z</time>
      </trkpt>
      <trkpt lat="45.56299" lon="2.81913">
        <ele>1369.1999511719</ele>
        <time>2013-08-18T08:08:52.000Z</time>
      </trkpt>
      <trkpt lat="45.56297" lon="2.81915">
        <ele>1369.8000488281</ele>
        <time>2013-08-18T08:09:04.000Z</time>
      </trkpt>
      <trkpt lat="45.56293" lon="2.81916">
        <ele>1370</ele>
        <time>2013-08-18T08:09:24.000Z</time>
      </trkpt>
      <trkpt lat="45.56281" lon="2.81922">
        <ele>1373.1999511719</ele>
        <time>2013-08-18T08:09:38.000Z</time>
      </trkpt>
      <trkpt lat="45.56273" lon="2.81929">
        <ele>1374.4000244141</ele>
        <time>2013-08-18T08:09:51.000Z</time>
      </trkpt>
      <trkpt lat="45.56267" lon="2.81932">
        <ele>1375</ele>
        <time>2013-08-18T08:10:04.000Z</time>
      </trkpt>
      <trkpt lat="45.56258" lon="2.81936">
        <ele>1376</ele>
        <time>2013-08-18T08:10:16.000Z</time>
      </trkpt>
      <trkpt lat="45.56256" lon="2.81937">
        <ele>1376.1999511719</ele>
        <time>2013-08-18T08:10:19.000Z</time>
      </trkpt>
      <trkpt lat="45.56245" lon="2.81949">
        <ele>1378</ele>
        <time>2013-08-18T08:10:35.000Z</time>
      </trkpt>
      <trkpt lat="45.5624" lon="2.81953">
        <ele>1379.8000488281</ele>
        <time>2013-08-18T08:10:49.000Z</time>
      </trkpt>
      <trkpt lat="45.56233" lon="2.81962">
        <ele>1382.5999755859</ele>
        <time>2013-08-18T08:11:04.000Z</time>
      </trkpt>
      <trkpt lat="45.56228" lon="2.81973">
        <ele>1385.5999755859</ele>
        <time>2013-08-18T08:11:17.000Z</time>
      </trkpt>
      <trkpt lat="45.56228" lon="2.81973">
        <ele>1385.5999755859</ele>
        <time>2013-08-18T08:11:37.000Z</time>
      </trkpt>
      <trkpt lat="45.56222" lon="2.81974">
        <ele>1386.8000488281</ele>
        <time>2013-08-18T08:12:00.000Z</time>
      </trkpt>
      <trkpt lat="45.5622" lon="2.81974">
        <ele>1387.1999511719</ele>
        <time>2013-08-18T08:12:02.000Z</time>
      </trkpt>
      <trkpt lat="45.56212" lon="2.81982">
        <ele>1388.8000488281</ele>
        <time>2013-08-18T08:12:16.000Z</time>
      </trkpt>
      <trkpt lat="45.56212" lon="2.81993">
        <ele>1391</ele>
        <time>2013-08-18T08:12:29.000Z</time>
      </trkpt>
      <trkpt lat="45.56211" lon="2.81992">
        <ele>1390.8000488281</ele>
        <time>2013-08-18T08:12:35.000Z</time>
      </trkpt>
      <trkpt lat="45.56204" lon="2.81983">
        <ele>1388.4000244141</ele>
        <time>2013-08-18T08:12:45.000Z</time>
      </trkpt>
      <trkpt lat="45.56195" lon="2.81978">
        <ele>1386.8000488281</ele>
        <time>2013-08-18T08:12:59.000Z</time>
      </trkpt>
      <trkpt lat="45.56194" lon="2.8198">
        <ele>1387</ele>
        <time>2013-08-18T08:13:10.000Z</time>
      </trkpt>
      <trkpt lat="45.56194" lon="2.81981">
        <ele>1387.1999511719</ele>
        <time>2013-08-18T08:13:35.000Z</time>
      </trkpt>
      <trkpt lat="45.56194" lon="2.8198">
        <ele>1387.1999511719</ele>
        <time>2013-08-18T08:14:00.000Z</time>
      </trkpt>
      <trkpt lat="45.56194" lon="2.8198">
        <ele>1387.1999511719</ele>
        <time>2013-08-18T08:14:35.000Z</time>
      </trkpt>
      <trkpt lat="45.56194" lon="2.81979">
        <ele>1387</ele>
        <time>2013-08-18T08:15:09.000Z</time>
      </trkpt>
      <trkpt lat="45.56194" lon="2.81979">
        <ele>1386.8000488281</ele>
        <time>2013-08-18T08:15:42.000Z</time>
      </trkpt>
      <trkpt lat="45.56193" lon="2.81978">
        <ele>1386.5999755859</ele>
        <time>2013-08-18T08:16:11.000Z</time>
      </trkpt>
      <trkpt lat="45.56194" lon="2.81978">
        <ele>1386.8000488281</ele>
        <time>2013-08-18T08:16:41.000Z</time>
      </trkpt>
      <trkpt lat="45.56194" lon="2.81979">
        <ele>1387</ele>
        <time>2013-08-18T08:17:15.000Z</time>
      </trkpt>
      <trkpt lat="45.56194" lon="2.8198">
        <ele>1387.1999511719</ele>
        <time>2013-08-18T08:17:57.000Z</time>
      </trkpt>
      <trkpt lat="45.56194" lon="2.81981">
        <ele>1387.1999511719</ele>
        <time>2013-08-18T08:18:27.000Z</time>
      </trkpt>
      <trkpt lat="45.56193" lon="2.8198">
        <ele>1387</ele>
        <time>2013-08-18T08:18:47.000Z</time>
      </trkpt>
      <trkpt lat="45.56193" lon="2.81979">
        <ele>1387</ele>
        <time>2013-08-18T08:19:13.000Z</time>
      </trkpt>
      <trkpt lat="45.56194" lon="2.81979">
        <ele>1387</ele>
        <time>2013-08-18T08:19:32.000Z</time>
      </trkpt>
      <trkpt lat="45.56194" lon="2.81979">
        <ele>1387</ele>
        <time>2013-08-18T08:19:58.000Z</time>
      </trkpt>
      <trkpt lat="45.56194" lon="2.8198">
        <ele>1387</ele>
        <time>2013-08-18T08:20:23.000Z</time>
      </trkpt>
      <trkpt lat="45.56194" lon="2.8198">
        <ele>1387</ele>
        <time>2013-08-18T08:20:46.000Z</time>
      </trkpt>
      <trkpt lat="45.56194" lon="2.8198">
        <ele>1387</ele>
        <time>2013-08-18T08:21:17.000Z</time>
      </trkpt>
      <trkpt lat="45.56194" lon="2.81979">
        <ele>1386.8000488281</ele>
        <time>2013-08-18T08:21:49.000Z</time>
      </trkpt>
      <trkpt lat="45.56194" lon="2.81979">
        <ele>1386.8000488281</ele>
        <time>2013-08-18T08:22:16.000Z</time>
      </trkpt>
      <trkpt lat="45.56194" lon="2.81979">
        <ele>1386.8000488281</ele>
        <time>2013-08-18T08:22:33.000Z</time>
      </trkpt>
      <trkpt lat="45.56194" lon="2.8198">
        <ele>1387</ele>
        <time>2013-08-18T08:23:00.000Z</time>
      </trkpt>
      <trkpt lat="45.56194" lon="2.8198">
        <ele>1387.1999511719</ele>
        <time>2013-08-18T08:23:26.000Z</time>
      </trkpt>
      <trkpt lat="45.56194" lon="2.81981">
        <ele>1387.1999511719</ele>
        <time>2013-08-18T08:23:57.000Z</time>
      </trkpt>
      <trkpt lat="45.56194" lon="2.81982">
        <ele>1387.4000244141</ele>
        <time>2013-08-18T08:24:25.000Z</time>
      </trkpt>
      <trkpt lat="45.56194" lon="2.81982">
        <ele>1387.5999755859</ele>
        <time>2013-08-18T08:24:39.000Z</time>
      </trkpt>
      <trkpt lat="45.56194" lon="2.81982">
        <ele>1387.5999755859</ele>
        <time>2013-08-18T08:24:58.000Z</time>
      </trkpt>
      <trkpt lat="45.56188" lon="2.8198">
        <ele>1387.5999755859</ele>
        <time>2013-08-18T08:25:14.000Z</time>
      </trkpt>
      <trkpt lat="45.56176" lon="2.81978">
        <ele>1387.8000488281</ele>
        <time>2013-08-18T08:25:30.000Z</time>
      </trkpt>
      <trkpt lat="45.56174" lon="2.81978">
        <ele>1387.5999755859</ele>
        <time>2013-08-18T08:25:33.000Z</time>
      </trkpt>
      <trkpt lat="45.5617" lon="2.81975">
        <ele>1387</ele>
        <time>2013-08-18T08:25:47.000Z</time>
      </trkpt>
      <trkpt lat="45.56166" lon="2.81973">
        <ele>1386.5999755859</ele>
        <time>2013-08-18T08:26:00.000Z</time>
      </trkpt>
      <trkpt lat="45.56163" lon="2.81976">
        <ele>1388</ele>
        <time>2013-08-18T08:26:12.000Z</time>
      </trkpt>
      <trkpt lat="45.56161" lon="2.81979">
        <ele>1389.4000244141</ele>
        <time>2013-08-18T08:26:22.000Z</time>
      </trkpt>
      <trkpt lat="45.56156" lon="2.81986">
        <ele>1392.4000244141</ele>
        <time>2013-08-18T08:26:35.000Z</time>
      </trkpt>
      <trkpt lat="45.56153" lon="2.8199">
        <ele>1393.8000488281</ele>
        <time>2013-08-18T08:26:49.000Z</time>
      </trkpt>
      <trkpt lat="45.56149" lon="2.81993">
        <ele>1395.4000244141</ele>
        <time>2013-08-18T08:27:01.000Z</time>
      </trkpt>
      <trkpt lat="45.56148" lon="2.81995">
        <ele>1396.1999511719</ele>
        <time>2013-08-18T08:27:19.000Z</time>
      </trkpt>
      <trkpt lat="45.56146" lon="2.82001">
        <ele>1398.5999755859</ele>
        <time>2013-08-18T08:27:30.000Z</time>
      </trkpt>
      <trkpt lat="45.56147" lon="2.82007">
        <ele>1400</ele>
        <time>2013-08-18T08:27:42.000Z</time>
      </trkpt>
      <trkpt lat="45.56142" lon="2.82018">
        <ele>1401.4000244141</ele>
        <time>2013-08-18T08:27:56.000Z</time>
      </trkpt>
      <trkpt lat="45.5614" lon="2.82021">
        <ele>1402.1999511719</ele>
        <time>2013-08-18T08:28:11.000Z</time>
      </trkpt>
      <trkpt lat="45.56135" lon="2.82027">
        <ele>1403.5999755859</ele>
        <time>2013-08-18T08:28:26.000Z</time>
      </trkpt>
      <trkpt lat="45.56133" lon="2.82037">
        <ele>1404.5999755859</ele>
        <time>2013-08-18T08:28:39.000Z</time>
      </trkpt>
      <trkpt lat="45.5613" lon="2.82043">
        <ele>1404.4000244141</ele>
        <time>2013-08-18T08:28:52.000Z</time>
      </trkpt>
      <trkpt lat="45.56128" lon="2.82046">
        <ele>1404</ele>
        <time>2013-08-18T08:29:09.000Z</time>
      </trkpt>
      <trkpt lat="45.56125" lon="2.82054">
        <ele>1403.8000488281</ele>
        <time>2013-08-18T08:29:22.000Z</time>
      </trkpt>
      <trkpt lat="45.56119" lon="2.82061">
        <ele>1402.8000488281</ele>
        <time>2013-08-18T08:29:33.000Z</time>
      </trkpt>
      <trkpt lat="45.56117" lon="2.82063">
        <ele>1402.1999511719</ele>
        <time>2013-08-18T08:29:40.000Z</time>
      </trkpt>
      <trkpt lat="45.56111" lon="2.82061">
        <ele>1399.8000488281</ele>
        <time>2013-08-18T08:29:47.000Z</time>
      </trkpt>
      <trkpt lat="45.56097" lon="2.82073">
        <ele>1400.5999755859</ele>
        <time>2013-08-18T08:30:04.000Z</time>
      </trkpt>
      <trkpt lat="45.56088" lon="2.82082">
        <ele>1402.4000244141</ele>
        <time>2013-08-18T08:30:18.000Z</time>
      </trkpt>
      <trkpt lat="45.56083" lon="2.82093">
        <ele>1404.4000244141</ele>
        <time>2013-08-18T08:30:34.000Z</time>
      </trkpt>
      <trkpt lat="45.56077" lon="2.821">
        <ele>1404.4000244141</ele>
        <time>2013-08-18T08:30:43.000Z</time>
      </trkpt>
      <trkpt lat="45.56073" lon="2.82105">
        <ele>1404.5999755859</ele>
        <time>2013-08-18T08:30:57.000Z</time>
      </trkpt>
      <trkpt lat="45.56067" lon="2.82113">
        <ele>1406.1999511719</ele>
        <time>2013-08-18T08:31:12.000Z</time>
      </trkpt>
      <trkpt lat="45.56061" lon="2.8212">
        <ele>1408.8000488281</ele>
        <time>2013-08-18T08:31:25.000Z</time>
      </trkpt>
      <trkpt lat="45.56056" lon="2.82126">
        <ele>1410.8000488281</ele>
        <time>2013-08-18T08:31:39.000Z</time>
      </trkpt>
      <trkpt lat="45.56049" lon="2.82135">
        <ele>1413.4000244141</ele>
        <time>2013-08-18T08:31:54.000Z</time>
      </trkpt>
      <trkpt lat="45.56044" lon="2.82142">
        <ele>1413.8000488281</ele>
        <time>2013-08-18T08:32:05.000Z</time>
      </trkpt>
      <trkpt lat="45.5604" lon="2.82147">
        <ele>1414.1999511719</ele>
        <time>2013-08-18T08:32:18.000Z</time>
      </trkpt>
      <trkpt lat="45.56038" lon="2.8215">
        <ele>1414.5999755859</ele>
        <time>2013-08-18T08:32:34.000Z</time>
      </trkpt>
      <trkpt lat="45.56032" lon="2.82161">
        <ele>1417.8000488281</ele>
        <time>2013-08-18T08:32:49.000Z</time>
      </trkpt>
      <trkpt lat="45.5603" lon="2.82165">
        <ele>1420</ele>
        <time>2013-08-18T08:33:05.000Z</time>
      </trkpt>
      <trkpt lat="45.56029" lon="2.82167">
        <ele>1420.8000488281</ele>
        <time>2013-08-18T08:33:21.000Z</time>
      </trkpt>
      <trkpt lat="45.56028" lon="2.82169">
        <ele>1421.8000488281</ele>
        <time>2013-08-18T08:33:40.000Z</time>
      </trkpt>
      <trkpt lat="45.56025" lon="2.82172">
        <ele>1423.5999755859</ele>
        <time>2013-08-18T08:33:57.000Z</time>
      </trkpt>
      <trkpt lat="45.56023" lon="2.82178">
        <ele>1424.5999755859</ele>
        <time>2013-08-18T08:34:11.000Z</time>
      </trkpt>
      <trkpt lat="45.56013" lon="2.82196">
        <ele>1428.1999511719</ele>
        <time>2013-08-18T08:34:27.000Z</time>
      </trkpt>
      <trkpt lat="45.56008" lon="2.82205">
        <ele>1429.8000488281</ele>
        <time>2013-08-18T08:34:44.000Z</time>
      </trkpt>
      <trkpt lat="45.55998" lon="2.82215">
        <ele>1433</ele>
        <time>2013-08-18T08:34:59.000Z</time>
      </trkpt>
      <trkpt lat="45.5599" lon="2.82221">
        <ele>1435.4000244141</ele>
        <time>2013-08-18T08:35:13.000Z</time>
      </trkpt>
      <trkpt lat="45.55987" lon="2.82225">
        <ele>1437</ele>
        <time>2013-08-18T08:35:26.000Z</time>
      </trkpt>
      <trkpt lat="45.55981" lon="2.8223">
        <ele>1439</ele>
        <time>2013-08-18T08:35:50.000Z</time>
      </trkpt>
      <trkpt lat="45.55978" lon="2.82233">
        <ele>1440.1999511719</ele>
        <time>2013-08-18T08:36:03.000Z</time>
      </trkpt>
      <trkpt lat="45.5597" lon="2.82239">
        <ele>1442.5999755859</ele>
        <time>2013-08-18T08:36:17.000Z</time>
      </trkpt>
      <trkpt lat="45.55961" lon="2.82246">
        <ele>1443.8000488281</ele>
        <time>2013-08-18T08:36:32.000Z</time>
      </trkpt>
      <trkpt lat="45.55951" lon="2.82254">
        <ele>1446.5999755859</ele>
        <time>2013-08-18T08:36:46.000Z</time>
      </trkpt>
      <trkpt lat="45.55946" lon="2.82256">
        <ele>1447.1999511719</ele>
        <time>2013-08-18T08:37:00.000Z</time>
      </trkpt>
      <trkpt lat="45.55938" lon="2.82261">
        <ele>1447.4000244141</ele>
        <time>2013-08-18T08:37:17.000Z</time>
      </trkpt>
      <trkpt lat="45.55932" lon="2.82264">
        <ele>1447.4000244141</ele>
        <time>2013-08-18T08:37:35.000Z</time>
      </trkpt>
      <trkpt lat="45.5592" lon="2.82268">
        <ele>1447</ele>
        <time>2013-08-18T08:37:50.000Z</time>
      </trkpt>
      <trkpt lat="45.55907" lon="2.82272">
        <ele>1446.5999755859</ele>
        <time>2013-08-18T08:38:06.000Z</time>
      </trkpt>
      <trkpt lat="45.55906" lon="2.82272">
        <ele>1446.5999755859</ele>
        <time>2013-08-18T08:38:07.000Z</time>
      </trkpt>
      <trkpt lat="45.55905" lon="2.82271">
        <ele>1446.1999511719</ele>
        <time>2013-08-18T08:38:09.000Z</time>
      </trkpt>
      <trkpt lat="45.55897" lon="2.82273">
        <ele>1446.5999755859</ele>
        <time>2013-08-18T08:38:23.000Z</time>
      </trkpt>
      <trkpt lat="45.55888" lon="2.82276">
        <ele>1447.8000488281</ele>
        <time>2013-08-18T08:38:36.000Z</time>
      </trkpt>
      <trkpt lat="45.55887" lon="2.82276">
        <ele>1447.8000488281</ele>
        <time>2013-08-18T08:38:54.000Z</time>
      </trkpt>
      <trkpt lat="45.55887" lon="2.82276">
        <ele>1447.8000488281</ele>
        <time>2013-08-18T08:39:23.000Z</time>
      </trkpt>
      <trkpt lat="45.55878" lon="2.82278">
        <ele>1448.5999755859</ele>
        <time>2013-08-18T08:39:40.000Z</time>
      </trkpt>
      <trkpt lat="45.55872" lon="2.82281">
        <ele>1449.4000244141</ele>
        <time>2013-08-18T08:39:54.000Z</time>
      </trkpt>
      <trkpt lat="45.55869" lon="2.82283">
        <ele>1450</ele>
        <time>2013-08-18T08:40:21.000Z</time>
      </trkpt>
      <trkpt lat="45.55855" lon="2.82288">
        <ele>1451.8000488281</ele>
        <time>2013-08-18T08:40:38.000Z</time>
      </trkpt>
      <trkpt lat="45.55855" lon="2.82288">
        <ele>1451.5999755859</ele>
        <time>2013-08-18T08:41:03.000Z</time>
      </trkpt>
      <trkpt lat="45.55849" lon="2.8229">
        <ele>1452.4000244141</ele>
        <time>2013-08-18T08:41:24.000Z</time>
      </trkpt>
      <trkpt lat="45.55835" lon="2.82296">
        <ele>1454.8000488281</ele>
        <time>2013-08-18T08:41:39.000Z</time>
      </trkpt>
      <trkpt lat="45.55822" lon="2.82301">
        <ele>1457.5999755859</ele>
        <time>2013-08-18T08:41:54.000Z</time>
      </trkpt>
      <trkpt lat="45.55816" lon="2.82304">
        <ele>1459.1999511719</ele>
        <time>2013-08-18T08:42:05.000Z</time>
      </trkpt>
      <trkpt lat="45.55803" lon="2.82309">
        <ele>1462.1999511719</ele>
        <time>2013-08-18T08:42:22.000Z</time>
      </trkpt>
      <trkpt lat="45.55796" lon="2.82314">
        <ele>1464.1999511719</ele>
        <time>2013-08-18T08:42:36.000Z</time>
      </trkpt>
      <trkpt lat="45.55796" lon="2.82314">
        <ele>1464.1999511719</ele>
        <time>2013-08-18T08:42:57.000Z</time>
      </trkpt>
      <trkpt lat="45.55789" lon="2.82314">
        <ele>1464.4000244141</ele>
        <time>2013-08-18T08:43:19.000Z</time>
      </trkpt>
      <trkpt lat="45.5578" lon="2.8232">
        <ele>1466.8000488281</ele>
        <time>2013-08-18T08:43:34.000Z</time>
      </trkpt>
      <trkpt lat="45.55772" lon="2.82323">
        <ele>1467.8000488281</ele>
        <time>2013-08-18T08:43:49.000Z</time>
      </trkpt>
      <trkpt lat="45.55773" lon="2.82321">
        <ele>1467.4000244141</ele>
        <time>2013-08-18T08:44:12.000Z</time>
      </trkpt>
      <trkpt lat="45.55771" lon="2.82322">
        <ele>1467.8000488281</ele>
        <time>2013-08-18T08:44:49.000Z</time>
      </trkpt>
      <trkpt lat="45.55757" lon="2.82332">
        <ele>1470.5999755859</ele>
        <time>2013-08-18T08:45:05.000Z</time>
      </trkpt>
      <trkpt lat="45.5575" lon="2.82337">
        <ele>1472.4000244141</ele>
        <time>2013-08-18T08:45:20.000Z</time>
      </trkpt>
      <trkpt lat="45.55748" lon="2.82339">
        <ele>1473</ele>
        <time>2013-08-18T08:45:22.000Z</time>
      </trkpt>
      <trkpt lat="45.55747" lon="2.82343">
        <ele>1473.1999511719</ele>
        <time>2013-08-18T08:45:25.000Z</time>
      </trkpt>
      <trkpt lat="45.55745" lon="2.82349">
        <ele>1473.5999755859</ele>
        <time>2013-08-18T08:45:39.000Z</time>
      </trkpt>
      <trkpt lat="45.55743" lon="2.82349">
        <ele>1473.5999755859</ele>
        <time>2013-08-18T08:45:59.000Z</time>
      </trkpt>
      <trkpt lat="45.55743" lon="2.82348">
        <ele>1473.5999755859</ele>
        <time>2013-08-18T08:46:32.000Z</time>
      </trkpt>
      <trkpt lat="45.55743" lon="2.82347">
        <ele>1473.5999755859</ele>
        <time>2013-08-18T08:47:14.000Z</time>
      </trkpt>
      <trkpt lat="45.55743" lon="2.82347">
        <ele>1473.4000244141</ele>
        <time>2013-08-18T08:47:51.000Z</time>
      </trkpt>
      <trkpt lat="45.55744" lon="2.82347">
        <ele>1473.5999755859</ele>
        <time>2013-08-18T08:48:12.000Z</time>
      </trkpt>
      <trkpt lat="45.55744" lon="2.82347">
        <ele>1473.5999755859</ele>
        <time>2013-08-18T08:48:43.000Z</time>
      </trkpt>
      <trkpt lat="45.55743" lon="2.82348">
        <ele>1473.5999755859</ele>
        <time>2013-08-18T08:49:15.000Z</time>
      </trkpt>
      <trkpt lat="45.55743" lon="2.82348">
        <ele>1473.5999755859</ele>
        <time>2013-08-18T08:49:47.000Z</time>
      </trkpt>
      <trkpt lat="45.55743" lon="2.82348">
        <ele>1473.5999755859</ele>
        <time>2013-08-18T08:50:27.000Z</time>
      </trkpt>
      <trkpt lat="45.55743" lon="2.82348">
        <ele>1473.5999755859</ele>
        <time>2013-08-18T08:51:07.000Z</time>
      </trkpt>
      <trkpt lat="45.55743" lon="2.82348">
        <ele>1473.5999755859</ele>
        <time>2013-08-18T08:51:40.000Z</time>
      </trkpt>
      <trkpt lat="45.55743" lon="2.82349">
        <ele>1473.5999755859</ele>
        <time>2013-08-18T08:52:26.000Z</time>
      </trkpt>
      <trkpt lat="45.55743" lon="2.82349">
        <ele>1473.5999755859</ele>
        <time>2013-08-18T08:52:51.000Z</time>
      </trkpt>
      <trkpt lat="45.55743" lon="2.82349">
        <ele>1473.5999755859</ele>
        <time>2013-08-18T08:53:13.000Z</time>
      </trkpt>
      <trkpt lat="45.55743" lon="2.82349">
        <ele>1473.5999755859</ele>
        <time>2013-08-18T08:53:38.000Z</time>
      </trkpt>
      <trkpt lat="45.55743" lon="2.82349">
        <ele>1473.5999755859</ele>
        <time>2013-08-18T08:54:19.000Z</time>
      </trkpt>
      <trkpt lat="45.55743" lon="2.82349">
        <ele>1473.5999755859</ele>
        <time>2013-08-18T08:54:55.000Z</time>
      </trkpt>
      <trkpt lat="45.55743" lon="2.82349">
        <ele>1473.5999755859</ele>
        <time>2013-08-18T08:55:23.000Z</time>
      </trkpt>
      <trkpt lat="45.55743" lon="2.82349">
        <ele>1473.5999755859</ele>
        <time>2013-08-18T08:55:57.000Z</time>
      </trkpt>
      <trkpt lat="45.55743" lon="2.82349">
        <ele>1473.5999755859</ele>
        <time>2013-08-18T08:56:21.000Z</time>
      </trkpt>
      <trkpt lat="45.55743" lon="2.82348">
        <ele>1473.5999755859</ele>
        <time>2013-08-18T08:56:50.000Z</time>
      </trkpt>
      <trkpt lat="45.55741" lon="2.82348">
        <ele>1473.5999755859</ele>
        <time>2013-08-18T08:56:58.000Z</time>
      </trkpt>
      <trkpt lat="45.55737" lon="2.82347">
        <ele>1473.5999755859</ele>
        <time>2013-08-18T08:57:06.000Z</time>
      </trkpt>
      <trkpt lat="45.55724" lon="2.82353">
        <ele>1474.4000244141</ele>
        <time>2013-08-18T08:57:20.000Z</time>
      </trkpt>
      <trkpt lat="45.55723" lon="2.82353">
        <ele>1474.4000244141</ele>
        <time>2013-08-18T08:57:21.000Z</time>
      </trkpt>
      <trkpt lat="45.55714" lon="2.82354">
        <ele>1475.1999511719</ele>
        <time>2013-08-18T08:57:33.000Z</time>
      </trkpt>
      <trkpt lat="45.55707" lon="2.82354">
        <ele>1475.1999511719</ele>
        <time>2013-08-18T08:57:44.000Z</time>
      </trkpt>
      <trkpt lat="45.55694" lon="2.82354">
        <ele>1475.5999755859</ele>
        <time>2013-08-18T08:57:58.000Z</time>
      </trkpt>
      <trkpt lat="45.55682" lon="2.82362">
        <ele>1476.8000488281</ele>
        <time>2013-08-18T08:58:13.000Z</time>
      </trkpt>
      <trkpt lat="45.55676" lon="2.82368">
        <ele>1477.8000488281</ele>
        <time>2013-08-18T08:58:26.000Z</time>
      </trkpt>
      <trkpt lat="45.55665" lon="2.82375">
        <ele>1479.5999755859</ele>
        <time>2013-08-18T08:58:41.000Z</time>
      </trkpt>
      <trkpt lat="45.55653" lon="2.82381">
        <ele>1482.4000244141</ele>
        <time>2013-08-18T08:58:55.000Z</time>
      </trkpt>
      <trkpt lat="45.55647" lon="2.82384">
        <ele>1483.8000488281</ele>
        <time>2013-08-18T08:59:08.000Z</time>
      </trkpt>
      <trkpt lat="45.55641" lon="2.82391">
        <ele>1486.1999511719</ele>
        <time>2013-08-18T08:59:24.000Z</time>
      </trkpt>
      <trkpt lat="45.55631" lon="2.82399">
        <ele>1488.5999755859</ele>
        <time>2013-08-18T08:59:38.000Z</time>
      </trkpt>
      <trkpt lat="45.55624" lon="2.82407">
        <ele>1490</ele>
        <time>2013-08-18T08:59:54.000Z</time>
      </trkpt>
      <trkpt lat="45.55624" lon="2.82406">
        <ele>1490</ele>
        <time>2013-08-18T09:00:09.000Z</time>
      </trkpt>
      <trkpt lat="45.55617" lon="2.82413">
        <ele>1492.4000244141</ele>
        <time>2013-08-18T09:00:21.000Z</time>
      </trkpt>
      <trkpt lat="45.55602" lon="2.82421">
        <ele>1497.8000488281</ele>
        <time>2013-08-18T09:00:40.000Z</time>
      </trkpt>
      <trkpt lat="45.55593" lon="2.82427">
        <ele>1499.4000244141</ele>
        <time>2013-08-18T09:00:54.000Z</time>
      </trkpt>
      <trkpt lat="45.55582" lon="2.82432">
        <ele>1500.8000488281</ele>
        <time>2013-08-18T09:01:09.000Z</time>
      </trkpt>
      <trkpt lat="45.55576" lon="2.82437">
        <ele>1501.5999755859</ele>
        <time>2013-08-18T09:01:24.000Z</time>
      </trkpt>
      <trkpt lat="45.55568" lon="2.82444">
        <ele>1503.1999511719</ele>
        <time>2013-08-18T09:01:39.000Z</time>
      </trkpt>
      <trkpt lat="45.55561" lon="2.82447">
        <ele>1505.1999511719</ele>
        <time>2013-08-18T09:01:52.000Z</time>
      </trkpt>
      <trkpt lat="45.55553" lon="2.82451">
        <ele>1507.5999755859</ele>
        <time>2013-08-18T09:02:07.000Z</time>
      </trkpt>
      <trkpt lat="45.55548" lon="2.82454">
        <ele>1508.4000244141</ele>
        <time>2013-08-18T09:02:21.000Z</time>
      </trkpt>
      <trkpt lat="45.55546" lon="2.82455">
        <ele>1508.4000244141</ele>
        <time>2013-08-18T09:02:32.000Z</time>
      </trkpt>
      <trkpt lat="45.55542" lon="2.82456">
        <ele>1508.4000244141</ele>
        <time>2013-08-18T09:02:46.000Z</time>
      </trkpt>
      <trkpt lat="45.55535" lon="2.82461">
        <ele>1508.5999755859</ele>
        <time>2013-08-18T09:02:59.000Z</time>
      </trkpt>
      <trkpt lat="45.55532" lon="2.82465">
        <ele>1509</ele>
        <time>2013-08-18T09:03:07.000Z</time>
      </trkpt>
      <trkpt lat="45.55528" lon="2.82475">
        <ele>1509.8000488281</ele>
        <time>2013-08-18T09:03:19.000Z</time>
      </trkpt>
      <trkpt lat="45.55523" lon="2.82483">
        <ele>1511.4000244141</ele>
        <time>2013-08-18T09:03:33.000Z</time>
      </trkpt>
      <trkpt lat="45.55522" lon="2.82484">
        <ele>1512.1999511719</ele>
        <time>2013-08-18T09:03:35.000Z</time>
      </trkpt>
      <trkpt lat="45.55513" lon="2.82493">
        <ele>1515.8000488281</ele>
        <time>2013-08-18T09:03:48.000Z</time>
      </trkpt>
      <trkpt lat="45.55506" lon="2.82501">
        <ele>1519.1999511719</ele>
        <time>2013-08-18T09:04:02.000Z</time>
      </trkpt>
      <trkpt lat="45.55497" lon="2.82504">
        <ele>1521.4000244141</ele>
        <time>2013-08-18T09:04:16.000Z</time>
      </trkpt>
      <trkpt lat="45.5549" lon="2.82503">
        <ele>1522.1999511719</ele>
        <time>2013-08-18T09:04:29.000Z</time>
      </trkpt>
      <trkpt lat="45.55487" lon="2.82503">
        <ele>1522.5999755859</ele>
        <time>2013-08-18T09:04:40.000Z</time>
      </trkpt>
      <trkpt lat="45.55471" lon="2.825">
        <ele>1524</ele>
        <time>2013-08-18T09:04:56.000Z</time>
      </trkpt>
      <trkpt lat="45.55461" lon="2.825">
        <ele>1523.8000488281</ele>
        <time>2013-08-18T09:05:09.000Z</time>
      </trkpt>
      <trkpt lat="45.55457" lon="2.82501">
        <ele>1524.5999755859</ele>
        <time>2013-08-18T09:05:23.000Z</time>
      </trkpt>
      <trkpt lat="45.55453" lon="2.82503">
        <ele>1525.4000244141</ele>
        <time>2013-08-18T09:05:31.000Z</time>
      </trkpt>
      <trkpt lat="45.55443" lon="2.82511">
        <ele>1527.1999511719</ele>
        <time>2013-08-18T09:05:47.000Z</time>
      </trkpt>
      <trkpt lat="45.55435" lon="2.82516">
        <ele>1527.4000244141</ele>
        <time>2013-08-18T09:06:00.000Z</time>
      </trkpt>
      <trkpt lat="45.55427" lon="2.82524">
        <ele>1527.8000488281</ele>
        <time>2013-08-18T09:06:15.000Z</time>
      </trkpt>
      <trkpt lat="45.55423" lon="2.82526">
        <ele>1527.8000488281</ele>
        <time>2013-08-18T09:06:28.000Z</time>
      </trkpt>
      <trkpt lat="45.55419" lon="2.82529">
        <ele>1528</ele>
        <time>2013-08-18T09:06:47.000Z</time>
      </trkpt>
      <trkpt lat="45.55412" lon="2.82535">
        <ele>1528.8000488281</ele>
        <time>2013-08-18T09:07:00.000Z</time>
      </trkpt>
      <trkpt lat="45.55407" lon="2.82537">
        <ele>1530.5999755859</ele>
        <time>2013-08-18T09:07:13.000Z</time>
      </trkpt>
      <trkpt lat="45.55399" lon="2.8254">
        <ele>1533.4000244141</ele>
        <time>2013-08-18T09:07:29.000Z</time>
      </trkpt>
      <trkpt lat="45.55397" lon="2.82541">
        <ele>1534.1999511719</ele>
        <time>2013-08-18T09:07:45.000Z</time>
      </trkpt>
      <trkpt lat="45.55388" lon="2.82547">
        <ele>1538</ele>
        <time>2013-08-18T09:07:57.000Z</time>
      </trkpt>
      <trkpt lat="45.55378" lon="2.82551">
        <ele>1540.1999511719</ele>
        <time>2013-08-18T09:08:12.000Z</time>
      </trkpt>
      <trkpt lat="45.55371" lon="2.82553">
        <ele>1541.1999511719</ele>
        <time>2013-08-18T09:08:25.000Z</time>
      </trkpt>
      <trkpt lat="45.55369" lon="2.82553">
        <ele>1541.4000244141</ele>
        <time>2013-08-18T09:08:39.000Z</time>
      </trkpt>
      <trkpt lat="45.55367" lon="2.82553">
        <ele>1541.4000244141</ele>
        <time>2013-08-18T09:08:54.000Z</time>
      </trkpt>
      <trkpt lat="45.5536" lon="2.82554">
        <ele>1542.4000244141</ele>
        <time>2013-08-18T09:09:08.000Z</time>
      </trkpt>
      <trkpt lat="45.55352" lon="2.82555">
        <ele>1543</ele>
        <time>2013-08-18T09:09:23.000Z</time>
      </trkpt>
      <trkpt lat="45.55347" lon="2.82557">
        <ele>1544.1999511719</ele>
        <time>2013-08-18T09:09:38.000Z</time>
      </trkpt>
      <trkpt lat="45.55342" lon="2.82558">
        <ele>1545</ele>
        <time>2013-08-18T09:09:53.000Z</time>
      </trkpt>
      <trkpt lat="45.55333" lon="2.82564">
        <ele>1547.8000488281</ele>
        <time>2013-08-18T09:10:07.000Z</time>
      </trkpt>
      <trkpt lat="45.55324" lon="2.82567">
        <ele>1550</ele>
        <time>2013-08-18T09:10:22.000Z</time>
      </trkpt>
      <trkpt lat="45.55317" lon="2.82572">
        <ele>1552.1999511719</ele>
        <time>2013-08-18T09:10:35.000Z</time>
      </trkpt>
      <trkpt lat="45.55313" lon="2.82574">
        <ele>1553.1999511719</ele>
        <time>2013-08-18T09:10:50.000Z</time>
      </trkpt>
      <trkpt lat="45.5531" lon="2.82578">
        <ele>1554.8000488281</ele>
        <time>2013-08-18T09:11:06.000Z</time>
      </trkpt>
      <trkpt lat="45.55302" lon="2.8258">
        <ele>1556.5999755859</ele>
        <time>2013-08-18T09:11:22.000Z</time>
      </trkpt>
      <trkpt lat="45.55292" lon="2.82586">
        <ele>1559.4000244141</ele>
        <time>2013-08-18T09:11:36.000Z</time>
      </trkpt>
      <trkpt lat="45.55282" lon="2.82593">
        <ele>1563.4000244141</ele>
        <time>2013-08-18T09:11:51.000Z</time>
      </trkpt>
      <trkpt lat="45.55274" lon="2.826">
        <ele>1565.5999755859</ele>
        <time>2013-08-18T09:12:06.000Z</time>
      </trkpt>
      <trkpt lat="45.55267" lon="2.82605">
        <ele>1567.5999755859</ele>
        <time>2013-08-18T09:12:21.000Z</time>
      </trkpt>
      <trkpt lat="45.55261" lon="2.82609">
        <ele>1569.4000244141</ele>
        <time>2013-08-18T09:12:36.000Z</time>
      </trkpt>
      <trkpt lat="45.55258" lon="2.82611">
        <ele>1570.1999511719</ele>
        <time>2013-08-18T09:12:56.000Z</time>
      </trkpt>
      <trkpt lat="45.5525" lon="2.82615">
        <ele>1572.1999511719</ele>
        <time>2013-08-18T09:13:09.000Z</time>
      </trkpt>
      <trkpt lat="45.5524" lon="2.82622">
        <ele>1575.1999511719</ele>
        <time>2013-08-18T09:13:24.000Z</time>
      </trkpt>
      <trkpt lat="45.55232" lon="2.82628">
        <ele>1578</ele>
        <time>2013-08-18T09:13:37.000Z</time>
      </trkpt>
      <trkpt lat="45.55226" lon="2.82634">
        <ele>1580.1999511719</ele>
        <time>2013-08-18T09:13:51.000Z</time>
      </trkpt>
      <trkpt lat="45.55225" lon="2.82635">
        <ele>1580.4000244141</ele>
        <time>2013-08-18T09:14:05.000Z</time>
      </trkpt>
      <trkpt lat="45.55225" lon="2.82636">
        <ele>1580.5999755859</ele>
        <time>2013-08-18T09:14:23.000Z</time>
      </trkpt>
      <trkpt lat="45.55223" lon="2.82638">
        <ele>1581.1999511719</ele>
        <time>2013-08-18T09:14:58.000Z</time>
      </trkpt>
      <trkpt lat="45.55223" lon="2.82638">
        <ele>1581.1999511719</ele>
        <time>2013-08-18T09:15:24.000Z</time>
      </trkpt>
      <trkpt lat="45.55223" lon="2.82638">
        <ele>1581.1999511719</ele>
        <time>2013-08-18T09:16:05.000Z</time>
      </trkpt>
      <trkpt lat="45.55223" lon="2.82639">
        <ele>1581.4000244141</ele>
        <time>2013-08-18T09:16:39.000Z</time>
      </trkpt>
      <trkpt lat="45.55224" lon="2.82639">
        <ele>1581.1999511719</ele>
        <time>2013-08-18T09:17:04.000Z</time>
      </trkpt>
      <trkpt lat="45.55224" lon="2.82639">
        <ele>1581.1999511719</ele>
        <time>2013-08-18T09:17:25.000Z</time>
      </trkpt>
      <trkpt lat="45.55223" lon="2.82638">
        <ele>1581.1999511719</ele>
        <time>2013-08-18T09:18:01.000Z</time>
      </trkpt>
      <trkpt lat="45.55223" lon="2.82638">
        <ele>1581.1999511719</ele>
        <time>2013-08-18T09:18:39.000Z</time>
      </trkpt>
      <trkpt lat="45.55223" lon="2.82638">
        <ele>1581.1999511719</ele>
        <time>2013-08-18T09:19:22.000Z</time>
      </trkpt>
      <trkpt lat="45.55223" lon="2.82638">
        <ele>1581.1999511719</ele>
        <time>2013-08-18T09:20:04.000Z</time>
      </trkpt>
      <trkpt lat="45.55223" lon="2.82638">
        <ele>1581.1999511719</ele>
        <time>2013-08-18T09:20:30.000Z</time>
      </trkpt>
      <trkpt lat="45.55223" lon="2.82638">
        <ele>1581.4000244141</ele>
        <time>2013-08-18T09:21:08.000Z</time>
      </trkpt>
      <trkpt lat="45.55223" lon="2.82638">
        <ele>1581.1999511719</ele>
        <time>2013-08-18T09:21:39.000Z</time>
      </trkpt>
      <trkpt lat="45.55223" lon="2.82638">
        <ele>1581.4000244141</ele>
        <time>2013-08-18T09:22:16.000Z</time>
      </trkpt>
      <trkpt lat="45.55223" lon="2.82637">
        <ele>1581.1999511719</ele>
        <time>2013-08-18T09:22:48.000Z</time>
      </trkpt>
      <trkpt lat="45.55223" lon="2.82637">
        <ele>1581.1999511719</ele>
        <time>2013-08-18T09:23:31.000Z</time>
      </trkpt>
      <trkpt lat="45.55222" lon="2.82637">
        <ele>1581.4000244141</ele>
        <time>2013-08-18T09:23:57.000Z</time>
      </trkpt>
      <trkpt lat="45.55223" lon="2.82638">
        <ele>1581.4000244141</ele>
        <time>2013-08-18T09:24:20.000Z</time>
      </trkpt>
      <trkpt lat="45.55223" lon="2.82639">
        <ele>1581.4000244141</ele>
        <time>2013-08-18T09:24:53.000Z</time>
      </trkpt>
      <trkpt lat="45.55223" lon="2.82639">
        <ele>1581.4000244141</ele>
        <time>2013-08-18T09:25:29.000Z</time>
      </trkpt>
      <trkpt lat="45.55223" lon="2.82639">
        <ele>1581.4000244141</ele>
        <time>2013-08-18T09:26:06.000Z</time>
      </trkpt>
      <trkpt lat="45.55223" lon="2.82639">
        <ele>1581.4000244141</ele>
        <time>2013-08-18T09:26:41.000Z</time>
      </trkpt>
      <trkpt lat="45.55223" lon="2.82639">
        <ele>1581.4000244141</ele>
        <time>2013-08-18T09:27:20.000Z</time>
      </trkpt>
      <trkpt lat="45.55223" lon="2.82639">
        <ele>1581.4000244141</ele>
        <time>2013-08-18T09:27:47.000Z</time>
      </trkpt>
      <trkpt lat="45.5522" lon="2.82644">
        <ele>1582.8000488281</ele>
        <time>2013-08-18T09:28:02.000Z</time>
      </trkpt>
      <trkpt lat="45.55219" lon="2.82649">
        <ele>1583.8000488281</ele>
        <time>2013-08-18T09:28:07.000Z</time>
      </trkpt>
      <trkpt lat="45.55213" lon="2.82676">
        <ele>1588.5999755859</ele>
        <time>2013-08-18T09:28:27.000Z</time>
      </trkpt>
      <trkpt lat="45.55209" lon="2.82701">
        <ele>1591</ele>
        <time>2013-08-18T09:28:47.000Z</time>
      </trkpt>
      <trkpt lat="45.55206" lon="2.82727">
        <ele>1593</ele>
        <time>2013-08-18T09:29:08.000Z</time>
      </trkpt>
      <trkpt lat="45.55202" lon="2.82755">
        <ele>1597</ele>
        <time>2013-08-18T09:29:30.000Z</time>
      </trkpt>
      <trkpt lat="45.55199" lon="2.82766">
        <ele>1598.5999755859</ele>
        <time>2013-08-18T09:29:50.000Z</time>
      </trkpt>
      <trkpt lat="45.55195" lon="2.82789">
        <ele>1601</ele>
        <time>2013-08-18T09:30:12.000Z</time>
      </trkpt>
      <trkpt lat="45.55192" lon="2.82808">
        <ele>1602.5999755859</ele>
        <time>2013-08-18T09:30:34.000Z</time>
      </trkpt>
      <trkpt lat="45.55187" lon="2.82825">
        <ele>1604.4000244141</ele>
        <time>2013-08-18T09:30:52.000Z</time>
      </trkpt>
      <trkpt lat="45.55183" lon="2.82849">
        <ele>1605.4000244141</ele>
        <time>2013-08-18T09:31:14.000Z</time>
      </trkpt>
      <trkpt lat="45.55178" lon="2.82873">
        <ele>1607</ele>
        <time>2013-08-18T09:31:35.000Z</time>
      </trkpt>
      <trkpt lat="45.55174" lon="2.82889">
        <ele>1608.1999511719</ele>
        <time>2013-08-18T09:31:55.000Z</time>
      </trkpt>
      <trkpt lat="45.55174" lon="2.82891">
        <ele>1608.1999511719</ele>
        <time>2013-08-18T09:32:27.000Z</time>
      </trkpt>
      <trkpt lat="45.55171" lon="2.82897">
        <ele>1609.1999511719</ele>
        <time>2013-08-18T09:32:47.000Z</time>
      </trkpt>
      <trkpt lat="45.55165" lon="2.82921">
        <ele>1611.1999511719</ele>
        <time>2013-08-18T09:33:11.000Z</time>
      </trkpt>
      <trkpt lat="45.55159" lon="2.82937">
        <ele>1613</ele>
        <time>2013-08-18T09:33:30.000Z</time>
      </trkpt>
      <trkpt lat="45.55149" lon="2.82965">
        <ele>1617.4000244141</ele>
        <time>2013-08-18T09:33:55.000Z</time>
      </trkpt>
      <trkpt lat="45.55144" lon="2.82995">
        <ele>1620.8000488281</ele>
        <time>2013-08-18T09:34:18.000Z</time>
      </trkpt>
      <trkpt lat="45.55145" lon="2.83002">
        <ele>1620.5999755859</ele>
        <time>2013-08-18T09:34:35.000Z</time>
      </trkpt>
      <trkpt lat="45.5514" lon="2.83021">
        <ele>1622.1999511719</ele>
        <time>2013-08-18T09:34:52.000Z</time>
      </trkpt>
      <trkpt lat="45.55137" lon="2.83038">
        <ele>1623.1999511719</ele>
        <time>2013-08-18T09:35:10.000Z</time>
      </trkpt>
      <trkpt lat="45.5513" lon="2.83062">
        <ele>1625.1999511719</ele>
        <time>2013-08-18T09:35:28.000Z</time>
      </trkpt>
      <trkpt lat="45.55127" lon="2.83079">
        <ele>1626.4000244141</ele>
        <time>2013-08-18T09:35:44.000Z</time>
      </trkpt>
      <trkpt lat="45.55121" lon="2.83102">
        <ele>1628.5999755859</ele>
        <time>2013-08-18T09:36:01.000Z</time>
      </trkpt>
      <trkpt lat="45.55111" lon="2.83136">
        <ele>1633.4000244141</ele>
        <time>2013-08-18T09:36:25.000Z</time>
      </trkpt>
      <trkpt lat="45.55111" lon="2.83159">
        <ele>1633.8000488281</ele>
        <time>2013-08-18T09:36:42.000Z</time>
      </trkpt>
      <trkpt lat="45.55109" lon="2.83189">
        <ele>1634.5999755859</ele>
        <time>2013-08-18T09:37:03.000Z</time>
      </trkpt>
      <trkpt lat="45.55106" lon="2.83217">
        <ele>1636</ele>
        <time>2013-08-18T09:37:25.000Z</time>
      </trkpt>
      <trkpt lat="45.55101" lon="2.83247">
        <ele>1635.5999755859</ele>
        <time>2013-08-18T09:37:47.000Z</time>
      </trkpt>
      <trkpt lat="45.55095" lon="2.83278">
        <ele>1637.8000488281</ele>
        <time>2013-08-18T09:38:10.000Z</time>
      </trkpt>
      <trkpt lat="45.55088" lon="2.83307">
        <ele>1638.1999511719</ele>
        <time>2013-08-18T09:38:32.000Z</time>
      </trkpt>
      <trkpt lat="45.55089" lon="2.8331">
        <ele>1637.5999755859</ele>
        <time>2013-08-18T09:38:51.000Z</time>
      </trkpt>
      <trkpt lat="45.55091" lon="2.83312">
        <ele>1637</ele>
        <time>2013-08-18T09:39:12.000Z</time>
      </trkpt>
      <trkpt lat="45.55092" lon="2.83314">
        <ele>1636.4000244141</ele>
        <time>2013-08-18T09:39:14.000Z</time>
      </trkpt>
      <trkpt lat="45.55098" lon="2.83332">
        <ele>1632.8000488281</ele>
        <time>2013-08-18T09:39:29.000Z</time>
      </trkpt>
      <trkpt lat="45.55099" lon="2.83335">
        <ele>1632.4000244141</ele>
        <time>2013-08-18T09:39:49.000Z</time>
      </trkpt>
      <trkpt lat="45.55098" lon="2.83335">
        <ele>1632.1999511719</ele>
        <time>2013-08-18T09:40:17.000Z</time>
      </trkpt>
      <trkpt lat="45.55098" lon="2.83335">
        <ele>1632.4000244141</ele>
        <time>2013-08-18T09:40:48.000Z</time>
      </trkpt>
      <trkpt lat="45.55099" lon="2.83335">
        <ele>1632.1999511719</ele>
        <time>2013-08-18T09:41:11.000Z</time>
      </trkpt>
      <trkpt lat="45.55099" lon="2.83335">
        <ele>1632.1999511719</ele>
        <time>2013-08-18T09:41:36.000Z</time>
      </trkpt>
      <trkpt lat="45.55099" lon="2.83335">
        <ele>1632.1999511719</ele>
        <time>2013-08-18T09:41:54.000Z</time>
      </trkpt>
      <trkpt lat="45.55089" lon="2.83321">
        <ele>1635.5999755859</ele>
        <time>2013-08-18T09:42:12.000Z</time>
      </trkpt>
      <trkpt lat="45.55072" lon="2.83315">
        <ele>1637.8000488281</ele>
        <time>2013-08-18T09:42:30.000Z</time>
      </trkpt>
      <trkpt lat="45.55057" lon="2.8331">
        <ele>1639.8000488281</ele>
        <time>2013-08-18T09:42:52.000Z</time>
      </trkpt>
      <trkpt lat="45.55046" lon="2.83309">
        <ele>1641</ele>
        <time>2013-08-18T09:43:10.000Z</time>
      </trkpt>
      <trkpt lat="45.55046" lon="2.83308">
        <ele>1641.1999511719</ele>
        <time>2013-08-18T09:43:28.000Z</time>
      </trkpt>
      <trkpt lat="45.55037" lon="2.83306">
        <ele>1642.5999755859</ele>
        <time>2013-08-18T09:43:44.000Z</time>
      </trkpt>
      <trkpt lat="45.55028" lon="2.83303">
        <ele>1644.1999511719</ele>
        <time>2013-08-18T09:44:02.000Z</time>
      </trkpt>
      <trkpt lat="45.55015" lon="2.83301">
        <ele>1646.1999511719</ele>
        <time>2013-08-18T09:44:19.000Z</time>
      </trkpt>
      <trkpt lat="45.55014" lon="2.833">
        <ele>1646.4000244141</ele>
        <time>2013-08-18T09:44:40.000Z</time>
      </trkpt>
      <trkpt lat="45.55012" lon="2.83302">
        <ele>1646</ele>
        <time>2013-08-18T09:44:50.000Z</time>
      </trkpt>
      <trkpt lat="45.5501" lon="2.83311">
        <ele>1643.1999511719</ele>
        <time>2013-08-18T09:45:09.000Z</time>
      </trkpt>
      <trkpt lat="45.55007" lon="2.83312">
        <ele>1642.8000488281</ele>
        <time>2013-08-18T09:45:32.000Z</time>
      </trkpt>
      <trkpt lat="45.5499" lon="2.83315">
        <ele>1641.8000488281</ele>
        <time>2013-08-18T09:45:50.000Z</time>
      </trkpt>
      <trkpt lat="45.54985" lon="2.83315">
        <ele>1641.8000488281</ele>
        <time>2013-08-18T09:46:09.000Z</time>
      </trkpt>
      <trkpt lat="45.54985" lon="2.83315">
        <ele>1641.5999755859</ele>
        <time>2013-08-18T09:46:46.000Z</time>
      </trkpt>
      <trkpt lat="45.54984" lon="2.83315">
        <ele>1641.5999755859</ele>
        <time>2013-08-18T09:47:14.000Z</time>
      </trkpt>
      <trkpt lat="45.54983" lon="2.83315">
        <ele>1641.5999755859</ele>
        <time>2013-08-18T09:47:52.000Z</time>
      </trkpt>
      <trkpt lat="45.54983" lon="2.83315">
        <ele>1641.8000488281</ele>
        <time>2013-08-18T09:48:26.000Z</time>
      </trkpt>
      <trkpt lat="45.54983" lon="2.83314">
        <ele>1641.8000488281</ele>
        <time>2013-08-18T09:49:02.000Z</time>
      </trkpt>
      <trkpt lat="45.54984" lon="2.83315">
        <ele>1641.5999755859</ele>
        <time>2013-08-18T09:49:31.000Z</time>
      </trkpt>
      <trkpt lat="45.54985" lon="2.83314">
        <ele>1642</ele>
        <time>2013-08-18T09:49:51.000Z</time>
      </trkpt>
      <trkpt lat="45.54978" lon="2.83314">
        <ele>1642</ele>
        <time>2013-08-18T09:50:14.000Z</time>
      </trkpt>
      <trkpt lat="45.54975" lon="2.83314">
        <ele>1642</ele>
        <time>2013-08-18T09:50:17.000Z</time>
      </trkpt>
      <trkpt lat="45.54954" lon="2.83313">
        <ele>1643.8000488281</ele>
        <time>2013-08-18T09:50:40.000Z</time>
      </trkpt>
      <trkpt lat="45.54938" lon="2.83316">
        <ele>1644.5999755859</ele>
        <time>2013-08-18T09:51:03.000Z</time>
      </trkpt>
      <trkpt lat="45.54922" lon="2.83317">
        <ele>1645</ele>
        <time>2013-08-18T09:51:19.000Z</time>
      </trkpt>
      <trkpt lat="45.54906" lon="2.83325">
        <ele>1642.4000244141</ele>
        <time>2013-08-18T09:51:37.000Z</time>
      </trkpt>
      <trkpt lat="45.54891" lon="2.8334">
        <ele>1637.4000244141</ele>
        <time>2013-08-18T09:51:56.000Z</time>
      </trkpt>
      <trkpt lat="45.54884" lon="2.83346">
        <ele>1636.5999755859</ele>
        <time>2013-08-18T09:52:04.000Z</time>
      </trkpt>
      <trkpt lat="45.54863" lon="2.83356">
        <ele>1638.4000244141</ele>
        <time>2013-08-18T09:52:27.000Z</time>
      </trkpt>
      <trkpt lat="45.54846" lon="2.83359">
        <ele>1641</ele>
        <time>2013-08-18T09:52:49.000Z</time>
      </trkpt>
      <trkpt lat="45.54842" lon="2.83353">
        <ele>1643</ele>
        <time>2013-08-18T09:53:07.000Z</time>
      </trkpt>
      <trkpt lat="45.54829" lon="2.8335">
        <ele>1646.1999511719</ele>
        <time>2013-08-18T09:53:25.000Z</time>
      </trkpt>
      <trkpt lat="45.54812" lon="2.83349">
        <ele>1649.8000488281</ele>
        <time>2013-08-18T09:53:48.000Z</time>
      </trkpt>
      <trkpt lat="45.54794" lon="2.83349">
        <ele>1650.8000488281</ele>
        <time>2013-08-18T09:54:10.000Z</time>
      </trkpt>
      <trkpt lat="45.54779" lon="2.83345">
        <ele>1652</ele>
        <time>2013-08-18T09:54:31.000Z</time>
      </trkpt>
      <trkpt lat="45.5476" lon="2.83343">
        <ele>1652.8000488281</ele>
        <time>2013-08-18T09:54:54.000Z</time>
      </trkpt>
      <trkpt lat="45.54746" lon="2.83337">
        <ele>1654.4000244141</ele>
        <time>2013-08-18T09:55:16.000Z</time>
      </trkpt>
      <trkpt lat="45.54743" lon="2.83336">
        <ele>1654.8000488281</ele>
        <time>2013-08-18T09:55:45.000Z</time>
      </trkpt>
      <trkpt lat="45.5473" lon="2.83331">
        <ele>1656</ele>
        <time>2013-08-18T09:56:02.000Z</time>
      </trkpt>
      <trkpt lat="45.54711" lon="2.83329">
        <ele>1655.4000244141</ele>
        <time>2013-08-18T09:56:23.000Z</time>
      </trkpt>
      <trkpt lat="45.54699" lon="2.83324">
        <ele>1654.8000488281</ele>
        <time>2013-08-18T09:56:42.000Z</time>
      </trkpt>
      <trkpt lat="45.54673" lon="2.83321">
        <ele>1652.8000488281</ele>
        <time>2013-08-18T09:57:09.000Z</time>
      </trkpt>
      <trkpt lat="45.5465" lon="2.83316">
        <ele>1651.4000244141</ele>
        <time>2013-08-18T09:57:34.000Z</time>
      </trkpt>
      <trkpt lat="45.5463" lon="2.83303">
        <ele>1651.1999511719</ele>
        <time>2013-08-18T09:57:58.000Z</time>
      </trkpt>
      <trkpt lat="45.54609" lon="2.83293">
        <ele>1649</ele>
        <time>2013-08-18T09:58:21.000Z</time>
      </trkpt>
      <trkpt lat="45.546" lon="2.83285">
        <ele>1648.5999755859</ele>
        <time>2013-08-18T09:58:38.000Z</time>
      </trkpt>
      <trkpt lat="45.54594" lon="2.83279">
        <ele>1648.4000244141</ele>
        <time>2013-08-18T09:58:56.000Z</time>
      </trkpt>
      <trkpt lat="45.54594" lon="2.83278">
        <ele>1648.5999755859</ele>
        <time>2013-08-18T09:59:19.000Z</time>
      </trkpt>
      <trkpt lat="45.54594" lon="2.83281">
        <ele>1648</ele>
        <time>2013-08-18T09:59:45.000Z</time>
      </trkpt>
      <trkpt lat="45.5459" lon="2.83284">
        <ele>1646.8000488281</ele>
        <time>2013-08-18T09:59:49.000Z</time>
      </trkpt>
      <trkpt lat="45.54565" lon="2.83295">
        <ele>1643.8000488281</ele>
        <time>2013-08-18T10:00:15.000Z</time>
      </trkpt>
      <trkpt lat="45.54551" lon="2.83302">
        <ele>1643</ele>
        <time>2013-08-18T10:00:37.000Z</time>
      </trkpt>
      <trkpt lat="45.54545" lon="2.83309">
        <ele>1644</ele>
        <time>2013-08-18T10:00:56.000Z</time>
      </trkpt>
      <trkpt lat="45.54533" lon="2.83322">
        <ele>1646.1999511719</ele>
        <time>2013-08-18T10:01:14.000Z</time>
      </trkpt>
      <trkpt lat="45.54521" lon="2.83339">
        <ele>1650.1999511719</ele>
        <time>2013-08-18T10:01:33.000Z</time>
      </trkpt>
      <trkpt lat="45.54517" lon="2.8334">
        <ele>1651.1999511719</ele>
        <time>2013-08-18T10:01:51.000Z</time>
      </trkpt>
      <trkpt lat="45.54508" lon="2.83346">
        <ele>1653</ele>
        <time>2013-08-18T10:02:16.000Z</time>
      </trkpt>
      <trkpt lat="45.54493" lon="2.83353">
        <ele>1656.1999511719</ele>
        <time>2013-08-18T10:02:35.000Z</time>
      </trkpt>
      <trkpt lat="45.54484" lon="2.83355">
        <ele>1658.4000244141</ele>
        <time>2013-08-18T10:02:55.000Z</time>
      </trkpt>
      <trkpt lat="45.5448" lon="2.83352">
        <ele>1659.8000488281</ele>
        <time>2013-08-18T10:03:13.000Z</time>
      </trkpt>
      <trkpt lat="45.54472" lon="2.83349">
        <ele>1662</ele>
        <time>2013-08-18T10:03:32.000Z</time>
      </trkpt>
      <trkpt lat="45.54466" lon="2.83348">
        <ele>1663.5999755859</ele>
        <time>2013-08-18T10:03:52.000Z</time>
      </trkpt>
      <trkpt lat="45.54463" lon="2.83348">
        <ele>1664.4000244141</ele>
        <time>2013-08-18T10:04:15.000Z</time>
      </trkpt>
      <trkpt lat="45.54457" lon="2.83348">
        <ele>1665.8000488281</ele>
        <time>2013-08-18T10:04:37.000Z</time>
      </trkpt>
      <trkpt lat="45.54453" lon="2.83348">
        <ele>1667.1999511719</ele>
        <time>2013-08-18T10:04:55.000Z</time>
      </trkpt>
      <trkpt lat="45.54442" lon="2.83345">
        <ele>1670.4000244141</ele>
        <time>2013-08-18T10:05:15.000Z</time>
      </trkpt>
      <trkpt lat="45.54437" lon="2.83346">
        <ele>1671.5999755859</ele>
        <time>2013-08-18T10:05:31.000Z</time>
      </trkpt>
      <trkpt lat="45.54439" lon="2.83337">
        <ele>1672.8000488281</ele>
        <time>2013-08-18T10:05:46.000Z</time>
      </trkpt>
      <trkpt lat="45.54447" lon="2.83325">
        <ele>1671.5999755859</ele>
        <time>2013-08-18T10:06:04.000Z</time>
      </trkpt>
      <trkpt lat="45.54458" lon="2.83309">
        <ele>1667.4000244141</ele>
        <time>2013-08-18T10:06:29.000Z</time>
      </trkpt>
      <trkpt lat="45.54462" lon="2.83296">
        <ele>1665</ele>
        <time>2013-08-18T10:06:49.000Z</time>
      </trkpt>
      <trkpt lat="45.54456" lon="2.83297">
        <ele>1667.5999755859</ele>
        <time>2013-08-18T10:07:07.000Z</time>
      </trkpt>
      <trkpt lat="45.54443" lon="2.83301">
        <ele>1673</ele>
        <time>2013-08-18T10:07:28.000Z</time>
      </trkpt>
      <trkpt lat="45.54433" lon="2.83297">
        <ele>1676.5999755859</ele>
        <time>2013-08-18T10:07:45.000Z</time>
      </trkpt>
      <trkpt lat="45.54429" lon="2.83292">
        <ele>1678</ele>
        <time>2013-08-18T10:08:06.000Z</time>
      </trkpt>
      <trkpt lat="45.54423" lon="2.83276">
        <ele>1679.5999755859</ele>
        <time>2013-08-18T10:08:26.000Z</time>
      </trkpt>
      <trkpt lat="45.54419" lon="2.83263">
        <ele>1680.4000244141</ele>
        <time>2013-08-18T10:08:47.000Z</time>
      </trkpt>
      <trkpt lat="45.544" lon="2.83265">
        <ele>1688</ele>
        <time>2013-08-18T10:09:07.000Z</time>
      </trkpt>
      <trkpt lat="45.5439" lon="2.83264">
        <ele>1691.8000488281</ele>
        <time>2013-08-18T10:09:20.000Z</time>
      </trkpt>
      <trkpt lat="45.54374" lon="2.83263">
        <ele>1693.1999511719</ele>
        <time>2013-08-18T10:09:45.000Z</time>
      </trkpt>
      <trkpt lat="45.54366" lon="2.83259">
        <ele>1693.4000244141</ele>
        <time>2013-08-18T10:10:15.000Z</time>
      </trkpt>
      <trkpt lat="45.54341" lon="2.83254">
        <ele>1693.1999511719</ele>
        <time>2013-08-18T10:10:41.000Z</time>
      </trkpt>
      <trkpt lat="45.54322" lon="2.83244">
        <ele>1691</ele>
        <time>2013-08-18T10:11:03.000Z</time>
      </trkpt>
      <trkpt lat="45.54306" lon="2.83237">
        <ele>1689.4000244141</ele>
        <time>2013-08-18T10:11:26.000Z</time>
      </trkpt>
      <trkpt lat="45.54288" lon="2.8323">
        <ele>1690</ele>
        <time>2013-08-18T10:11:49.000Z</time>
      </trkpt>
      <trkpt lat="45.54272" lon="2.83225">
        <ele>1691.4000244141</ele>
        <time>2013-08-18T10:12:11.000Z</time>
      </trkpt>
      <trkpt lat="45.54255" lon="2.83221">
        <ele>1692.8000488281</ele>
        <time>2013-08-18T10:12:32.000Z</time>
      </trkpt>
      <trkpt lat="45.54241" lon="2.83227">
        <ele>1695.4000244141</ele>
        <time>2013-08-18T10:12:53.000Z</time>
      </trkpt>
      <trkpt lat="45.5424" lon="2.83229">
        <ele>1695.8000488281</ele>
        <time>2013-08-18T10:13:16.000Z</time>
      </trkpt>
      <trkpt lat="45.54239" lon="2.83229">
        <ele>1695.8000488281</ele>
        <time>2013-08-18T10:13:52.000Z</time>
      </trkpt>
      <trkpt lat="45.54239" lon="2.83228">
        <ele>1695.8000488281</ele>
        <time>2013-08-18T10:14:14.000Z</time>
      </trkpt>
      <trkpt lat="45.54238" lon="2.83228">
        <ele>1696</ele>
        <time>2013-08-18T10:14:34.000Z</time>
      </trkpt>
      <trkpt lat="45.54237" lon="2.83227">
        <ele>1695.8000488281</ele>
        <time>2013-08-18T10:14:58.000Z</time>
      </trkpt>
      <trkpt lat="45.54237" lon="2.83227">
        <ele>1695.8000488281</ele>
        <time>2013-08-18T10:15:31.000Z</time>
      </trkpt>
      <trkpt lat="45.54237" lon="2.83227">
        <ele>1695.8000488281</ele>
        <time>2013-08-18T10:16:05.000Z</time>
      </trkpt>
      <trkpt lat="45.54236" lon="2.83227">
        <ele>1696</ele>
        <time>2013-08-18T10:16:31.000Z</time>
      </trkpt>
      <trkpt lat="45.54237" lon="2.83227">
        <ele>1696</ele>
        <time>2013-08-18T10:17:02.000Z</time>
      </trkpt>
      <trkpt lat="45.54237" lon="2.83227">
        <ele>1696</ele>
        <time>2013-08-18T10:17:40.000Z</time>
      </trkpt>
      <trkpt lat="45.54237" lon="2.83227">
        <ele>1696</ele>
        <time>2013-08-18T10:18:19.000Z</time>
      </trkpt>
      <trkpt lat="45.54237" lon="2.83228">
        <ele>1696</ele>
        <time>2013-08-18T10:18:53.000Z</time>
      </trkpt>
      <trkpt lat="45.54237" lon="2.83228">
        <ele>1696</ele>
        <time>2013-08-18T10:19:24.000Z</time>
      </trkpt>
      <trkpt lat="45.54237" lon="2.83227">
        <ele>1695.8000488281</ele>
        <time>2013-08-18T10:19:57.000Z</time>
      </trkpt>
      <trkpt lat="45.54238" lon="2.83226">
        <ele>1695.5999755859</ele>
        <time>2013-08-18T10:20:39.000Z</time>
      </trkpt>
      <trkpt lat="45.54238" lon="2.83226">
        <ele>1695.5999755859</ele>
        <time>2013-08-18T10:21:20.000Z</time>
      </trkpt>
      <trkpt lat="45.54238" lon="2.83227">
        <ele>1695.8000488281</ele>
        <time>2013-08-18T10:22:00.000Z</time>
      </trkpt>
      <trkpt lat="45.54238" lon="2.83226">
        <ele>1695.5999755859</ele>
        <time>2013-08-18T10:22:39.000Z</time>
      </trkpt>
      <trkpt lat="45.54238" lon="2.83226">
        <ele>1695.5999755859</ele>
        <time>2013-08-18T10:23:14.000Z</time>
      </trkpt>
      <trkpt lat="45.54238" lon="2.83226">
        <ele>1695.5999755859</ele>
        <time>2013-08-18T10:23:57.000Z</time>
      </trkpt>
      <trkpt lat="45.54238" lon="2.83226">
        <ele>1695.5999755859</ele>
        <time>2013-08-18T10:24:25.000Z</time>
      </trkpt>
      <trkpt lat="45.54238" lon="2.83226">
        <ele>1695.5999755859</ele>
        <time>2013-08-18T10:24:48.000Z</time>
      </trkpt>
      <trkpt lat="45.54238" lon="2.83226">
        <ele>1695.5999755859</ele>
        <time>2013-08-18T10:25:24.000Z</time>
      </trkpt>
      <trkpt lat="45.54238" lon="2.83226">
        <ele>1695.5999755859</ele>
        <time>2013-08-18T10:26:00.000Z</time>
      </trkpt>
      <trkpt lat="45.54237" lon="2.83226">
        <ele>1695.5999755859</ele>
        <time>2013-08-18T10:26:38.000Z</time>
      </trkpt>
      <trkpt lat="45.54238" lon="2.83226">
        <ele>1695.5999755859</ele>
        <time>2013-08-18T10:27:14.000Z</time>
      </trkpt>
      <trkpt lat="45.54237" lon="2.83226">
        <ele>1695.5999755859</ele>
        <time>2013-08-18T10:28:00.000Z</time>
      </trkpt>
      <trkpt lat="45.54237" lon="2.83226">
        <ele>1695.5999755859</ele>
        <time>2013-08-18T10:28:32.000Z</time>
      </trkpt>
      <trkpt lat="45.54238" lon="2.83226">
        <ele>1695.5999755859</ele>
        <time>2013-08-18T10:29:00.000Z</time>
      </trkpt>
      <trkpt lat="45.54237" lon="2.83226">
        <ele>1695.5999755859</ele>
        <time>2013-08-18T10:29:32.000Z</time>
      </trkpt>
      <trkpt lat="45.54237" lon="2.83226">
        <ele>1695.5999755859</ele>
        <time>2013-08-18T10:30:07.000Z</time>
      </trkpt>
      <trkpt lat="45.54238" lon="2.83226">
        <ele>1695.5999755859</ele>
        <time>2013-08-18T10:30:31.000Z</time>
      </trkpt>
      <trkpt lat="45.54238" lon="2.83226">
        <ele>1695.5999755859</ele>
        <time>2013-08-18T10:30:58.000Z</time>
      </trkpt>
      <trkpt lat="45.54238" lon="2.83225">
        <ele>1695.5999755859</ele>
        <time>2013-08-18T10:31:29.000Z</time>
      </trkpt>
      <trkpt lat="45.54238" lon="2.83226">
        <ele>1695.5999755859</ele>
        <time>2013-08-18T10:31:48.000Z</time>
      </trkpt>
      <trkpt lat="45.54238" lon="2.83225">
        <ele>1695.4000244141</ele>
        <time>2013-08-18T10:32:17.000Z</time>
      </trkpt>
      <trkpt lat="45.54238" lon="2.83225">
        <ele>1695.4000244141</ele>
        <time>2013-08-18T10:32:45.000Z</time>
      </trkpt>
      <trkpt lat="45.54238" lon="2.83226">
        <ele>1695.5999755859</ele>
        <time>2013-08-18T10:32:57.000Z</time>
      </trkpt>
      <trkpt lat="45.54238" lon="2.83226">
        <ele>1695.5999755859</ele>
        <time>2013-08-18T10:33:24.000Z</time>
      </trkpt>
      <trkpt lat="45.54238" lon="2.83226">
        <ele>1695.5999755859</ele>
        <time>2013-08-18T10:33:48.000Z</time>
      </trkpt>
      <trkpt lat="45.54238" lon="2.83225">
        <ele>1695.1999511719</ele>
        <time>2013-08-18T10:34:11.000Z</time>
      </trkpt>
      <trkpt lat="45.54238" lon="2.83225">
        <ele>1695.4000244141</ele>
        <time>2013-08-18T10:34:28.000Z</time>
      </trkpt>
      <trkpt lat="45.54237" lon="2.83225">
        <ele>1695.4000244141</ele>
        <time>2013-08-18T10:35:00.000Z</time>
      </trkpt>
      <trkpt lat="45.54236" lon="2.83227">
        <ele>1696</ele>
        <time>2013-08-18T10:35:16.000Z</time>
      </trkpt>
      <trkpt lat="45.54227" lon="2.83233">
        <ele>1698</ele>
        <time>2013-08-18T10:35:29.000Z</time>
      </trkpt>
      <trkpt lat="45.54219" lon="2.83233">
        <ele>1699</ele>
        <time>2013-08-18T10:35:40.000Z</time>
      </trkpt>
      <trkpt lat="45.54206" lon="2.83231">
        <ele>1700.5999755859</ele>
        <time>2013-08-18T10:35:56.000Z</time>
      </trkpt>
      <trkpt lat="45.54196" lon="2.83229">
        <ele>1702</ele>
        <time>2013-08-18T10:36:09.000Z</time>
      </trkpt>
      <trkpt lat="45.54183" lon="2.83227">
        <ele>1703.8000488281</ele>
        <time>2013-08-18T10:36:24.000Z</time>
      </trkpt>
      <trkpt lat="45.54174" lon="2.83224">
        <ele>1704.5999755859</ele>
        <time>2013-08-18T10:36:38.000Z</time>
      </trkpt>
      <trkpt lat="45.54163" lon="2.8322">
        <ele>1705.5999755859</ele>
        <time>2013-08-18T10:36:52.000Z</time>
      </trkpt>
      <trkpt lat="45.54158" lon="2.83221">
        <ele>1706.1999511719</ele>
        <time>2013-08-18T10:37:06.000Z</time>
      </trkpt>
      <trkpt lat="45.54147" lon="2.83221">
        <ele>1707.8000488281</ele>
        <time>2013-08-18T10:37:21.000Z</time>
      </trkpt>
      <trkpt lat="45.54138" lon="2.83223">
        <ele>1709.1999511719</ele>
        <time>2013-08-18T10:37:35.000Z</time>
      </trkpt>
      <trkpt lat="45.54128" lon="2.83222">
        <ele>1712</ele>
        <time>2013-08-18T10:37:49.000Z</time>
      </trkpt>
      <trkpt lat="45.54124" lon="2.83224">
        <ele>1714</ele>
        <time>2013-08-18T10:38:01.000Z</time>
      </trkpt>
      <trkpt lat="45.54119" lon="2.83223">
        <ele>1716</ele>
        <time>2013-08-18T10:38:13.000Z</time>
      </trkpt>
      <trkpt lat="45.54108" lon="2.83222">
        <ele>1720.5999755859</ele>
        <time>2013-08-18T10:38:27.000Z</time>
      </trkpt>
      <trkpt lat="45.54098" lon="2.83223">
        <ele>1724.1999511719</ele>
        <time>2013-08-18T10:38:41.000Z</time>
      </trkpt>
      <trkpt lat="45.54088" lon="2.83225">
        <ele>1726.8000488281</ele>
        <time>2013-08-18T10:38:55.000Z</time>
      </trkpt>
      <trkpt lat="45.54079" lon="2.83229">
        <ele>1729</ele>
        <time>2013-08-18T10:39:10.000Z</time>
      </trkpt>
      <trkpt lat="45.54068" lon="2.83233">
        <ele>1731.4000244141</ele>
        <time>2013-08-18T10:39:26.000Z</time>
      </trkpt>
      <trkpt lat="45.54062" lon="2.83232">
        <ele>1733</ele>
        <time>2013-08-18T10:39:39.000Z</time>
      </trkpt>
      <trkpt lat="45.54049" lon="2.83236">
        <ele>1735.8000488281</ele>
        <time>2013-08-18T10:39:54.000Z</time>
      </trkpt>
      <trkpt lat="45.5404" lon="2.83233">
        <ele>1736.8000488281</ele>
        <time>2013-08-18T10:40:07.000Z</time>
      </trkpt>
      <trkpt lat="45.54039" lon="2.83232">
        <ele>1737</ele>
        <time>2013-08-18T10:40:18.000Z</time>
      </trkpt>
      <trkpt lat="45.54037" lon="2.83231">
        <ele>1737.1999511719</ele>
        <time>2013-08-18T10:40:40.000Z</time>
      </trkpt>
      <trkpt lat="45.54036" lon="2.8323">
        <ele>1737.4000244141</ele>
        <time>2013-08-18T10:41:00.000Z</time>
      </trkpt>
      <trkpt lat="45.54036" lon="2.83229">
        <ele>1737.4000244141</ele>
        <time>2013-08-18T10:41:15.000Z</time>
      </trkpt>
      <trkpt lat="45.54033" lon="2.83219">
        <ele>1738</ele>
        <time>2013-08-18T10:41:32.000Z</time>
      </trkpt>
      <trkpt lat="45.54032" lon="2.83216">
        <ele>1738.1999511719</ele>
        <time>2013-08-18T10:41:35.000Z</time>
      </trkpt>
      <trkpt lat="45.5403" lon="2.83206">
        <ele>1738.8000488281</ele>
        <time>2013-08-18T10:41:42.000Z</time>
      </trkpt>
      <trkpt lat="45.54025" lon="2.83198">
        <ele>1739.5999755859</ele>
        <time>2013-08-18T10:41:58.000Z</time>
      </trkpt>
      <trkpt lat="45.54024" lon="2.83197">
        <ele>1739.5999755859</ele>
        <time>2013-08-18T10:42:18.000Z</time>
      </trkpt>
      <trkpt lat="45.5402" lon="2.83195">
        <ele>1740.1999511719</ele>
        <time>2013-08-18T10:42:22.000Z</time>
      </trkpt>
      <trkpt lat="45.54008" lon="2.83184">
        <ele>1741.5999755859</ele>
        <time>2013-08-18T10:42:38.000Z</time>
      </trkpt>
      <trkpt lat="45.54003" lon="2.83178">
        <ele>1742.4000244141</ele>
        <time>2013-08-18T10:42:52.000Z</time>
      </trkpt>
      <trkpt lat="45.53999" lon="2.83175">
        <ele>1742.8000488281</ele>
        <time>2013-08-18T10:43:09.000Z</time>
      </trkpt>
      <trkpt lat="45.54003" lon="2.83175">
        <ele>1742.4000244141</ele>
        <time>2013-08-18T10:43:15.000Z</time>
      </trkpt>
      <trkpt lat="45.54008" lon="2.8318">
        <ele>1741.8000488281</ele>
        <time>2013-08-18T10:43:29.000Z</time>
      </trkpt>
      <trkpt lat="45.54008" lon="2.83181">
        <ele>1741.8000488281</ele>
        <time>2013-08-18T10:43:54.000Z</time>
      </trkpt>
      <trkpt lat="45.54009" lon="2.83182">
        <ele>1741.5999755859</ele>
        <time>2013-08-18T10:44:15.000Z</time>
      </trkpt>
      <trkpt lat="45.54009" lon="2.83182">
        <ele>1741.5999755859</ele>
        <time>2013-08-18T10:44:35.000Z</time>
      </trkpt>
      <trkpt lat="45.54008" lon="2.83182">
        <ele>1741.8000488281</ele>
        <time>2013-08-18T10:44:56.000Z</time>
      </trkpt>
      <trkpt lat="45.54008" lon="2.83181">
        <ele>1741.8000488281</ele>
        <time>2013-08-18T10:45:15.000Z</time>
      </trkpt>
      <trkpt lat="45.54008" lon="2.83182">
        <ele>1741.8000488281</ele>
        <time>2013-08-18T10:45:42.000Z</time>
      </trkpt>
      <trkpt lat="45.54009" lon="2.83182">
        <ele>1741.5999755859</ele>
        <time>2013-08-18T10:46:08.000Z</time>
      </trkpt>
      <trkpt lat="45.54009" lon="2.83183">
        <ele>1741.5999755859</ele>
        <time>2013-08-18T10:46:32.000Z</time>
      </trkpt>
      <trkpt lat="45.54006" lon="2.8318">
        <ele>1742</ele>
        <time>2013-08-18T10:47:00.000Z</time>
      </trkpt>
      <trkpt lat="45.54001" lon="2.83175">
        <ele>1742.5999755859</ele>
        <time>2013-08-18T10:47:13.000Z</time>
      </trkpt>
      <trkpt lat="45.54" lon="2.83175">
        <ele>1742.8000488281</ele>
        <time>2013-08-18T10:47:32.000Z</time>
      </trkpt>
      <trkpt lat="45.53999" lon="2.83176">
        <ele>1742.8000488281</ele>
        <time>2013-08-18T10:47:51.000Z</time>
      </trkpt>
      <trkpt lat="45.54002" lon="2.83176">
        <ele>1742.5999755859</ele>
        <time>2013-08-18T10:48:13.000Z</time>
      </trkpt>
      <trkpt lat="45.54001" lon="2.83175">
        <ele>1742.5999755859</ele>
        <time>2013-08-18T10:48:32.000Z</time>
      </trkpt>
      <trkpt lat="45.54001" lon="2.83175">
        <ele>1742.5999755859</ele>
        <time>2013-08-18T10:49:01.000Z</time>
      </trkpt>
      <trkpt lat="45.54002" lon="2.83176">
        <ele>1742.5999755859</ele>
        <time>2013-08-18T10:49:03.000Z</time>
      </trkpt>
      <trkpt lat="45.54017" lon="2.83192">
        <ele>1740.5999755859</ele>
        <time>2013-08-18T10:49:21.000Z</time>
      </trkpt>
      <trkpt lat="45.54028" lon="2.83204">
        <ele>1739</ele>
        <time>2013-08-18T10:49:32.000Z</time>
      </trkpt>
      <trkpt lat="45.54031" lon="2.83217">
        <ele>1738.1999511719</ele>
        <time>2013-08-18T10:49:40.000Z</time>
      </trkpt>
      <trkpt lat="45.54033" lon="2.83222">
        <ele>1737.8000488281</ele>
        <time>2013-08-18T10:49:44.000Z</time>
      </trkpt>
      <trkpt lat="45.54038" lon="2.83242">
        <ele>1736.8000488281</ele>
        <time>2013-08-18T10:49:58.000Z</time>
      </trkpt>
      <trkpt lat="45.54041" lon="2.83255">
        <ele>1733.8000488281</ele>
        <time>2013-08-18T10:50:11.000Z</time>
      </trkpt>
      <trkpt lat="45.54042" lon="2.83257">
        <ele>1733.5999755859</ele>
        <time>2013-08-18T10:50:30.000Z</time>
      </trkpt>
      <trkpt lat="45.54042" lon="2.83258">
        <ele>1733.4000244141</ele>
        <time>2013-08-18T10:50:48.000Z</time>
      </trkpt>
      <trkpt lat="45.54043" lon="2.83263">
        <ele>1732.8000488281</ele>
        <time>2013-08-18T10:51:02.000Z</time>
      </trkpt>
      <trkpt lat="45.54047" lon="2.83276">
        <ele>1731.4000244141</ele>
        <time>2013-08-18T10:51:13.000Z</time>
      </trkpt>
      <trkpt lat="45.54047" lon="2.83279">
        <ele>1730.8000488281</ele>
        <time>2013-08-18T10:51:15.000Z</time>
      </trkpt>
      <trkpt lat="45.54052" lon="2.83298">
        <ele>1728.1999511719</ele>
        <time>2013-08-18T10:51:33.000Z</time>
      </trkpt>
      <trkpt lat="45.54052" lon="2.83306">
        <ele>1727</ele>
        <time>2013-08-18T10:51:46.000Z</time>
      </trkpt>
      <trkpt lat="45.54052" lon="2.83315">
        <ele>1725.4000244141</ele>
        <time>2013-08-18T10:52:09.000Z</time>
      </trkpt>
      <trkpt lat="45.54056" lon="2.83327">
        <ele>1723</ele>
        <time>2013-08-18T10:52:18.000Z</time>
      </trkpt>
      <trkpt lat="45.54065" lon="2.83343">
        <ele>1719.1999511719</ele>
        <time>2013-08-18T10:52:35.000Z</time>
      </trkpt>
      <trkpt lat="45.54072" lon="2.83359">
        <ele>1715.8000488281</ele>
        <time>2013-08-18T10:52:48.000Z</time>
      </trkpt>
      <trkpt lat="45.5407" lon="2.83387">
        <ele>1713.8000488281</ele>
        <time>2013-08-18T10:53:07.000Z</time>
      </trkpt>
      <trkpt lat="45.54071" lon="2.83389">
        <ele>1713.5999755859</ele>
        <time>2013-08-18T10:53:09.000Z</time>
      </trkpt>
      <trkpt lat="45.54073" lon="2.83407">
        <ele>1711.4000244141</ele>
        <time>2013-08-18T10:53:25.000Z</time>
      </trkpt>
      <trkpt lat="45.54073" lon="2.83422">
        <ele>1710.1999511719</ele>
        <time>2013-08-18T10:53:37.000Z</time>
      </trkpt>
      <trkpt lat="45.5407" lon="2.83435">
        <ele>1709.1999511719</ele>
        <time>2013-08-18T10:53:46.000Z</time>
      </trkpt>
      <trkpt lat="45.54066" lon="2.83447">
        <ele>1708.8000488281</ele>
        <time>2013-08-18T10:54:04.000Z</time>
      </trkpt>
      <trkpt lat="45.54063" lon="2.83462">
        <ele>1708.4000244141</ele>
        <time>2013-08-18T10:54:19.000Z</time>
      </trkpt>
      <trkpt lat="45.5406" lon="2.83462">
        <ele>1709.1999511719</ele>
        <time>2013-08-18T10:54:33.000Z</time>
      </trkpt>
      <trkpt lat="45.54061" lon="2.83464">
        <ele>1708.8000488281</ele>
        <time>2013-08-18T10:54:54.000Z</time>
      </trkpt>
      <trkpt lat="45.54064" lon="2.83468">
        <ele>1707.5999755859</ele>
        <time>2013-08-18T10:55:10.000Z</time>
      </trkpt>
      <trkpt lat="45.54066" lon="2.83469">
        <ele>1707.1999511719</ele>
        <time>2013-08-18T10:55:31.000Z</time>
      </trkpt>
      <trkpt lat="45.54072" lon="2.83481">
        <ele>1704.4000244141</ele>
        <time>2013-08-18T10:55:47.000Z</time>
      </trkpt>
      <trkpt lat="45.54081" lon="2.83491">
        <ele>1701.1999511719</ele>
        <time>2013-08-18T10:56:03.000Z</time>
      </trkpt>
      <trkpt lat="45.54093" lon="2.83496">
        <ele>1697.5999755859</ele>
        <time>2013-08-18T10:56:19.000Z</time>
      </trkpt>
      <trkpt lat="45.54102" lon="2.83501">
        <ele>1694.8000488281</ele>
        <time>2013-08-18T10:56:34.000Z</time>
      </trkpt>
      <trkpt lat="45.54112" lon="2.83505">
        <ele>1692</ele>
        <time>2013-08-18T10:56:52.000Z</time>
      </trkpt>
      <trkpt lat="45.54117" lon="2.83512">
        <ele>1689.1999511719</ele>
        <time>2013-08-18T10:57:05.000Z</time>
      </trkpt>
      <trkpt lat="45.54121" lon="2.83514">
        <ele>1687.5999755859</ele>
        <time>2013-08-18T10:57:20.000Z</time>
      </trkpt>
      <trkpt lat="45.54123" lon="2.83516">
        <ele>1686.8000488281</ele>
        <time>2013-08-18T10:57:39.000Z</time>
      </trkpt>
      <trkpt lat="45.54129" lon="2.83523">
        <ele>1683.5999755859</ele>
        <time>2013-08-18T10:57:54.000Z</time>
      </trkpt>
      <trkpt lat="45.54134" lon="2.83531">
        <ele>1680.5999755859</ele>
        <time>2013-08-18T10:58:08.000Z</time>
      </trkpt>
      <trkpt lat="45.54138" lon="2.83537">
        <ele>1678.4000244141</ele>
        <time>2013-08-18T10:58:22.000Z</time>
      </trkpt>
      <trkpt lat="45.54142" lon="2.83542">
        <ele>1676.4000244141</ele>
        <time>2013-08-18T10:58:39.000Z</time>
      </trkpt>
      <trkpt lat="45.54148" lon="2.83549">
        <ele>1673.5999755859</ele>
        <time>2013-08-18T10:58:56.000Z</time>
      </trkpt>
      <trkpt lat="45.54153" lon="2.83552">
        <ele>1672</ele>
        <time>2013-08-18T10:59:11.000Z</time>
      </trkpt>
      <trkpt lat="45.54155" lon="2.83558">
        <ele>1670.1999511719</ele>
        <time>2013-08-18T10:59:25.000Z</time>
      </trkpt>
      <trkpt lat="45.5416" lon="2.83563">
        <ele>1668.1999511719</ele>
        <time>2013-08-18T10:59:39.000Z</time>
      </trkpt>
      <trkpt lat="45.54166" lon="2.83565">
        <ele>1666.4000244141</ele>
        <time>2013-08-18T10:59:54.000Z</time>
      </trkpt>
      <trkpt lat="45.54173" lon="2.83573">
        <ele>1663.1999511719</ele>
        <time>2013-08-18T11:00:10.000Z</time>
      </trkpt>
      <trkpt lat="45.54179" lon="2.83582">
        <ele>1659.8000488281</ele>
        <time>2013-08-18T11:00:25.000Z</time>
      </trkpt>
      <trkpt lat="45.54185" lon="2.83588">
        <ele>1657.1999511719</ele>
        <time>2013-08-18T11:00:41.000Z</time>
      </trkpt>
      <trkpt lat="45.5419" lon="2.83592">
        <ele>1655.4000244141</ele>
        <time>2013-08-18T11:00:53.000Z</time>
      </trkpt>
      <trkpt lat="45.54199" lon="2.83599">
        <ele>1652.1999511719</ele>
        <time>2013-08-18T11:01:11.000Z</time>
      </trkpt>
      <trkpt lat="45.54202" lon="2.83603">
        <ele>1651.1999511719</ele>
        <time>2013-08-18T11:01:26.000Z</time>
      </trkpt>
      <trkpt lat="45.54207" lon="2.83606">
        <ele>1649.4000244141</ele>
        <time>2013-08-18T11:01:45.000Z</time>
      </trkpt>
      <trkpt lat="45.5421" lon="2.83608">
        <ele>1648.4000244141</ele>
        <time>2013-08-18T11:01:58.000Z</time>
      </trkpt>
      <trkpt lat="45.54214" lon="2.8361">
        <ele>1647.1999511719</ele>
        <time>2013-08-18T11:02:10.000Z</time>
      </trkpt>
      <trkpt lat="45.54221" lon="2.83611">
        <ele>1645.4000244141</ele>
        <time>2013-08-18T11:02:23.000Z</time>
      </trkpt>
      <trkpt lat="45.54224" lon="2.83613">
        <ele>1644.4000244141</ele>
        <time>2013-08-18T11:02:40.000Z</time>
      </trkpt>
      <trkpt lat="45.54226" lon="2.83615">
        <ele>1643.5999755859</ele>
        <time>2013-08-18T11:02:54.000Z</time>
      </trkpt>
      <trkpt lat="45.54228" lon="2.83618">
        <ele>1642.5999755859</ele>
        <time>2013-08-18T11:03:08.000Z</time>
      </trkpt>
      <trkpt lat="45.54229" lon="2.83619">
        <ele>1642</ele>
        <time>2013-08-18T11:03:21.000Z</time>
      </trkpt>
      <trkpt lat="45.5423" lon="2.83624">
        <ele>1640.8000488281</ele>
        <time>2013-08-18T11:03:37.000Z</time>
      </trkpt>
      <trkpt lat="45.54234" lon="2.83633">
        <ele>1638.4000244141</ele>
        <time>2013-08-18T11:03:50.000Z</time>
      </trkpt>
      <trkpt lat="45.54242" lon="2.8365">
        <ele>1633.5999755859</ele>
        <time>2013-08-18T11:04:05.000Z</time>
      </trkpt>
      <trkpt lat="45.54244" lon="2.83654">
        <ele>1632.4000244141</ele>
        <time>2013-08-18T11:04:19.000Z</time>
      </trkpt>
      <trkpt lat="45.5425" lon="2.8367">
        <ele>1628</ele>
        <time>2013-08-18T11:04:32.000Z</time>
      </trkpt>
      <trkpt lat="45.54255" lon="2.8368">
        <ele>1625.8000488281</ele>
        <time>2013-08-18T11:04:50.000Z</time>
      </trkpt>
      <trkpt lat="45.54258" lon="2.83689">
        <ele>1624.1999511719</ele>
        <time>2013-08-18T11:05:05.000Z</time>
      </trkpt>
      <trkpt lat="45.54259" lon="2.83713">
        <ele>1621.5999755859</ele>
        <time>2013-08-18T11:05:22.000Z</time>
      </trkpt>
      <trkpt lat="45.5426" lon="2.83718">
        <ele>1620.5999755859</ele>
        <time>2013-08-18T11:05:35.000Z</time>
      </trkpt>
      <trkpt lat="45.54261" lon="2.83738">
        <ele>1617.5999755859</ele>
        <time>2013-08-18T11:05:48.000Z</time>
      </trkpt>
      <trkpt lat="45.54261" lon="2.83765">
        <ele>1614.4000244141</ele>
        <time>2013-08-18T11:06:05.000Z</time>
      </trkpt>
      <trkpt lat="45.54263" lon="2.83787">
        <ele>1612.5999755859</ele>
        <time>2013-08-18T11:06:20.000Z</time>
      </trkpt>
      <trkpt lat="45.54264" lon="2.83798">
        <ele>1611.4000244141</ele>
        <time>2013-08-18T11:06:35.000Z</time>
      </trkpt>
      <trkpt lat="45.54265" lon="2.83805">
        <ele>1610.5999755859</ele>
        <time>2013-08-18T11:06:47.000Z</time>
      </trkpt>
      <trkpt lat="45.54269" lon="2.83826">
        <ele>1607.5999755859</ele>
        <time>2013-08-18T11:07:04.000Z</time>
      </trkpt>
      <trkpt lat="45.54271" lon="2.83832">
        <ele>1606.8000488281</ele>
        <time>2013-08-18T11:07:22.000Z</time>
      </trkpt>
      <trkpt lat="45.54275" lon="2.83846">
        <ele>1604.8000488281</ele>
        <time>2013-08-18T11:07:37.000Z</time>
      </trkpt>
      <trkpt lat="45.54277" lon="2.83858">
        <ele>1603.4000244141</ele>
        <time>2013-08-18T11:07:53.000Z</time>
      </trkpt>
      <trkpt lat="45.54283" lon="2.83876">
        <ele>1600.8000488281</ele>
        <time>2013-08-18T11:08:10.000Z</time>
      </trkpt>
      <trkpt lat="45.54287" lon="2.83889">
        <ele>1599.1999511719</ele>
        <time>2013-08-18T11:08:22.000Z</time>
      </trkpt>
      <trkpt lat="45.54292" lon="2.83908">
        <ele>1596.5999755859</ele>
        <time>2013-08-18T11:08:39.000Z</time>
      </trkpt>
      <trkpt lat="45.54296" lon="2.83928">
        <ele>1594.4000244141</ele>
        <time>2013-08-18T11:08:57.000Z</time>
      </trkpt>
      <trkpt lat="45.54303" lon="2.83953">
        <ele>1594.1999511719</ele>
        <time>2013-08-18T11:09:15.000Z</time>
      </trkpt>
      <trkpt lat="45.54304" lon="2.83966">
        <ele>1594.1999511719</ele>
        <time>2013-08-18T11:09:23.000Z</time>
      </trkpt>
      <trkpt lat="45.54308" lon="2.83991">
        <ele>1593.5999755859</ele>
        <time>2013-08-18T11:09:42.000Z</time>
      </trkpt>
      <trkpt lat="45.54307" lon="2.84008">
        <ele>1594.1999511719</ele>
        <time>2013-08-18T11:09:56.000Z</time>
      </trkpt>
      <trkpt lat="45.54306" lon="2.84033">
        <ele>1594</ele>
        <time>2013-08-18T11:10:12.000Z</time>
      </trkpt>
      <trkpt lat="45.54304" lon="2.84051">
        <ele>1593.5999755859</ele>
        <time>2013-08-18T11:10:26.000Z</time>
      </trkpt>
      <trkpt lat="45.54303" lon="2.84053">
        <ele>1593.8000488281</ele>
        <time>2013-08-18T11:10:39.000Z</time>
      </trkpt>
      <trkpt lat="45.54303" lon="2.84053">
        <ele>1593.8000488281</ele>
        <time>2013-08-18T11:11:15.000Z</time>
      </trkpt>
      <trkpt lat="45.54303" lon="2.84053">
        <ele>1593.8000488281</ele>
        <time>2013-08-18T11:11:35.000Z</time>
      </trkpt>
      <trkpt lat="45.54303" lon="2.84052">
        <ele>1593.8000488281</ele>
        <time>2013-08-18T11:12:01.000Z</time>
      </trkpt>
      <trkpt lat="45.54304" lon="2.84052">
        <ele>1593.8000488281</ele>
        <time>2013-08-18T11:12:31.000Z</time>
      </trkpt>
      <trkpt lat="45.54304" lon="2.84052">
        <ele>1593.8000488281</ele>
        <time>2013-08-18T11:13:03.000Z</time>
      </trkpt>
      <trkpt lat="45.54304" lon="2.84052">
        <ele>1593.5999755859</ele>
        <time>2013-08-18T11:13:26.000Z</time>
      </trkpt>
      <trkpt lat="45.54304" lon="2.84052">
        <ele>1593.5999755859</ele>
        <time>2013-08-18T11:13:51.000Z</time>
      </trkpt>
      <trkpt lat="45.54303" lon="2.84052">
        <ele>1593.8000488281</ele>
        <time>2013-08-18T11:14:19.000Z</time>
      </trkpt>
      <trkpt lat="45.54303" lon="2.84053">
        <ele>1593.8000488281</ele>
        <time>2013-08-18T11:14:39.000Z</time>
      </trkpt>
      <trkpt lat="45.54304" lon="2.84055">
        <ele>1593.5999755859</ele>
        <time>2013-08-18T11:15:05.000Z</time>
      </trkpt>
      <trkpt lat="45.54305" lon="2.84054">
        <ele>1593.4000244141</ele>
        <time>2013-08-18T11:15:18.000Z</time>
      </trkpt>
      <trkpt lat="45.54307" lon="2.84056">
        <ele>1592.8000488281</ele>
        <time>2013-08-18T11:15:39.000Z</time>
      </trkpt>
      <trkpt lat="45.54312" lon="2.84063">
        <ele>1591.4000244141</ele>
        <time>2013-08-18T11:15:52.000Z</time>
      </trkpt>
      <trkpt lat="45.54317" lon="2.84068">
        <ele>1590.1999511719</ele>
        <time>2013-08-18T11:16:06.000Z</time>
      </trkpt>
      <trkpt lat="45.54322" lon="2.84074">
        <ele>1589</ele>
        <time>2013-08-18T11:16:20.000Z</time>
      </trkpt>
      <trkpt lat="45.54326" lon="2.84083">
        <ele>1587.8000488281</ele>
        <time>2013-08-18T11:16:33.000Z</time>
      </trkpt>
      <trkpt lat="45.54328" lon="2.84092">
        <ele>1587</ele>
        <time>2013-08-18T11:16:47.000Z</time>
      </trkpt>
      <trkpt lat="45.54332" lon="2.84107">
        <ele>1585.4000244141</ele>
        <time>2013-08-18T11:17:03.000Z</time>
      </trkpt>
      <trkpt lat="45.54336" lon="2.84118">
        <ele>1584</ele>
        <time>2013-08-18T11:17:18.000Z</time>
      </trkpt>
      <trkpt lat="45.54338" lon="2.84138">
        <ele>1581.8000488281</ele>
        <time>2013-08-18T11:17:33.000Z</time>
      </trkpt>
      <trkpt lat="45.54337" lon="2.84145">
        <ele>1581</ele>
        <time>2013-08-18T11:17:38.000Z</time>
      </trkpt>
      <trkpt lat="45.5434" lon="2.84172">
        <ele>1577.4000244141</ele>
        <time>2013-08-18T11:17:59.000Z</time>
      </trkpt>
      <trkpt lat="45.5434" lon="2.84195">
        <ele>1575.1999511719</ele>
        <time>2013-08-18T11:18:16.000Z</time>
      </trkpt>
      <trkpt lat="45.54341" lon="2.84212">
        <ele>1573.4000244141</ele>
        <time>2013-08-18T11:18:32.000Z</time>
      </trkpt>
      <trkpt lat="45.5434" lon="2.84233">
        <ele>1569.8000488281</ele>
        <time>2013-08-18T11:18:49.000Z</time>
      </trkpt>
      <trkpt lat="45.54339" lon="2.84239">
        <ele>1568.8000488281</ele>
        <time>2013-08-18T11:18:53.000Z</time>
      </trkpt>
      <trkpt lat="45.54334" lon="2.84267">
        <ele>1564.5999755859</ele>
        <time>2013-08-18T11:19:13.000Z</time>
      </trkpt>
      <trkpt lat="45.5433" lon="2.84291">
        <ele>1562</ele>
        <time>2013-08-18T11:19:30.000Z</time>
      </trkpt>
      <trkpt lat="45.54328" lon="2.84296">
        <ele>1561.5999755859</ele>
        <time>2013-08-18T11:19:42.000Z</time>
      </trkpt>
      <trkpt lat="45.54328" lon="2.84296">
        <ele>1561.5999755859</ele>
        <time>2013-08-18T11:20:09.000Z</time>
      </trkpt>
      <trkpt lat="45.54331" lon="2.843">
        <ele>1561.1999511719</ele>
        <time>2013-08-18T11:20:27.000Z</time>
      </trkpt>
      <trkpt lat="45.54333" lon="2.84309">
        <ele>1559.8000488281</ele>
        <time>2013-08-18T11:20:40.000Z</time>
      </trkpt>
      <trkpt lat="45.54337" lon="2.84318">
        <ele>1558.5999755859</ele>
        <time>2013-08-18T11:20:54.000Z</time>
      </trkpt>
      <trkpt lat="45.54338" lon="2.8432">
        <ele>1558.4000244141</ele>
        <time>2013-08-18T11:21:08.000Z</time>
      </trkpt>
      <trkpt lat="45.54339" lon="2.84324">
        <ele>1557.8000488281</ele>
        <time>2013-08-18T11:21:23.000Z</time>
      </trkpt>
      <trkpt lat="45.5434" lon="2.84328">
        <ele>1557.4000244141</ele>
        <time>2013-08-18T11:21:40.000Z</time>
      </trkpt>
      <trkpt lat="45.54341" lon="2.84333">
        <ele>1556.8000488281</ele>
        <time>2013-08-18T11:21:58.000Z</time>
      </trkpt>
      <trkpt lat="45.54345" lon="2.84337">
        <ele>1556</ele>
        <time>2013-08-18T11:22:12.000Z</time>
      </trkpt>
      <trkpt lat="45.54347" lon="2.8434">
        <ele>1555.5999755859</ele>
        <time>2013-08-18T11:22:26.000Z</time>
      </trkpt>
      <trkpt lat="45.54352" lon="2.84346">
        <ele>1554.1999511719</ele>
        <time>2013-08-18T11:22:40.000Z</time>
      </trkpt>
      <trkpt lat="45.54353" lon="2.84348">
        <ele>1553.8000488281</ele>
        <time>2013-08-18T11:22:54.000Z</time>
      </trkpt>
      <trkpt lat="45.54353" lon="2.8435">
        <ele>1553.4000244141</ele>
        <time>2013-08-18T11:23:04.000Z</time>
      </trkpt>
      <trkpt lat="45.54352" lon="2.84357">
        <ele>1552.4000244141</ele>
        <time>2013-08-18T11:23:16.000Z</time>
      </trkpt>
      <trkpt lat="45.54353" lon="2.84364">
        <ele>1551.1999511719</ele>
        <time>2013-08-18T11:23:32.000Z</time>
      </trkpt>
      <trkpt lat="45.54354" lon="2.84375">
        <ele>1549.1999511719</ele>
        <time>2013-08-18T11:23:46.000Z</time>
      </trkpt>
      <trkpt lat="45.54356" lon="2.84389">
        <ele>1546.5999755859</ele>
        <time>2013-08-18T11:23:59.000Z</time>
      </trkpt>
      <trkpt lat="45.54354" lon="2.84412">
        <ele>1540</ele>
        <time>2013-08-18T11:24:17.000Z</time>
      </trkpt>
      <trkpt lat="45.54353" lon="2.84415">
        <ele>1538.8000488281</ele>
        <time>2013-08-18T11:24:29.000Z</time>
      </trkpt>
      <trkpt lat="45.54364" lon="2.84422">
        <ele>1537.4000244141</ele>
        <time>2013-08-18T11:25:00.000Z</time>
      </trkpt>
      <trkpt lat="45.54364" lon="2.84422">
        <ele>1537.5999755859</ele>
        <time>2013-08-18T11:25:24.000Z</time>
      </trkpt>
      <trkpt lat="45.54364" lon="2.84421">
        <ele>1537.5999755859</ele>
        <time>2013-08-18T11:26:00.000Z</time>
      </trkpt>
      <trkpt lat="45.54365" lon="2.84429">
        <ele>1535.5999755859</ele>
        <time>2013-08-18T11:26:19.000Z</time>
      </trkpt>
      <trkpt lat="45.54369" lon="2.8443">
        <ele>1535.1999511719</ele>
        <time>2013-08-18T11:26:32.000Z</time>
      </trkpt>
      <trkpt lat="45.54372" lon="2.84433">
        <ele>1534.8000488281</ele>
        <time>2013-08-18T11:26:47.000Z</time>
      </trkpt>
      <trkpt lat="45.54382" lon="2.84438">
        <ele>1534</ele>
        <time>2013-08-18T11:27:01.000Z</time>
      </trkpt>
      <trkpt lat="45.54385" lon="2.84439">
        <ele>1533.8000488281</ele>
        <time>2013-08-18T11:27:14.000Z</time>
      </trkpt>
      <trkpt lat="45.54391" lon="2.84441">
        <ele>1533</ele>
        <time>2013-08-18T11:27:27.000Z</time>
      </trkpt>
      <trkpt lat="45.54399" lon="2.84441">
        <ele>1532.4000244141</ele>
        <time>2013-08-18T11:27:41.000Z</time>
      </trkpt>
      <trkpt lat="45.544" lon="2.84441">
        <ele>1532.4000244141</ele>
        <time>2013-08-18T11:27:44.000Z</time>
      </trkpt>
      <trkpt lat="45.54405" lon="2.84444">
        <ele>1531.1999511719</ele>
        <time>2013-08-18T11:27:49.000Z</time>
      </trkpt>
      <trkpt lat="45.54415" lon="2.84447">
        <ele>1529.1999511719</ele>
        <time>2013-08-18T11:27:55.000Z</time>
      </trkpt>
      <trkpt lat="45.54428" lon="2.84459">
        <ele>1524.5999755859</ele>
        <time>2013-08-18T11:28:07.000Z</time>
      </trkpt>
      <trkpt lat="45.54435" lon="2.84466">
        <ele>1522.1999511719</ele>
        <time>2013-08-18T11:28:24.000Z</time>
      </trkpt>
      <trkpt lat="45.54436" lon="2.84466">
        <ele>1521.8000488281</ele>
        <time>2013-08-18T11:28:44.000Z</time>
      </trkpt>
      <trkpt lat="45.54437" lon="2.84467">
        <ele>1521.5999755859</ele>
        <time>2013-08-18T11:29:05.000Z</time>
      </trkpt>
      <trkpt lat="45.54438" lon="2.84467">
        <ele>1521.4000244141</ele>
        <time>2013-08-18T11:29:24.000Z</time>
      </trkpt>
      <trkpt lat="45.54438" lon="2.84466">
        <ele>1521.5999755859</ele>
        <time>2013-08-18T11:29:42.000Z</time>
      </trkpt>
      <trkpt lat="45.54438" lon="2.84466">
        <ele>1521.5999755859</ele>
        <time>2013-08-18T11:29:57.000Z</time>
      </trkpt>
      <trkpt lat="45.54439" lon="2.8447">
        <ele>1520.5999755859</ele>
        <time>2013-08-18T11:30:08.000Z</time>
      </trkpt>
      <trkpt lat="45.54437" lon="2.8448">
        <ele>1518.4000244141</ele>
        <time>2013-08-18T11:30:21.000Z</time>
      </trkpt>
      <trkpt lat="45.54436" lon="2.84493">
        <ele>1514.5999755859</ele>
        <time>2013-08-18T11:30:33.000Z</time>
      </trkpt>
      <trkpt lat="45.54435" lon="2.845">
        <ele>1512.1999511719</ele>
        <time>2013-08-18T11:30:47.000Z</time>
      </trkpt>
      <trkpt lat="45.54433" lon="2.84502">
        <ele>1511.8000488281</ele>
        <time>2013-08-18T11:31:01.000Z</time>
      </trkpt>
      <trkpt lat="45.54429" lon="2.84512">
        <ele>1508.5999755859</ele>
        <time>2013-08-18T11:31:15.000Z</time>
      </trkpt>
      <trkpt lat="45.54425" lon="2.84523">
        <ele>1504.5999755859</ele>
        <time>2013-08-18T11:31:31.000Z</time>
      </trkpt>
      <trkpt lat="45.54424" lon="2.84527">
        <ele>1503.1999511719</ele>
        <time>2013-08-18T11:31:34.000Z</time>
      </trkpt>
      <trkpt lat="45.54423" lon="2.84536">
        <ele>1499.8000488281</ele>
        <time>2013-08-18T11:31:51.000Z</time>
      </trkpt>
      <trkpt lat="45.54422" lon="2.8454">
        <ele>1498.4000244141</ele>
        <time>2013-08-18T11:32:06.000Z</time>
      </trkpt>
      <trkpt lat="45.54423" lon="2.84546">
        <ele>1496.4000244141</ele>
        <time>2013-08-18T11:32:18.000Z</time>
      </trkpt>
      <trkpt lat="45.54426" lon="2.84558">
        <ele>1492.4000244141</ele>
        <time>2013-08-18T11:32:32.000Z</time>
      </trkpt>
      <trkpt lat="45.54432" lon="2.84566">
        <ele>1489.1999511719</ele>
        <time>2013-08-18T11:32:56.000Z</time>
      </trkpt>
      <trkpt lat="45.54432" lon="2.8457">
        <ele>1488</ele>
        <time>2013-08-18T11:33:10.000Z</time>
      </trkpt>
      <trkpt lat="45.54435" lon="2.84573">
        <ele>1486.8000488281</ele>
        <time>2013-08-18T11:33:25.000Z</time>
      </trkpt>
      <trkpt lat="45.54437" lon="2.84575">
        <ele>1486</ele>
        <time>2013-08-18T11:33:44.000Z</time>
      </trkpt>
      <trkpt lat="45.54438" lon="2.84575">
        <ele>1485.8000488281</ele>
        <time>2013-08-18T11:34:07.000Z</time>
      </trkpt>
      <trkpt lat="45.54438" lon="2.84578">
        <ele>1485</ele>
        <time>2013-08-18T11:34:36.000Z</time>
      </trkpt>
      <trkpt lat="45.54438" lon="2.84579">
        <ele>1484.5999755859</ele>
        <time>2013-08-18T11:34:55.000Z</time>
      </trkpt>
      <trkpt lat="45.54437" lon="2.84579">
        <ele>1484.8000488281</ele>
        <time>2013-08-18T11:35:23.000Z</time>
      </trkpt>
      <trkpt lat="45.54438" lon="2.84579">
        <ele>1484.5999755859</ele>
        <time>2013-08-18T11:35:50.000Z</time>
      </trkpt>
      <trkpt lat="45.54438" lon="2.84579">
        <ele>1484.5999755859</ele>
        <time>2013-08-18T11:36:20.000Z</time>
      </trkpt>
      <trkpt lat="45.54437" lon="2.84579">
        <ele>1484.5999755859</ele>
        <time>2013-08-18T11:36:38.000Z</time>
      </trkpt>
      <trkpt lat="45.54437" lon="2.8458">
        <ele>1484.4000244141</ele>
        <time>2013-08-18T11:36:57.000Z</time>
      </trkpt>
      <trkpt lat="45.54437" lon="2.84579">
        <ele>1484.8000488281</ele>
        <time>2013-08-18T11:37:27.000Z</time>
      </trkpt>
      <trkpt lat="45.54437" lon="2.84579">
        <ele>1484.8000488281</ele>
        <time>2013-08-18T11:37:40.000Z</time>
      </trkpt>
      <trkpt lat="45.54438" lon="2.84579">
        <ele>1484.5999755859</ele>
        <time>2013-08-18T11:37:57.000Z</time>
      </trkpt>
      <trkpt lat="45.54439" lon="2.8458">
        <ele>1484.1999511719</ele>
        <time>2013-08-18T11:38:10.000Z</time>
      </trkpt>
      <trkpt lat="45.5444" lon="2.84581">
        <ele>1483.8000488281</ele>
        <time>2013-08-18T11:38:26.000Z</time>
      </trkpt>
      <trkpt lat="45.54443" lon="2.84581">
        <ele>1483.1999511719</ele>
        <time>2013-08-18T11:38:42.000Z</time>
      </trkpt>
      <trkpt lat="45.54444" lon="2.84582">
        <ele>1483</ele>
        <time>2013-08-18T11:38:54.000Z</time>
      </trkpt>
      <trkpt lat="45.54445" lon="2.84585">
        <ele>1482</ele>
        <time>2013-08-18T11:39:08.000Z</time>
      </trkpt>
      <trkpt lat="45.5445" lon="2.84597">
        <ele>1478.5999755859</ele>
        <time>2013-08-18T11:39:25.000Z</time>
      </trkpt>
      <trkpt lat="45.54452" lon="2.846">
        <ele>1477.5999755859</ele>
        <time>2013-08-18T11:39:47.000Z</time>
      </trkpt>
      <trkpt lat="45.54458" lon="2.84606">
        <ele>1475.8000488281</ele>
        <time>2013-08-18T11:40:00.000Z</time>
      </trkpt>
      <trkpt lat="45.5446" lon="2.8461">
        <ele>1474.8000488281</ele>
        <time>2013-08-18T11:40:15.000Z</time>
      </trkpt>
      <trkpt lat="45.54468" lon="2.84616">
        <ele>1472.8000488281</ele>
        <time>2013-08-18T11:40:32.000Z</time>
      </trkpt>
      <trkpt lat="45.54484" lon="2.84632">
        <ele>1468.5999755859</ele>
        <time>2013-08-18T11:40:48.000Z</time>
      </trkpt>
      <trkpt lat="45.54491" lon="2.84642">
        <ele>1466.1999511719</ele>
        <time>2013-08-18T11:41:03.000Z</time>
      </trkpt>
      <trkpt lat="45.54494" lon="2.84648">
        <ele>1464.8000488281</ele>
        <time>2013-08-18T11:41:16.000Z</time>
      </trkpt>
      <trkpt lat="45.54511" lon="2.84679">
        <ele>1457.5999755859</ele>
        <time>2013-08-18T11:41:30.000Z</time>
      </trkpt>
      <trkpt lat="45.54522" lon="2.84686">
        <ele>1455.4000244141</ele>
        <time>2013-08-18T11:42:02.000Z</time>
      </trkpt>
      <trkpt lat="45.54522" lon="2.84687">
        <ele>1455.4000244141</ele>
        <time>2013-08-18T11:42:27.000Z</time>
      </trkpt>
      <trkpt lat="45.54525" lon="2.84691">
        <ele>1454.1999511719</ele>
        <time>2013-08-18T11:42:40.000Z</time>
      </trkpt>
      <trkpt lat="45.54531" lon="2.84703">
        <ele>1451.5999755859</ele>
        <time>2013-08-18T11:42:56.000Z</time>
      </trkpt>
      <trkpt lat="45.54536" lon="2.84717">
        <ele>1448.5999755859</ele>
        <time>2013-08-18T11:43:11.000Z</time>
      </trkpt>
      <trkpt lat="45.54542" lon="2.84738">
        <ele>1444</ele>
        <time>2013-08-18T11:43:25.000Z</time>
      </trkpt>
      <trkpt lat="45.54543" lon="2.84743">
        <ele>1443</ele>
        <time>2013-08-18T11:43:30.000Z</time>
      </trkpt>
      <trkpt lat="45.54546" lon="2.84754">
        <ele>1441</ele>
        <time>2013-08-18T11:43:40.000Z</time>
      </trkpt>
      <trkpt lat="45.54547" lon="2.84757">
        <ele>1440.4000244141</ele>
        <time>2013-08-18T11:43:43.000Z</time>
      </trkpt>
      <trkpt lat="45.54553" lon="2.84775">
        <ele>1437.1999511719</ele>
        <time>2013-08-18T11:43:59.000Z</time>
      </trkpt>
      <trkpt lat="45.54558" lon="2.8479">
        <ele>1434.8000488281</ele>
        <time>2013-08-18T11:44:15.000Z</time>
      </trkpt>
      <trkpt lat="45.54559" lon="2.84796">
        <ele>1434</ele>
        <time>2013-08-18T11:44:31.000Z</time>
      </trkpt>
      <trkpt lat="45.54561" lon="2.84802">
        <ele>1433</ele>
        <time>2013-08-18T11:44:48.000Z</time>
      </trkpt>
      <trkpt lat="45.54567" lon="2.84811">
        <ele>1431.5999755859</ele>
        <time>2013-08-18T11:44:52.000Z</time>
      </trkpt>
      <trkpt lat="45.54574" lon="2.84817">
        <ele>1430.4000244141</ele>
        <time>2013-08-18T11:44:57.000Z</time>
      </trkpt>
      <trkpt lat="45.54581" lon="2.8483">
        <ele>1428.1999511719</ele>
        <time>2013-08-18T11:45:06.000Z</time>
      </trkpt>
      <trkpt lat="45.54597" lon="2.84855">
        <ele>1425.4000244141</ele>
        <time>2013-08-18T11:45:24.000Z</time>
      </trkpt>
      <trkpt lat="45.54609" lon="2.8487">
        <ele>1424</ele>
        <time>2013-08-18T11:45:38.000Z</time>
      </trkpt>
      <trkpt lat="45.54621" lon="2.84884">
        <ele>1422.8000488281</ele>
        <time>2013-08-18T11:45:55.000Z</time>
      </trkpt>
      <trkpt lat="45.54623" lon="2.84885">
        <ele>1422.5999755859</ele>
        <time>2013-08-18T11:46:12.000Z</time>
      </trkpt>
      <trkpt lat="45.54629" lon="2.8489">
        <ele>1422.1999511719</ele>
        <time>2013-08-18T11:46:26.000Z</time>
      </trkpt>
      <trkpt lat="45.54629" lon="2.84892">
        <ele>1422</ele>
        <time>2013-08-18T11:46:45.000Z</time>
      </trkpt>
      <trkpt lat="45.54629" lon="2.84895">
        <ele>1421.8000488281</ele>
        <time>2013-08-18T11:47:01.000Z</time>
      </trkpt>
      <trkpt lat="45.54638" lon="2.84909">
        <ele>1420.8000488281</ele>
        <time>2013-08-18T11:47:13.000Z</time>
      </trkpt>
      <trkpt lat="45.54641" lon="2.84911">
        <ele>1420.5999755859</ele>
        <time>2013-08-18T11:47:24.000Z</time>
      </trkpt>
      <trkpt lat="45.54655" lon="2.84923">
        <ele>1420</ele>
        <time>2013-08-18T11:47:40.000Z</time>
      </trkpt>
      <trkpt lat="45.54661" lon="2.84924">
        <ele>1419.8000488281</ele>
        <time>2013-08-18T11:47:46.000Z</time>
      </trkpt>
      <trkpt lat="45.54664" lon="2.84927">
        <ele>1419.4000244141</ele>
        <time>2013-08-18T11:47:50.000Z</time>
      </trkpt>
      <trkpt lat="45.54676" lon="2.84929">
        <ele>1419.1999511719</ele>
        <time>2013-08-18T11:48:07.000Z</time>
      </trkpt>
      <trkpt lat="45.54675" lon="2.84931">
        <ele>1419</ele>
        <time>2013-08-18T11:48:33.000Z</time>
      </trkpt>
      <trkpt lat="45.54678" lon="2.84937">
        <ele>1418.4000244141</ele>
        <time>2013-08-18T11:48:53.000Z</time>
      </trkpt>
      <trkpt lat="45.54682" lon="2.84945">
        <ele>1417.4000244141</ele>
        <time>2013-08-18T11:49:02.000Z</time>
      </trkpt>
      <trkpt lat="45.54692" lon="2.84951">
        <ele>1416.5999755859</ele>
        <time>2013-08-18T11:49:20.000Z</time>
      </trkpt>
      <trkpt lat="45.54692" lon="2.84951">
        <ele>1416.5999755859</ele>
        <time>2013-08-18T11:49:48.000Z</time>
      </trkpt>
      <trkpt lat="45.54691" lon="2.84951">
        <ele>1416.5999755859</ele>
        <time>2013-08-18T11:50:10.000Z</time>
      </trkpt>
      <trkpt lat="45.54688" lon="2.84954">
        <ele>1416.1999511719</ele>
        <time>2013-08-18T11:50:28.000Z</time>
      </trkpt>
      <trkpt lat="45.54687" lon="2.84953">
        <ele>1416.4000244141</ele>
        <time>2013-08-18T11:50:31.000Z</time>
      </trkpt>
      <trkpt lat="45.54684" lon="2.84949">
        <ele>1416.8000488281</ele>
        <time>2013-08-18T11:50:35.000Z</time>
      </trkpt>
      <trkpt lat="45.54682" lon="2.84946">
        <ele>1417.1999511719</ele>
        <time>2013-08-18T11:50:48.000Z</time>
      </trkpt>
      <trkpt lat="45.54681" lon="2.84946">
        <ele>1417.1999511719</ele>
        <time>2013-08-18T11:50:52.000Z</time>
      </trkpt>
      <trkpt lat="45.54681" lon="2.84953">
        <ele>1416.4000244141</ele>
        <time>2013-08-18T11:50:59.000Z</time>
      </trkpt>
      <trkpt lat="45.54683" lon="2.84956">
        <ele>1416</ele>
        <time>2013-08-18T11:51:02.000Z</time>
      </trkpt>
      <trkpt lat="45.54684" lon="2.84963">
        <ele>1415.1999511719</ele>
        <time>2013-08-18T11:51:07.000Z</time>
      </trkpt>
      <trkpt lat="45.54688" lon="2.84981">
        <ele>1413.1999511719</ele>
        <time>2013-08-18T11:51:22.000Z</time>
      </trkpt>
      <trkpt lat="45.54693" lon="2.84985">
        <ele>1412.8000488281</ele>
        <time>2013-08-18T11:51:34.000Z</time>
      </trkpt>
      <trkpt lat="45.54695" lon="2.84985">
        <ele>1412.5999755859</ele>
        <time>2013-08-18T11:51:50.000Z</time>
      </trkpt>
      <trkpt lat="45.54696" lon="2.84984">
        <ele>1412.5999755859</ele>
        <time>2013-08-18T11:52:13.000Z</time>
      </trkpt>
      <trkpt lat="45.54697" lon="2.84986">
        <ele>1412.4000244141</ele>
        <time>2013-08-18T11:52:38.000Z</time>
      </trkpt>
      <trkpt lat="45.54694" lon="2.84995">
        <ele>1411.8000488281</ele>
        <time>2013-08-18T11:52:51.000Z</time>
      </trkpt>
      <trkpt lat="45.54694" lon="2.85016">
        <ele>1410</ele>
        <time>2013-08-18T11:53:09.000Z</time>
      </trkpt>
      <trkpt lat="45.54694" lon="2.85018">
        <ele>1409.8000488281</ele>
        <time>2013-08-18T11:53:22.000Z</time>
      </trkpt>
      <trkpt lat="45.54695" lon="2.85025">
        <ele>1408.8000488281</ele>
        <time>2013-08-18T11:53:37.000Z</time>
      </trkpt>
      <trkpt lat="45.54693" lon="2.85028">
        <ele>1408.4000244141</ele>
        <time>2013-08-18T11:53:54.000Z</time>
      </trkpt>
      <trkpt lat="45.54694" lon="2.85038">
        <ele>1407.1999511719</ele>
        <time>2013-08-18T11:54:09.000Z</time>
      </trkpt>
      <trkpt lat="45.54706" lon="2.85074">
        <ele>1402.4000244141</ele>
        <time>2013-08-18T11:54:22.000Z</time>
      </trkpt>
      <trkpt lat="45.54707" lon="2.85078">
        <ele>1401.8000488281</ele>
        <time>2013-08-18T11:54:36.000Z</time>
      </trkpt>
      <trkpt lat="45.54711" lon="2.85089">
        <ele>1401.1999511719</ele>
        <time>2013-08-18T11:54:40.000Z</time>
      </trkpt>
      <trkpt lat="45.54714" lon="2.85094">
        <ele>1400.1999511719</ele>
        <time>2013-08-18T11:54:51.000Z</time>
      </trkpt>
      <trkpt lat="45.54714" lon="2.85095">
        <ele>1400.1999511719</ele>
        <time>2013-08-18T11:55:09.000Z</time>
      </trkpt>
      <trkpt lat="45.54713" lon="2.85096">
        <ele>1400.1999511719</ele>
        <time>2013-08-18T11:55:27.000Z</time>
      </trkpt>
      <trkpt lat="45.54715" lon="2.85117">
        <ele>1398.5999755859</ele>
        <time>2013-08-18T11:55:45.000Z</time>
      </trkpt>
      <trkpt lat="45.54721" lon="2.85146">
        <ele>1395.1999511719</ele>
        <time>2013-08-18T11:56:01.000Z</time>
      </trkpt>
      <trkpt lat="45.54724" lon="2.85157">
        <ele>1393.8000488281</ele>
        <time>2013-08-18T11:56:17.000Z</time>
      </trkpt>
      <trkpt lat="45.54725" lon="2.85163">
        <ele>1393.1999511719</ele>
        <time>2013-08-18T11:56:33.000Z</time>
      </trkpt>
      <trkpt lat="45.54735" lon="2.85188">
        <ele>1389.1999511719</ele>
        <time>2013-08-18T11:56:53.000Z</time>
      </trkpt>
      <trkpt lat="45.54748" lon="2.85212">
        <ele>1386.1999511719</ele>
        <time>2013-08-18T11:57:12.000Z</time>
      </trkpt>
      <trkpt lat="45.54764" lon="2.85225">
        <ele>1381.4000244141</ele>
        <time>2013-08-18T11:57:31.000Z</time>
      </trkpt>
      <trkpt lat="45.54767" lon="2.85229">
        <ele>1381</ele>
        <time>2013-08-18T11:57:55.000Z</time>
      </trkpt>
      <trkpt lat="45.54767" lon="2.85231">
        <ele>1380.8000488281</ele>
        <time>2013-08-18T11:58:16.000Z</time>
      </trkpt>
      <trkpt lat="45.54775" lon="2.85225">
        <ele>1378.5999755859</ele>
        <time>2013-08-18T11:58:33.000Z</time>
      </trkpt>
      <trkpt lat="45.5478" lon="2.85213">
        <ele>1378.1999511719</ele>
        <time>2013-08-18T11:58:48.000Z</time>
      </trkpt>
      <trkpt lat="45.54782" lon="2.85205">
        <ele>1378.4000244141</ele>
        <time>2013-08-18T11:59:03.000Z</time>
      </trkpt>
      <trkpt lat="45.54785" lon="2.85197">
        <ele>1378.4000244141</ele>
        <time>2013-08-18T11:59:15.000Z</time>
      </trkpt>
      <trkpt lat="45.54788" lon="2.85186">
        <ele>1378.5999755859</ele>
        <time>2013-08-18T11:59:28.000Z</time>
      </trkpt>
      <trkpt lat="45.54791" lon="2.8518">
        <ele>1378.4000244141</ele>
        <time>2013-08-18T11:59:45.000Z</time>
      </trkpt>
      <trkpt lat="45.54793" lon="2.85177">
        <ele>1378.1999511719</ele>
        <time>2013-08-18T12:00:02.000Z</time>
      </trkpt>
      <trkpt lat="45.54793" lon="2.85177">
        <ele>1378.1999511719</ele>
        <time>2013-08-18T12:00:03.000Z</time>
      </trkpt>
      <trkpt lat="45.548" lon="2.8517">
        <ele>1377.5999755859</ele>
        <time>2013-08-18T12:00:16.000Z</time>
      </trkpt>
      <trkpt lat="45.54802" lon="2.85166">
        <ele>1378</ele>
        <time>2013-08-18T12:00:31.000Z</time>
      </trkpt>
      <trkpt lat="45.54804" lon="2.85168">
        <ele>1377.1999511719</ele>
        <time>2013-08-18T12:00:47.000Z</time>
      </trkpt>
      <trkpt lat="45.54813" lon="2.85181">
        <ele>1372.4000244141</ele>
        <time>2013-08-18T12:01:04.000Z</time>
      </trkpt>
      <trkpt lat="45.54821" lon="2.85189">
        <ele>1368.8000488281</ele>
        <time>2013-08-18T12:01:19.000Z</time>
      </trkpt>
      <trkpt lat="45.54825" lon="2.85196">
        <ele>1366.4000244141</ele>
        <time>2013-08-18T12:01:34.000Z</time>
      </trkpt>
      <trkpt lat="45.54829" lon="2.85202">
        <ele>1364.4000244141</ele>
        <time>2013-08-18T12:01:48.000Z</time>
      </trkpt>
      <trkpt lat="45.54824" lon="2.85213">
        <ele>1365.4000244141</ele>
        <time>2013-08-18T12:02:07.000Z</time>
      </trkpt>
      <trkpt lat="45.54827" lon="2.85223">
        <ele>1363.5999755859</ele>
        <time>2013-08-18T12:02:29.000Z</time>
      </trkpt>
      <trkpt lat="45.54828" lon="2.85227">
        <ele>1363</ele>
        <time>2013-08-18T12:02:48.000Z</time>
      </trkpt>
      <trkpt lat="45.54829" lon="2.85231">
        <ele>1362.1999511719</ele>
        <time>2013-08-18T12:03:18.000Z</time>
      </trkpt>
      <trkpt lat="45.54835" lon="2.85233">
        <ele>1360</ele>
        <time>2013-08-18T12:03:39.000Z</time>
      </trkpt>
      <trkpt lat="45.54839" lon="2.85236">
        <ele>1358.1999511719</ele>
        <time>2013-08-18T12:04:14.000Z</time>
      </trkpt>
      <trkpt lat="45.54839" lon="2.85239">
        <ele>1358</ele>
        <time>2013-08-18T12:04:32.000Z</time>
      </trkpt>
      <trkpt lat="45.5484" lon="2.85239">
        <ele>1357.8000488281</ele>
        <time>2013-08-18T12:04:56.000Z</time>
      </trkpt>
      <trkpt lat="45.5484" lon="2.85239">
        <ele>1357.5999755859</ele>
        <time>2013-08-18T12:05:24.000Z</time>
      </trkpt>
      <trkpt lat="45.5484" lon="2.8524">
        <ele>1357.5999755859</ele>
        <time>2013-08-18T12:05:42.000Z</time>
      </trkpt>
      <trkpt lat="45.54845" lon="2.85234">
        <ele>1356</ele>
        <time>2013-08-18T12:05:57.000Z</time>
      </trkpt>
      <trkpt lat="45.54863" lon="2.85225">
        <ele>1351.5999755859</ele>
        <time>2013-08-18T12:06:14.000Z</time>
      </trkpt>
      <trkpt lat="45.54864" lon="2.85221">
        <ele>1352</ele>
        <time>2013-08-18T12:06:31.000Z</time>
      </trkpt>
      <trkpt lat="45.54865" lon="2.85218">
        <ele>1352.5999755859</ele>
        <time>2013-08-18T12:06:47.000Z</time>
      </trkpt>
      <trkpt lat="45.54868" lon="2.85216">
        <ele>1352.4000244141</ele>
        <time>2013-08-18T12:07:04.000Z</time>
      </trkpt>
      <trkpt lat="45.54869" lon="2.85215">
        <ele>1352.4000244141</ele>
        <time>2013-08-18T12:07:18.000Z</time>
      </trkpt>
      <trkpt lat="45.54871" lon="2.85216">
        <ele>1351.5999755859</ele>
        <time>2013-08-18T12:07:38.000Z</time>
      </trkpt>
      <trkpt lat="45.54872" lon="2.85218">
        <ele>1351</ele>
        <time>2013-08-18T12:07:53.000Z</time>
      </trkpt>
      <trkpt lat="45.54875" lon="2.8522">
        <ele>1349.8000488281</ele>
        <time>2013-08-18T12:08:11.000Z</time>
      </trkpt>
      <trkpt lat="45.54877" lon="2.85223">
        <ele>1348.5999755859</ele>
        <time>2013-08-18T12:08:32.000Z</time>
      </trkpt>
      <trkpt lat="45.54879" lon="2.85231">
        <ele>1346.5999755859</ele>
        <time>2013-08-18T12:08:51.000Z</time>
      </trkpt>
      <trkpt lat="45.54887" lon="2.853">
        <ele>1335.1999511719</ele>
        <time>2013-08-18T12:09:11.000Z</time>
      </trkpt>
      <trkpt lat="45.54887" lon="2.85314">
        <ele>1333.8000488281</ele>
        <time>2013-08-18T12:09:38.000Z</time>
      </trkpt>
      <trkpt lat="45.54885" lon="2.85329">
        <ele>1332.8000488281</ele>
        <time>2013-08-18T12:09:57.000Z</time>
      </trkpt>
      <trkpt lat="45.54893" lon="2.85335">
        <ele>1330.4000244141</ele>
        <time>2013-08-18T12:10:15.000Z</time>
      </trkpt>
      <trkpt lat="45.54904" lon="2.85347">
        <ele>1328</ele>
        <time>2013-08-18T12:10:35.000Z</time>
      </trkpt>
      <trkpt lat="45.54908" lon="2.85362">
        <ele>1328.1999511719</ele>
        <time>2013-08-18T12:10:53.000Z</time>
      </trkpt>
      <trkpt lat="45.54918" lon="2.85372">
        <ele>1326.8000488281</ele>
        <time>2013-08-18T12:11:12.000Z</time>
      </trkpt>
      <trkpt lat="45.54935" lon="2.85381">
        <ele>1323.4000244141</ele>
        <time>2013-08-18T12:11:30.000Z</time>
      </trkpt>
      <trkpt lat="45.54947" lon="2.85388">
        <ele>1321</ele>
        <time>2013-08-18T12:11:41.000Z</time>
      </trkpt>
      <trkpt lat="45.54956" lon="2.85394">
        <ele>1319.1999511719</ele>
        <time>2013-08-18T12:11:58.000Z</time>
      </trkpt>
      <trkpt lat="45.54959" lon="2.85395">
        <ele>1318.8000488281</ele>
        <time>2013-08-18T12:12:01.000Z</time>
      </trkpt>
      <trkpt lat="45.54975" lon="2.85395">
        <ele>1316</ele>
        <time>2013-08-18T12:12:18.000Z</time>
      </trkpt>
      <trkpt lat="45.54993" lon="2.85392">
        <ele>1314</ele>
        <time>2013-08-18T12:12:37.000Z</time>
      </trkpt>
      <trkpt lat="45.55008" lon="2.85388">
        <ele>1312.1999511719</ele>
        <time>2013-08-18T12:12:53.000Z</time>
      </trkpt>
      <trkpt lat="45.55021" lon="2.85389">
        <ele>1310.8000488281</ele>
        <time>2013-08-18T12:13:10.000Z</time>
      </trkpt>
      <trkpt lat="45.55028" lon="2.85389">
        <ele>1309.4000244141</ele>
        <time>2013-08-18T12:13:20.000Z</time>
      </trkpt>
      <trkpt lat="45.55041" lon="2.85384">
        <ele>1306</ele>
        <time>2013-08-18T12:13:38.000Z</time>
      </trkpt>
      <trkpt lat="45.55054" lon="2.85387">
        <ele>1304</ele>
        <time>2013-08-18T12:13:54.000Z</time>
      </trkpt>
      <trkpt lat="45.55062" lon="2.85389">
        <ele>1302.8000488281</ele>
        <time>2013-08-18T12:14:07.000Z</time>
      </trkpt>
      <trkpt lat="45.55078" lon="2.85387">
        <ele>1299.4000244141</ele>
        <time>2013-08-18T12:14:25.000Z</time>
      </trkpt>
      <trkpt lat="45.5509" lon="2.85384">
        <ele>1296.5999755859</ele>
        <time>2013-08-18T12:14:39.000Z</time>
      </trkpt>
      <trkpt lat="45.55096" lon="2.85385">
        <ele>1295.4000244141</ele>
        <time>2013-08-18T12:14:54.000Z</time>
      </trkpt>
      <trkpt lat="45.55105" lon="2.85384">
        <ele>1293.5999755859</ele>
        <time>2013-08-18T12:15:09.000Z</time>
      </trkpt>
      <trkpt lat="45.55123" lon="2.85386">
        <ele>1290.4000244141</ele>
        <time>2013-08-18T12:15:28.000Z</time>
      </trkpt>
      <trkpt lat="45.55133" lon="2.85383">
        <ele>1287.5999755859</ele>
        <time>2013-08-18T12:15:44.000Z</time>
      </trkpt>
      <trkpt lat="45.55137" lon="2.85384">
        <ele>1286.8000488281</ele>
        <time>2013-08-18T12:16:02.000Z</time>
      </trkpt>
      <trkpt lat="45.55152" lon="2.85385">
        <ele>1282.8000488281</ele>
        <time>2013-08-18T12:16:20.000Z</time>
      </trkpt>
      <trkpt lat="45.55168" lon="2.85388">
        <ele>1279</ele>
        <time>2013-08-18T12:16:39.000Z</time>
      </trkpt>
      <trkpt lat="45.55203" lon="2.85394">
        <ele>1271.1999511719</ele>
        <time>2013-08-18T12:16:58.000Z</time>
      </trkpt>
      <trkpt lat="45.55224" lon="2.85406">
        <ele>1266.8000488281</ele>
        <time>2013-08-18T12:17:16.000Z</time>
      </trkpt>
      <trkpt lat="45.55244" lon="2.85415">
        <ele>1259.8000488281</ele>
        <time>2013-08-18T12:17:34.000Z</time>
      </trkpt>
      <trkpt lat="45.55266" lon="2.85432">
        <ele>1254.5999755859</ele>
        <time>2013-08-18T12:17:52.000Z</time>
      </trkpt>
      <trkpt lat="45.55279" lon="2.85451">
        <ele>1254.4000244141</ele>
        <time>2013-08-18T12:18:10.000Z</time>
      </trkpt>
      <trkpt lat="45.55287" lon="2.85467">
        <ele>1255.4000244141</ele>
        <time>2013-08-18T12:18:26.000Z</time>
      </trkpt>
      <trkpt lat="45.55297" lon="2.85476">
        <ele>1253.8000488281</ele>
        <time>2013-08-18T12:18:44.000Z</time>
      </trkpt>
      <trkpt lat="45.55319" lon="2.85494">
        <ele>1250.1999511719</ele>
        <time>2013-08-18T12:18:58.000Z</time>
      </trkpt>
      <trkpt lat="45.55335" lon="2.85515">
        <ele>1248.4000244141</ele>
        <time>2013-08-18T12:19:17.000Z</time>
      </trkpt>
      <trkpt lat="45.55348" lon="2.85539">
        <ele>1247.4000244141</ele>
        <time>2013-08-18T12:19:36.000Z</time>
      </trkpt>
      <trkpt lat="45.55359" lon="2.85556">
        <ele>1246.4000244141</ele>
        <time>2013-08-18T12:19:55.000Z</time>
      </trkpt>
      <trkpt lat="45.55366" lon="2.85561">
        <ele>1244.4000244141</ele>
        <time>2013-08-18T12:20:16.000Z</time>
      </trkpt>
      <trkpt lat="45.5537" lon="2.85564">
        <ele>1243.4000244141</ele>
        <time>2013-08-18T12:20:38.000Z</time>
      </trkpt>
      <trkpt lat="45.55373" lon="2.85569">
        <ele>1243.1999511719</ele>
        <time>2013-08-18T12:20:57.000Z</time>
      </trkpt>
      <trkpt lat="45.55384" lon="2.85593">
        <ele>1242.5999755859</ele>
        <time>2013-08-18T12:21:16.000Z</time>
      </trkpt>
      <trkpt lat="45.55395" lon="2.8561">
        <ele>1240.8000488281</ele>
        <time>2013-08-18T12:21:41.000Z</time>
      </trkpt>
      <trkpt lat="45.55409" lon="2.85637">
        <ele>1238.5999755859</ele>
        <time>2013-08-18T12:22:01.000Z</time>
      </trkpt>
      <trkpt lat="45.55426" lon="2.85661">
        <ele>1235.1999511719</ele>
        <time>2013-08-18T12:22:19.000Z</time>
      </trkpt>
      <trkpt lat="45.55432" lon="2.85674">
        <ele>1234.4000244141</ele>
        <time>2013-08-18T12:22:40.000Z</time>
      </trkpt>
      <trkpt lat="45.55446" lon="2.85698">
        <ele>1227.5999755859</ele>
        <time>2013-08-18T12:22:58.000Z</time>
      </trkpt>
      <trkpt lat="45.5545" lon="2.85717">
        <ele>1225.4000244141</ele>
        <time>2013-08-18T12:23:14.000Z</time>
      </trkpt>
      <trkpt lat="45.55459" lon="2.85748">
        <ele>1221.4000244141</ele>
        <time>2013-08-18T12:23:35.000Z</time>
      </trkpt>
      <trkpt lat="45.55452" lon="2.85776">
        <ele>1222.5999755859</ele>
        <time>2013-08-18T12:23:54.000Z</time>
      </trkpt>
      <trkpt lat="45.55452" lon="2.85791">
        <ele>1220.8000488281</ele>
        <time>2013-08-18T12:24:13.000Z</time>
      </trkpt>
      <trkpt lat="45.55449" lon="2.85818">
        <ele>1218.5999755859</ele>
        <time>2013-08-18T12:24:35.000Z</time>
      </trkpt>
      <trkpt lat="45.55449" lon="2.85829">
        <ele>1216.5999755859</ele>
        <time>2013-08-18T12:24:56.000Z</time>
      </trkpt>
      <trkpt lat="45.55449" lon="2.85836">
        <ele>1215</ele>
        <time>2013-08-18T12:25:14.000Z</time>
      </trkpt>
      <trkpt lat="45.55446" lon="2.85846">
        <ele>1215</ele>
        <time>2013-08-18T12:25:36.000Z</time>
      </trkpt>
      <trkpt lat="45.55444" lon="2.85853">
        <ele>1215</ele>
        <time>2013-08-18T12:25:58.000Z</time>
      </trkpt>
      <trkpt lat="45.55441" lon="2.85866">
        <ele>1215.1999511719</ele>
        <time>2013-08-18T12:26:22.000Z</time>
      </trkpt>
      <trkpt lat="45.55441" lon="2.85868">
        <ele>1214.5999755859</ele>
        <time>2013-08-18T12:26:38.000Z</time>
      </trkpt>
      <trkpt lat="45.55442" lon="2.85869">
        <ele>1213.8000488281</ele>
        <time>2013-08-18T12:26:57.000Z</time>
      </trkpt>
      <trkpt lat="45.55447" lon="2.85868">
        <ele>1211.4000244141</ele>
        <time>2013-08-18T12:27:16.000Z</time>
      </trkpt>
      <trkpt lat="45.55456" lon="2.85868">
        <ele>1206.8000488281</ele>
        <time>2013-08-18T12:27:40.000Z</time>
      </trkpt>
      <trkpt lat="45.55462" lon="2.85865">
        <ele>1204.1999511719</ele>
        <time>2013-08-18T12:28:08.000Z</time>
      </trkpt>
      <trkpt lat="45.55465" lon="2.85857">
        <ele>1203.5999755859</ele>
        <time>2013-08-18T12:28:45.000Z</time>
      </trkpt>
      <trkpt lat="45.55469" lon="2.85852">
        <ele>1202.4000244141</ele>
        <time>2013-08-18T12:29:20.000Z</time>
      </trkpt>
      <trkpt lat="45.5547" lon="2.85851">
        <ele>1202.1999511719</ele>
        <time>2013-08-18T12:29:50.000Z</time>
      </trkpt>
      <trkpt lat="45.5547" lon="2.85851">
        <ele>1202.1999511719</ele>
        <time>2013-08-18T12:30:10.000Z</time>
      </trkpt>
      <trkpt lat="45.55471" lon="2.85849">
        <ele>1201.8000488281</ele>
        <time>2013-08-18T12:30:37.000Z</time>
      </trkpt>
      <trkpt lat="45.55476" lon="2.85838">
        <ele>1200.1999511719</ele>
        <time>2013-08-18T12:30:58.000Z</time>
      </trkpt>
      <trkpt lat="45.55487" lon="2.85809">
        <ele>1198.1999511719</ele>
        <time>2013-08-18T12:31:19.000Z</time>
      </trkpt>
      <trkpt lat="45.55507" lon="2.85777">
        <ele>1191.1999511719</ele>
        <time>2013-08-18T12:31:42.000Z</time>
      </trkpt>
      <trkpt lat="45.55518" lon="2.85746">
        <ele>1187</ele>
        <time>2013-08-18T12:32:03.000Z</time>
      </trkpt>
      <trkpt lat="45.55524" lon="2.85728">
        <ele>1183</ele>
        <time>2013-08-18T12:32:23.000Z</time>
      </trkpt>
      <trkpt lat="45.55529" lon="2.85719">
        <ele>1181.1999511719</ele>
        <time>2013-08-18T12:32:39.000Z</time>
      </trkpt>
      <trkpt lat="45.55539" lon="2.85695">
        <ele>1176.5999755859</ele>
        <time>2013-08-18T12:32:59.000Z</time>
      </trkpt>
      <trkpt lat="45.55537" lon="2.85668">
        <ele>1178</ele>
        <time>2013-08-18T12:33:16.000Z</time>
      </trkpt>
      <trkpt lat="45.55539" lon="2.85658">
        <ele>1174.8000488281</ele>
        <time>2013-08-18T12:33:41.000Z</time>
      </trkpt>
      <trkpt lat="45.5553" lon="2.85613">
        <ele>1175.4000244141</ele>
        <time>2013-08-18T12:34:03.000Z</time>
      </trkpt>
      <trkpt lat="45.55529" lon="2.85581">
        <ele>1173</ele>
        <time>2013-08-18T12:34:20.000Z</time>
      </trkpt>
      <trkpt lat="45.55524" lon="2.85573">
        <ele>1174</ele>
        <time>2013-08-18T12:34:37.000Z</time>
      </trkpt>
      <trkpt lat="45.55536" lon="2.85556">
        <ele>1169.8000488281</ele>
        <time>2013-08-18T12:34:51.000Z</time>
      </trkpt>
      <trkpt lat="45.55558" lon="2.85553">
        <ele>1165.5999755859</ele>
        <time>2013-08-18T12:35:10.000Z</time>
      </trkpt>
      <trkpt lat="45.55576" lon="2.85557">
        <ele>1163.8000488281</ele>
        <time>2013-08-18T12:35:32.000Z</time>
      </trkpt>
      <trkpt lat="45.5558" lon="2.85557">
        <ele>1163.4000244141</ele>
        <time>2013-08-18T12:35:36.000Z</time>
      </trkpt>
      <trkpt lat="45.55593" lon="2.85574">
        <ele>1161.5999755859</ele>
        <time>2013-08-18T12:35:54.000Z</time>
      </trkpt>
      <trkpt lat="45.55608" lon="2.85599">
        <ele>1158.8000488281</ele>
        <time>2013-08-18T12:36:14.000Z</time>
      </trkpt>
      <trkpt lat="45.55628" lon="2.85625">
        <ele>1155</ele>
        <time>2013-08-18T12:36:34.000Z</time>
      </trkpt>
      <trkpt lat="45.55639" lon="2.85638">
        <ele>1154</ele>
        <time>2013-08-18T12:36:49.000Z</time>
      </trkpt>
      <trkpt lat="45.55643" lon="2.85671">
        <ele>1152.1999511719</ele>
        <time>2013-08-18T12:37:10.000Z</time>
      </trkpt>
      <trkpt lat="45.55645" lon="2.85679">
        <ele>1151.5999755859</ele>
        <time>2013-08-18T12:37:26.000Z</time>
      </trkpt>
      <trkpt lat="45.55642" lon="2.85684">
        <ele>1151.1999511719</ele>
        <time>2013-08-18T12:37:47.000Z</time>
      </trkpt>
      <trkpt lat="45.55641" lon="2.85682">
        <ele>1151.1999511719</ele>
        <time>2013-08-18T12:38:03.000Z</time>
      </trkpt>
      <trkpt lat="45.55641" lon="2.85682">
        <ele>1151.1999511719</ele>
        <time>2013-08-18T12:38:29.000Z</time>
      </trkpt>
      <trkpt lat="45.5564" lon="2.85685">
        <ele>1151</ele>
        <time>2013-08-18T12:39:04.000Z</time>
      </trkpt>
      <trkpt lat="45.5564" lon="2.85686">
        <ele>1151</ele>
        <time>2013-08-18T12:39:38.000Z</time>
      </trkpt>
      <trkpt lat="45.5564" lon="2.85686">
        <ele>1151</ele>
        <time>2013-08-18T12:40:13.000Z</time>
      </trkpt>
      <trkpt lat="45.55641" lon="2.85686">
        <ele>1151</ele>
        <time>2013-08-18T12:40:43.000Z</time>
      </trkpt>
      <trkpt lat="45.55641" lon="2.85686">
        <ele>1151</ele>
        <time>2013-08-18T12:41:10.000Z</time>
      </trkpt>
      <trkpt lat="45.5564" lon="2.85686">
        <ele>1151</ele>
        <time>2013-08-18T12:41:41.000Z</time>
      </trkpt>
      <trkpt lat="45.5564" lon="2.85686">
        <ele>1151</ele>
        <time>2013-08-18T12:42:09.000Z</time>
      </trkpt>
      <trkpt lat="45.5564" lon="2.85686">
        <ele>1151</ele>
        <time>2013-08-18T12:42:30.000Z</time>
      </trkpt>
      <trkpt lat="45.5564" lon="2.85686">
        <ele>1151</ele>
        <time>2013-08-18T12:43:00.000Z</time>
      </trkpt>
      <trkpt lat="45.55642" lon="2.85684">
        <ele>1151.1999511719</ele>
        <time>2013-08-18T12:43:24.000Z</time>
      </trkpt>
      <trkpt lat="45.55642" lon="2.85683">
        <ele>1151.1999511719</ele>
        <time>2013-08-18T12:43:51.000Z</time>
      </trkpt>
      <trkpt lat="45.55641" lon="2.85683">
        <ele>1151.1999511719</ele>
        <time>2013-08-18T12:44:22.000Z</time>
      </trkpt>
      <trkpt lat="45.55641" lon="2.85683">
        <ele>1151.1999511719</ele>
        <time>2013-08-18T12:44:54.000Z</time>
      </trkpt>
      <trkpt lat="45.55642" lon="2.85683">
        <ele>1151.1999511719</ele>
        <time>2013-08-18T12:45:23.000Z</time>
      </trkpt>
      <trkpt lat="45.55642" lon="2.85683">
        <ele>1151.1999511719</ele>
        <time>2013-08-18T12:45:47.000Z</time>
      </trkpt>
      <trkpt lat="45.55643" lon="2.85684">
        <ele>1151.1999511719</ele>
        <time>2013-08-18T12:46:19.000Z</time>
      </trkpt>
      <trkpt lat="45.55643" lon="2.85684">
        <ele>1151.1999511719</ele>
        <time>2013-08-18T12:46:50.000Z</time>
      </trkpt>
      <trkpt lat="45.55643" lon="2.85685">
        <ele>1151.1999511719</ele>
        <time>2013-08-18T12:47:20.000Z</time>
      </trkpt>
      <trkpt lat="45.55643" lon="2.85685">
        <ele>1151.1999511719</ele>
        <time>2013-08-18T12:47:52.000Z</time>
      </trkpt>
      <trkpt lat="45.55643" lon="2.85686">
        <ele>1151.1999511719</ele>
        <time>2013-08-18T12:48:19.000Z</time>
      </trkpt>
      <trkpt lat="45.55643" lon="2.85686">
        <ele>1151.1999511719</ele>
        <time>2013-08-18T12:49:01.000Z</time>
      </trkpt>
      <trkpt lat="45.55643" lon="2.85685">
        <ele>1151.1999511719</ele>
        <time>2013-08-18T12:49:34.000Z</time>
      </trkpt>
      <trkpt lat="45.55643" lon="2.85684">
        <ele>1151.1999511719</ele>
        <time>2013-08-18T12:50:07.000Z</time>
      </trkpt>
      <trkpt lat="45.55644" lon="2.85684">
        <ele>1151.4000244141</ele>
        <time>2013-08-18T12:50:31.000Z</time>
      </trkpt>
      <trkpt lat="45.55645" lon="2.85684">
        <ele>1151.4000244141</ele>
        <time>2013-08-18T12:51:04.000Z</time>
      </trkpt>
      <trkpt lat="45.55645" lon="2.85684">
        <ele>1151.4000244141</ele>
        <time>2013-08-18T12:51:38.000Z</time>
      </trkpt>
      <trkpt lat="45.55646" lon="2.85685">
        <ele>1151.4000244141</ele>
        <time>2013-08-18T12:52:09.000Z</time>
      </trkpt>
      <trkpt lat="45.55645" lon="2.85685">
        <ele>1151.4000244141</ele>
        <time>2013-08-18T12:52:40.000Z</time>
      </trkpt>
      <trkpt lat="45.55644" lon="2.85686">
        <ele>1151.1999511719</ele>
        <time>2013-08-18T12:53:10.000Z</time>
      </trkpt>
      <trkpt lat="45.55644" lon="2.85687">
        <ele>1151.1999511719</ele>
        <time>2013-08-18T12:53:42.000Z</time>
      </trkpt>
      <trkpt lat="45.55644" lon="2.85687">
        <ele>1151.1999511719</ele>
        <time>2013-08-18T12:54:19.000Z</time>
      </trkpt>
      <trkpt lat="45.55644" lon="2.85687">
        <ele>1151.1999511719</ele>
        <time>2013-08-18T12:55:03.000Z</time>
      </trkpt>
      <trkpt lat="45.55644" lon="2.85687">
        <ele>1151.1999511719</ele>
        <time>2013-08-18T12:55:38.000Z</time>
      </trkpt>
      <trkpt lat="45.55644" lon="2.85686">
        <ele>1151.1999511719</ele>
        <time>2013-08-18T12:56:11.000Z</time>
      </trkpt>
      <trkpt lat="45.55643" lon="2.85685">
        <ele>1151.1999511719</ele>
        <time>2013-08-18T12:56:42.000Z</time>
      </trkpt>
      <trkpt lat="45.55644" lon="2.85685">
        <ele>1151.1999511719</ele>
        <time>2013-08-18T12:57:15.000Z</time>
      </trkpt>
      <trkpt lat="45.55644" lon="2.85686">
        <ele>1151.1999511719</ele>
        <time>2013-08-18T12:57:37.000Z</time>
      </trkpt>
      <trkpt lat="45.55644" lon="2.85686">
        <ele>1151.1999511719</ele>
        <time>2013-08-18T12:58:02.000Z</time>
      </trkpt>
      <trkpt lat="45.55643" lon="2.85686">
        <ele>1151.1999511719</ele>
        <time>2013-08-18T12:58:33.000Z</time>
      </trkpt>
      <trkpt lat="45.55641" lon="2.85686">
        <ele>1151.1999511719</ele>
        <time>2013-08-18T12:59:08.000Z</time>
      </trkpt>
      <trkpt lat="45.55641" lon="2.85686">
        <ele>1151.1999511719</ele>
        <time>2013-08-18T12:59:31.000Z</time>
      </trkpt>
      <trkpt lat="45.55641" lon="2.85686">
        <ele>1151.1999511719</ele>
        <time>2013-08-18T12:59:54.000Z</time>
      </trkpt>
      <trkpt lat="45.55642" lon="2.85685">
        <ele>1151.1999511719</ele>
        <time>2013-08-18T13:00:20.000Z</time>
      </trkpt>
      <trkpt lat="45.55641" lon="2.85686">
        <ele>1151</ele>
        <time>2013-08-18T13:00:46.000Z</time>
      </trkpt>
      <trkpt lat="45.55642" lon="2.85685">
        <ele>1151.1999511719</ele>
        <time>2013-08-18T13:01:01.000Z</time>
      </trkpt>
      <trkpt lat="45.55647" lon="2.85684">
        <ele>1151.5999755859</ele>
        <time>2013-08-18T13:01:14.000Z</time>
      </trkpt>
      <trkpt lat="45.55653" lon="2.85702">
        <ele>1151.4000244141</ele>
        <time>2013-08-18T13:01:32.000Z</time>
      </trkpt>
      <trkpt lat="45.55658" lon="2.85725">
        <ele>1151.1999511719</ele>
        <time>2013-08-18T13:01:48.000Z</time>
      </trkpt>
      <trkpt lat="45.55664" lon="2.85742">
        <ele>1151</ele>
        <time>2013-08-18T13:02:04.000Z</time>
      </trkpt>
      <trkpt lat="45.55662" lon="2.85749">
        <ele>1150.8000488281</ele>
        <time>2013-08-18T13:02:09.000Z</time>
      </trkpt>
      <trkpt lat="45.55659" lon="2.85768">
        <ele>1149.5999755859</ele>
        <time>2013-08-18T13:02:25.000Z</time>
      </trkpt>
      <trkpt lat="45.55661" lon="2.85788">
        <ele>1148</ele>
        <time>2013-08-18T13:02:41.000Z</time>
      </trkpt>
      <trkpt lat="45.55666" lon="2.8581">
        <ele>1147</ele>
        <time>2013-08-18T13:02:56.000Z</time>
      </trkpt>
      <trkpt lat="45.55673" lon="2.8583">
        <ele>1146</ele>
        <time>2013-08-18T13:03:12.000Z</time>
      </trkpt>
      <trkpt lat="45.55676" lon="2.85836">
        <ele>1145.8000488281</ele>
        <time>2013-08-18T13:03:32.000Z</time>
      </trkpt>
      <trkpt lat="45.55681" lon="2.85844">
        <ele>1145.5999755859</ele>
        <time>2013-08-18T13:03:47.000Z</time>
      </trkpt>
      <trkpt lat="45.55685" lon="2.85849">
        <ele>1145.8000488281</ele>
        <time>2013-08-18T13:03:55.000Z</time>
      </trkpt>
      <trkpt lat="45.55687" lon="2.85874">
        <ele>1145.4000244141</ele>
        <time>2013-08-18T13:04:13.000Z</time>
      </trkpt>
      <trkpt lat="45.55702" lon="2.85896">
        <ele>1145.8000488281</ele>
        <time>2013-08-18T13:04:33.000Z</time>
      </trkpt>
      <trkpt lat="45.55724" lon="2.85921">
        <ele>1148.5999755859</ele>
        <time>2013-08-18T13:04:56.000Z</time>
      </trkpt>
      <trkpt lat="45.55738" lon="2.85939">
        <ele>1150.8000488281</ele>
        <time>2013-08-18T13:05:13.000Z</time>
      </trkpt>
      <trkpt lat="45.55743" lon="2.85955">
        <ele>1150.4000244141</ele>
        <time>2013-08-18T13:05:26.000Z</time>
      </trkpt>
      <trkpt lat="45.55747" lon="2.85981">
        <ele>1148.5999755859</ele>
        <time>2013-08-18T13:05:42.000Z</time>
      </trkpt>
      <trkpt lat="45.55753" lon="2.86014">
        <ele>1146.5999755859</ele>
        <time>2013-08-18T13:06:02.000Z</time>
      </trkpt>
      <trkpt lat="45.55756" lon="2.8603">
        <ele>1145.4000244141</ele>
        <time>2013-08-18T13:06:19.000Z</time>
      </trkpt>
      <trkpt lat="45.5576" lon="2.86061">
        <ele>1143.4000244141</ele>
        <time>2013-08-18T13:06:38.000Z</time>
      </trkpt>
      <trkpt lat="45.55763" lon="2.86088">
        <ele>1143</ele>
        <time>2013-08-18T13:06:57.000Z</time>
      </trkpt>
      <trkpt lat="45.55765" lon="2.86111">
        <ele>1142.4000244141</ele>
        <time>2013-08-18T13:07:10.000Z</time>
      </trkpt>
      <trkpt lat="45.5577" lon="2.86141">
        <ele>1142</ele>
        <time>2013-08-18T13:07:27.000Z</time>
      </trkpt>
      <trkpt lat="45.55771" lon="2.86173">
        <ele>1142.1999511719</ele>
        <time>2013-08-18T13:07:46.000Z</time>
      </trkpt>
      <trkpt lat="45.55772" lon="2.86185">
        <ele>1140.8000488281</ele>
        <time>2013-08-18T13:07:53.000Z</time>
      </trkpt>
      <trkpt lat="45.55774" lon="2.86202">
        <ele>1139</ele>
        <time>2013-08-18T13:08:02.000Z</time>
      </trkpt>
      <trkpt lat="45.55777" lon="2.86237">
        <ele>1135.4000244141</ele>
        <time>2013-08-18T13:08:22.000Z</time>
      </trkpt>
      <trkpt lat="45.5578" lon="2.8627">
        <ele>1133.4000244141</ele>
        <time>2013-08-18T13:08:42.000Z</time>
      </trkpt>
      <trkpt lat="45.55777" lon="2.86302">
        <ele>1130.5999755859</ele>
        <time>2013-08-18T13:09:02.000Z</time>
      </trkpt>
      <trkpt lat="45.55772" lon="2.86326">
        <ele>1128.5999755859</ele>
        <time>2013-08-18T13:09:20.000Z</time>
      </trkpt>
      <trkpt lat="45.55767" lon="2.86336">
        <ele>1127.8000488281</ele>
        <time>2013-08-18T13:09:28.000Z</time>
      </trkpt>
      <trkpt lat="45.55756" lon="2.86355">
        <ele>1127.1999511719</ele>
        <time>2013-08-18T13:09:45.000Z</time>
      </trkpt>
      <trkpt lat="45.55747" lon="2.86375">
        <ele>1127.1999511719</ele>
        <time>2013-08-18T13:10:03.000Z</time>
      </trkpt>
      <trkpt lat="45.55734" lon="2.86396">
        <ele>1127.4000244141</ele>
        <time>2013-08-18T13:10:20.000Z</time>
      </trkpt>
      <trkpt lat="45.55722" lon="2.86416">
        <ele>1127.8000488281</ele>
        <time>2013-08-18T13:10:37.000Z</time>
      </trkpt>
      <trkpt lat="45.55707" lon="2.86436">
        <ele>1127.5999755859</ele>
        <time>2013-08-18T13:10:55.000Z</time>
      </trkpt>
      <trkpt lat="45.55693" lon="2.86447">
        <ele>1127.1999511719</ele>
        <time>2013-08-18T13:11:12.000Z</time>
      </trkpt>
      <trkpt lat="45.55675" lon="2.86456">
        <ele>1126.1999511719</ele>
        <time>2013-08-18T13:11:31.000Z</time>
      </trkpt>
      <trkpt lat="45.55658" lon="2.86465">
        <ele>1125.4000244141</ele>
        <time>2013-08-18T13:11:49.000Z</time>
      </trkpt>
      <trkpt lat="45.55654" lon="2.86466">
        <ele>1125.1999511719</ele>
        <time>2013-08-18T13:11:53.000Z</time>
      </trkpt>
      <trkpt lat="45.55647" lon="2.86468">
        <ele>1124.8000488281</ele>
        <time>2013-08-18T13:12:00.000Z</time>
      </trkpt>
      <trkpt lat="45.55642" lon="2.86492">
        <ele>1125.1999511719</ele>
        <time>2013-08-18T13:12:19.000Z</time>
      </trkpt>
      <trkpt lat="45.55648" lon="2.8651">
        <ele>1126.1999511719</ele>
        <time>2013-08-18T13:12:35.000Z</time>
      </trkpt>
      <trkpt lat="45.55649" lon="2.86515">
        <ele>1126.5999755859</ele>
        <time>2013-08-18T13:12:39.000Z</time>
      </trkpt>
      <trkpt lat="45.55655" lon="2.86537">
        <ele>1127.8000488281</ele>
        <time>2013-08-18T13:12:55.000Z</time>
      </trkpt>
      <trkpt lat="45.55665" lon="2.86563">
        <ele>1129.4000244141</ele>
        <time>2013-08-18T13:13:13.000Z</time>
      </trkpt>
      <trkpt lat="45.55674" lon="2.86589">
        <ele>1130.8000488281</ele>
        <time>2013-08-18T13:13:32.000Z</time>
      </trkpt>
      <trkpt lat="45.55679" lon="2.86615">
        <ele>1133.1999511719</ele>
        <time>2013-08-18T13:13:50.000Z</time>
      </trkpt>
      <trkpt lat="45.55678" lon="2.86631">
        <ele>1134.1999511719</ele>
        <time>2013-08-18T13:14:02.000Z</time>
      </trkpt>
      <trkpt lat="45.55677" lon="2.86651">
        <ele>1134.5999755859</ele>
        <time>2013-08-18T13:14:19.000Z</time>
      </trkpt>
      <trkpt lat="45.55676" lon="2.86655">
        <ele>1134.4000244141</ele>
        <time>2013-08-18T13:14:45.000Z</time>
      </trkpt>
      <trkpt lat="45.55676" lon="2.86654">
        <ele>1134.1999511719</ele>
        <time>2013-08-18T13:15:09.000Z</time>
      </trkpt>
      <trkpt lat="45.55674" lon="2.86657">
        <ele>1133.8000488281</ele>
        <time>2013-08-18T13:15:33.000Z</time>
      </trkpt>
      <trkpt lat="45.55674" lon="2.86657">
        <ele>1134</ele>
        <time>2013-08-18T13:15:58.000Z</time>
      </trkpt>
      <trkpt lat="45.55675" lon="2.86657">
        <ele>1134.1999511719</ele>
        <time>2013-08-18T13:16:30.000Z</time>
      </trkpt>
      <trkpt lat="45.55675" lon="2.86657">
        <ele>1134.1999511719</ele>
        <time>2013-08-18T13:16:58.000Z</time>
      </trkpt>
      <trkpt lat="45.55673" lon="2.86664">
        <ele>1133.8000488281</ele>
        <time>2013-08-18T13:17:05.000Z</time>
      </trkpt>
      <trkpt lat="45.55659" lon="2.86692">
        <ele>1132</ele>
        <time>2013-08-18T13:17:26.000Z</time>
      </trkpt>
      <trkpt lat="45.55655" lon="2.86714">
        <ele>1132</ele>
        <time>2013-08-18T13:17:41.000Z</time>
      </trkpt>
      <trkpt lat="45.55647" lon="2.86739">
        <ele>1131.5999755859</ele>
        <time>2013-08-18T13:17:59.000Z</time>
      </trkpt>
      <trkpt lat="45.55637" lon="2.8676">
        <ele>1130.4000244141</ele>
        <time>2013-08-18T13:18:15.000Z</time>
      </trkpt>
      <trkpt lat="45.55631" lon="2.86788">
        <ele>1130</ele>
        <time>2013-08-18T13:18:33.000Z</time>
      </trkpt>
      <trkpt lat="45.55632" lon="2.86821">
        <ele>1130.4000244141</ele>
        <time>2013-08-18T13:18:53.000Z</time>
      </trkpt>
      <trkpt lat="45.55634" lon="2.86853">
        <ele>1130.8000488281</ele>
        <time>2013-08-18T13:19:14.000Z</time>
      </trkpt>
      <trkpt lat="45.55629" lon="2.86887">
        <ele>1129.5999755859</ele>
        <time>2013-08-18T13:19:35.000Z</time>
      </trkpt>
      <trkpt lat="45.55626" lon="2.86915">
        <ele>1128.8000488281</ele>
        <time>2013-08-18T13:19:55.000Z</time>
      </trkpt>
      <trkpt lat="45.55629" lon="2.86937">
        <ele>1128.8000488281</ele>
        <time>2013-08-18T13:20:10.000Z</time>
      </trkpt>
      <trkpt lat="45.55632" lon="2.86944">
        <ele>1129</ele>
        <time>2013-08-18T13:20:18.000Z</time>
      </trkpt>
      <trkpt lat="45.55647" lon="2.86957">
        <ele>1130.1999511719</ele>
        <time>2013-08-18T13:20:36.000Z</time>
      </trkpt>
      <trkpt lat="45.5566" lon="2.86968">
        <ele>1131.4000244141</ele>
        <time>2013-08-18T13:20:50.000Z</time>
      </trkpt>
      <trkpt lat="45.55678" lon="2.86983">
        <ele>1133</ele>
        <time>2013-08-18T13:21:05.000Z</time>
      </trkpt>
      <trkpt lat="45.55694" lon="2.87003">
        <ele>1134.1999511719</ele>
        <time>2013-08-18T13:21:24.000Z</time>
      </trkpt>
      <trkpt lat="45.55711" lon="2.87024">
        <ele>1135.8000488281</ele>
        <time>2013-08-18T13:21:44.000Z</time>
      </trkpt>
      <trkpt lat="45.55726" lon="2.87041">
        <ele>1136.4000244141</ele>
        <time>2013-08-18T13:22:02.000Z</time>
      </trkpt>
      <trkpt lat="45.55737" lon="2.87056">
        <ele>1136.5999755859</ele>
        <time>2013-08-18T13:22:19.000Z</time>
      </trkpt>
      <trkpt lat="45.55753" lon="2.87072">
        <ele>1136.5999755859</ele>
        <time>2013-08-18T13:22:37.000Z</time>
      </trkpt>
      <trkpt lat="45.55758" lon="2.87078">
        <ele>1136.8000488281</ele>
        <time>2013-08-18T13:22:44.000Z</time>
      </trkpt>
      <trkpt lat="45.55776" lon="2.87098">
        <ele>1136.8000488281</ele>
        <time>2013-08-18T13:23:03.000Z</time>
      </trkpt>
      <trkpt lat="45.55792" lon="2.87117">
        <ele>1137</ele>
        <time>2013-08-18T13:23:21.000Z</time>
      </trkpt>
      <trkpt lat="45.55808" lon="2.87135">
        <ele>1136.8000488281</ele>
        <time>2013-08-18T13:23:40.000Z</time>
      </trkpt>
      <trkpt lat="45.55809" lon="2.87136">
        <ele>1136.8000488281</ele>
        <time>2013-08-18T13:23:41.000Z</time>
      </trkpt>
      <trkpt lat="45.55812" lon="2.87142">
        <ele>1136.5999755859</ele>
        <time>2013-08-18T13:23:59.000Z</time>
      </trkpt>
      <trkpt lat="45.55817" lon="2.87159">
        <ele>1136.1999511719</ele>
        <time>2013-08-18T13:24:12.000Z</time>
      </trkpt>
      <trkpt lat="45.55823" lon="2.87185">
        <ele>1135.8000488281</ele>
        <time>2013-08-18T13:24:30.000Z</time>
      </trkpt>
      <trkpt lat="45.55827" lon="2.87216">
        <ele>1135.4000244141</ele>
        <time>2013-08-18T13:24:49.000Z</time>
      </trkpt>
      <trkpt lat="45.55828" lon="2.8723">
        <ele>1135</ele>
        <time>2013-08-18T13:24:57.000Z</time>
      </trkpt>
      <trkpt lat="45.55835" lon="2.87257">
        <ele>1134.1999511719</ele>
        <time>2013-08-18T13:25:16.000Z</time>
      </trkpt>
      <trkpt lat="45.55837" lon="2.87269">
        <ele>1134.5999755859</ele>
        <time>2013-08-18T13:25:24.000Z</time>
      </trkpt>
      <trkpt lat="45.55853" lon="2.87292">
        <ele>1135.8000488281</ele>
        <time>2013-08-18T13:25:46.000Z</time>
      </trkpt>
      <trkpt lat="45.55867" lon="2.87313">
        <ele>1136.8000488281</ele>
        <time>2013-08-18T13:26:03.000Z</time>
      </trkpt>
      <trkpt lat="45.55879" lon="2.87337">
        <ele>1137.5999755859</ele>
        <time>2013-08-18T13:26:20.000Z</time>
      </trkpt>
      <trkpt lat="45.55892" lon="2.8736">
        <ele>1138.1999511719</ele>
        <time>2013-08-18T13:26:38.000Z</time>
      </trkpt>
      <trkpt lat="45.55898" lon="2.87387">
        <ele>1138</ele>
        <time>2013-08-18T13:26:55.000Z</time>
      </trkpt>
      <trkpt lat="45.55898" lon="2.8742">
        <ele>1136.8000488281</ele>
        <time>2013-08-18T13:27:14.000Z</time>
      </trkpt>
      <trkpt lat="45.55897" lon="2.87431">
        <ele>1135.5999755859</ele>
        <time>2013-08-18T13:27:28.000Z</time>
      </trkpt>
      <trkpt lat="45.55896" lon="2.87442">
        <ele>1134.4000244141</ele>
        <time>2013-08-18T13:27:35.000Z</time>
      </trkpt>
      <trkpt lat="45.55901" lon="2.87466">
        <ele>1132.5999755859</ele>
        <time>2013-08-18T13:27:55.000Z</time>
      </trkpt>
      <trkpt lat="45.55906" lon="2.87479">
        <ele>1132</ele>
        <time>2013-08-18T13:28:12.000Z</time>
      </trkpt>
      <trkpt lat="45.55911" lon="2.87494">
        <ele>1131</ele>
        <time>2013-08-18T13:28:29.000Z</time>
      </trkpt>
      <trkpt lat="45.55917" lon="2.87515">
        <ele>1129.5999755859</ele>
        <time>2013-08-18T13:28:46.000Z</time>
      </trkpt>
      <trkpt lat="45.55925" lon="2.87539">
        <ele>1128.1999511719</ele>
        <time>2013-08-18T13:29:04.000Z</time>
      </trkpt>
      <trkpt lat="45.55933" lon="2.87556">
        <ele>1127.4000244141</ele>
        <time>2013-08-18T13:29:20.000Z</time>
      </trkpt>
      <trkpt lat="45.55946" lon="2.8758">
        <ele>1126.8000488281</ele>
        <time>2013-08-18T13:29:39.000Z</time>
      </trkpt>
      <trkpt lat="45.5596" lon="2.87595">
        <ele>1126.4000244141</ele>
        <time>2013-08-18T13:29:57.000Z</time>
      </trkpt>
      <trkpt lat="45.55981" lon="2.87602">
        <ele>1126.4000244141</ele>
        <time>2013-08-18T13:30:16.000Z</time>
      </trkpt>
      <trkpt lat="45.55992" lon="2.87608">
        <ele>1125.5999755859</ele>
        <time>2013-08-18T13:30:31.000Z</time>
      </trkpt>
      <trkpt lat="45.56008" lon="2.87617">
        <ele>1124.5999755859</ele>
        <time>2013-08-18T13:30:50.000Z</time>
      </trkpt>
      <trkpt lat="45.56011" lon="2.87624">
        <ele>1123.5999755859</ele>
        <time>2013-08-18T13:31:07.000Z</time>
      </trkpt>
      <trkpt lat="45.56016" lon="2.87638">
        <ele>1121.5999755859</ele>
        <time>2013-08-18T13:31:23.000Z</time>
      </trkpt>
      <trkpt lat="45.56023" lon="2.87657">
        <ele>1118.8000488281</ele>
        <time>2013-08-18T13:31:36.000Z</time>
      </trkpt>
      <trkpt lat="45.56032" lon="2.87686">
        <ele>1115.4000244141</ele>
        <time>2013-08-18T13:31:54.000Z</time>
      </trkpt>
      <trkpt lat="45.56038" lon="2.87707">
        <ele>1113.1999511719</ele>
        <time>2013-08-18T13:32:12.000Z</time>
      </trkpt>
      <trkpt lat="45.56039" lon="2.87711">
        <ele>1112.8000488281</ele>
        <time>2013-08-18T13:32:14.000Z</time>
      </trkpt>
      <trkpt lat="45.56039" lon="2.87715">
        <ele>1112.4000244141</ele>
        <time>2013-08-18T13:32:17.000Z</time>
      </trkpt>
      <trkpt lat="45.56041" lon="2.87719">
        <ele>1112</ele>
        <time>2013-08-18T13:32:20.000Z</time>
      </trkpt>
      <trkpt lat="45.56042" lon="2.87724">
        <ele>1111.4000244141</ele>
        <time>2013-08-18T13:32:23.000Z</time>
      </trkpt>
      <trkpt lat="45.56047" lon="2.87751">
        <ele>1108.5999755859</ele>
        <time>2013-08-18T13:32:41.000Z</time>
      </trkpt>
      <trkpt lat="45.56054" lon="2.87778">
        <ele>1107.1999511719</ele>
        <time>2013-08-18T13:32:59.000Z</time>
      </trkpt>
      <trkpt lat="45.56061" lon="2.87801">
        <ele>1107</ele>
        <time>2013-08-18T13:33:17.000Z</time>
      </trkpt>
      <trkpt lat="45.56062" lon="2.87807">
        <ele>1107</ele>
        <time>2013-08-18T13:33:36.000Z</time>
      </trkpt>
      <trkpt lat="45.56062" lon="2.87808">
        <ele>1106.8000488281</ele>
        <time>2013-08-18T13:34:04.000Z</time>
      </trkpt>
      <trkpt lat="45.56061" lon="2.87804">
        <ele>1106.8000488281</ele>
        <time>2013-08-18T13:34:31.000Z</time>
      </trkpt>
      <trkpt lat="45.56059" lon="2.87801">
        <ele>1106.8000488281</ele>
        <time>2013-08-18T13:34:34.000Z</time>
      </trkpt>
      <trkpt lat="45.56057" lon="2.87793">
        <ele>1106.8000488281</ele>
        <time>2013-08-18T13:34:48.000Z</time>
      </trkpt>
      <trkpt lat="45.56057" lon="2.87792">
        <ele>1107</ele>
        <time>2013-08-18T13:35:21.000Z</time>
      </trkpt>
      <trkpt lat="45.56053" lon="2.87779">
        <ele>1107</ele>
        <time>2013-08-18T13:35:38.000Z</time>
      </trkpt>
      <trkpt lat="45.56053" lon="2.87774">
        <ele>1107.1999511719</ele>
        <time>2013-08-18T13:35:42.000Z</time>
      </trkpt>
      <trkpt lat="45.56046" lon="2.87744">
        <ele>1109.1999511719</ele>
        <time>2013-08-18T13:36:03.000Z</time>
      </trkpt>
      <trkpt lat="45.5604" lon="2.87718">
        <ele>1112</ele>
        <time>2013-08-18T13:36:22.000Z</time>
      </trkpt>
      <trkpt lat="45.56034" lon="2.87697">
        <ele>1114.1999511719</ele>
        <time>2013-08-18T13:36:38.000Z</time>
      </trkpt>
      <trkpt lat="45.56027" lon="2.87671">
        <ele>1117</ele>
        <time>2013-08-18T13:36:56.000Z</time>
      </trkpt>
      <trkpt lat="45.5602" lon="2.87649">
        <ele>1120</ele>
        <time>2013-08-18T13:37:12.000Z</time>
      </trkpt>
      <trkpt lat="45.56013" lon="2.87634">
        <ele>1122.1999511719</ele>
        <time>2013-08-18T13:37:31.000Z</time>
      </trkpt>
      <trkpt lat="45.56018" lon="2.87625">
        <ele>1123.4000244141</ele>
        <time>2013-08-18T13:37:44.000Z</time>
      </trkpt>
      <trkpt lat="45.56019" lon="2.87627">
        <ele>1123.1999511719</ele>
        <time>2013-08-18T13:37:46.000Z</time>
      </trkpt>
      <trkpt lat="45.56033" lon="2.87642">
        <ele>1121.1999511719</ele>
        <time>2013-08-18T13:38:04.000Z</time>
      </trkpt>
      <trkpt lat="45.56048" lon="2.8766">
        <ele>1118.8000488281</ele>
        <time>2013-08-18T13:38:22.000Z</time>
      </trkpt>
      <trkpt lat="45.56053" lon="2.87667">
        <ele>1118</ele>
        <time>2013-08-18T13:38:40.000Z</time>
      </trkpt>
      <trkpt lat="45.56054" lon="2.87668">
        <ele>1117.8000488281</ele>
        <time>2013-08-18T13:39:00.000Z</time>
      </trkpt>
      <trkpt lat="45.56059" lon="2.87669">
        <ele>1117.8000488281</ele>
        <time>2013-08-18T13:39:06.000Z</time>
      </trkpt>
      <trkpt lat="45.56087" lon="2.87671">
        <ele>1118.5999755859</ele>
        <time>2013-08-18T13:39:31.000Z</time>
      </trkpt>
      <trkpt lat="45.56106" lon="2.87666">
        <ele>1120</ele>
        <time>2013-08-18T13:39:49.000Z</time>
      </trkpt>
      <trkpt lat="45.56111" lon="2.87658">
        <ele>1121.4000244141</ele>
        <time>2013-08-18T13:39:59.000Z</time>
      </trkpt>
      <trkpt lat="45.56121" lon="2.87637">
        <ele>1122</ele>
        <time>2013-08-18T13:40:19.000Z</time>
      </trkpt>
      <trkpt lat="45.56126" lon="2.87627">
        <ele>1121.8000488281</ele>
        <time>2013-08-18T13:40:40.000Z</time>
      </trkpt>
      <trkpt lat="45.56142" lon="2.87609">
        <ele>1122.5999755859</ele>
        <time>2013-08-18T13:40:58.000Z</time>
      </trkpt>
      <trkpt lat="45.56151" lon="2.87607">
        <ele>1123.8000488281</ele>
        <time>2013-08-18T13:41:14.000Z</time>
      </trkpt>
      <trkpt lat="45.56154" lon="2.87606">
        <ele>1124</ele>
        <time>2013-08-18T13:41:31.000Z</time>
      </trkpt>
      <trkpt lat="45.56155" lon="2.87607">
        <ele>1124.1999511719</ele>
        <time>2013-08-18T13:41:33.000Z</time>
      </trkpt>
      <trkpt lat="45.56167" lon="2.87626">
        <ele>1125.4000244141</ele>
        <time>2013-08-18T13:41:50.000Z</time>
      </trkpt>
      <trkpt lat="45.56167" lon="2.8763">
        <ele>1125.4000244141</ele>
        <time>2013-08-18T13:41:53.000Z</time>
      </trkpt>
      <trkpt lat="45.56163" lon="2.87655">
        <ele>1124.1999511719</ele>
        <time>2013-08-18T13:42:10.000Z</time>
      </trkpt>
      <trkpt lat="45.56155" lon="2.87679">
        <ele>1123</ele>
        <time>2013-08-18T13:42:27.000Z</time>
      </trkpt>
      <trkpt lat="45.56148" lon="2.87709">
        <ele>1122.5999755859</ele>
        <time>2013-08-18T13:42:48.000Z</time>
      </trkpt>
      <trkpt lat="45.56147" lon="2.87713">
        <ele>1122.4000244141</ele>
        <time>2013-08-18T13:42:51.000Z</time>
      </trkpt>
      <trkpt lat="45.56147" lon="2.87721">
        <ele>1122.5999755859</ele>
        <time>2013-08-18T13:43:08.000Z</time>
      </trkpt>
      <trkpt lat="45.56146" lon="2.87743">
        <ele>1122.8000488281</ele>
        <time>2013-08-18T13:43:25.000Z</time>
      </trkpt>
      <trkpt lat="45.5615" lon="2.87773">
        <ele>1122.4000244141</ele>
        <time>2013-08-18T13:43:47.000Z</time>
      </trkpt>
      <trkpt lat="45.5615" lon="2.87775">
        <ele>1122.4000244141</ele>
        <time>2013-08-18T13:43:48.000Z</time>
      </trkpt>
      <trkpt lat="45.56157" lon="2.87803">
        <ele>1122.1999511719</ele>
        <time>2013-08-18T13:44:07.000Z</time>
      </trkpt>
      <trkpt lat="45.56167" lon="2.87831">
        <ele>1122.5999755859</ele>
        <time>2013-08-18T13:44:26.000Z</time>
      </trkpt>
      <trkpt lat="45.56167" lon="2.87833">
        <ele>1122.5999755859</ele>
        <time>2013-08-18T13:44:27.000Z</time>
      </trkpt>
      <trkpt lat="45.5618" lon="2.87858">
        <ele>1122.1999511719</ele>
        <time>2013-08-18T13:44:47.000Z</time>
      </trkpt>
      <trkpt lat="45.56193" lon="2.87876">
        <ele>1121.8000488281</ele>
        <time>2013-08-18T13:45:07.000Z</time>
      </trkpt>
      <trkpt lat="45.56207" lon="2.87891">
        <ele>1122</ele>
        <time>2013-08-18T13:45:25.000Z</time>
      </trkpt>
      <trkpt lat="45.56223" lon="2.87907">
        <ele>1121.8000488281</ele>
        <time>2013-08-18T13:45:43.000Z</time>
      </trkpt>
      <trkpt lat="45.5624" lon="2.87927">
        <ele>1119.4000244141</ele>
        <time>2013-08-18T13:46:02.000Z</time>
      </trkpt>
      <trkpt lat="45.56259" lon="2.8794">
        <ele>1116</ele>
        <time>2013-08-18T13:46:19.000Z</time>
      </trkpt>
      <trkpt lat="45.56271" lon="2.87944">
        <ele>1114.8000488281</ele>
        <time>2013-08-18T13:46:34.000Z</time>
      </trkpt>
      <trkpt lat="45.56285" lon="2.87947">
        <ele>1114.4000244141</ele>
        <time>2013-08-18T13:46:51.000Z</time>
      </trkpt>
      <trkpt lat="45.56286" lon="2.87949">
        <ele>1114</ele>
        <time>2013-08-18T13:47:09.000Z</time>
      </trkpt>
      <trkpt lat="45.56295" lon="2.87946">
        <ele>1115</ele>
        <time>2013-08-18T13:47:33.000Z</time>
      </trkpt>
      <trkpt lat="45.56304" lon="2.87936">
        <ele>1117.8000488281</ele>
        <time>2013-08-18T13:47:52.000Z</time>
      </trkpt>
      <trkpt lat="45.56321" lon="2.87913">
        <ele>1118.1999511719</ele>
        <time>2013-08-18T13:48:10.000Z</time>
      </trkpt>
      <trkpt lat="45.5634" lon="2.87883">
        <ele>1116</ele>
        <time>2013-08-18T13:48:31.000Z</time>
      </trkpt>
      <trkpt lat="45.56357" lon="2.87865">
        <ele>1115.1999511719</ele>
        <time>2013-08-18T13:48:49.000Z</time>
      </trkpt>
      <trkpt lat="45.56377" lon="2.87849">
        <ele>1114</ele>
        <time>2013-08-18T13:49:08.000Z</time>
      </trkpt>
      <trkpt lat="45.56391" lon="2.87835">
        <ele>1113</ele>
        <time>2013-08-18T13:49:26.000Z</time>
      </trkpt>
      <trkpt lat="45.56402" lon="2.87815">
        <ele>1112</ele>
        <time>2013-08-18T13:49:44.000Z</time>
      </trkpt>
      <trkpt lat="45.56411" lon="2.87792">
        <ele>1111.4000244141</ele>
        <time>2013-08-18T13:50:04.000Z</time>
      </trkpt>
      <trkpt lat="45.56418" lon="2.87773">
        <ele>1112.5999755859</ele>
        <time>2013-08-18T13:50:20.000Z</time>
      </trkpt>
      <trkpt lat="45.5643" lon="2.87743">
        <ele>1114.1999511719</ele>
        <time>2013-08-18T13:50:39.000Z</time>
      </trkpt>
      <trkpt lat="45.56431" lon="2.87742">
        <ele>1114</ele>
        <time>2013-08-18T13:50:40.000Z</time>
      </trkpt>
      <trkpt lat="45.56435" lon="2.87731">
        <ele>1114</ele>
        <time>2013-08-18T13:50:46.000Z</time>
      </trkpt>
      <trkpt lat="45.56452" lon="2.87709">
        <ele>1115</ele>
        <time>2013-08-18T13:51:04.000Z</time>
      </trkpt>
      <trkpt lat="45.56474" lon="2.87701">
        <ele>1115.1999511719</ele>
        <time>2013-08-18T13:51:23.000Z</time>
      </trkpt>
      <trkpt lat="45.56479" lon="2.87702">
        <ele>1115</ele>
        <time>2013-08-18T13:51:27.000Z</time>
      </trkpt>
      <trkpt lat="45.56484" lon="2.877">
        <ele>1115</ele>
        <time>2013-08-18T13:51:45.000Z</time>
      </trkpt>
      <trkpt lat="45.56494" lon="2.87698">
        <ele>1115</ele>
        <time>2013-08-18T13:52:01.000Z</time>
      </trkpt>
      <trkpt lat="45.56514" lon="2.87695">
        <ele>1114.8000488281</ele>
        <time>2013-08-18T13:52:21.000Z</time>
      </trkpt>
      <trkpt lat="45.56531" lon="2.87695">
        <ele>1114.4000244141</ele>
        <time>2013-08-18T13:52:39.000Z</time>
      </trkpt>
      <trkpt lat="45.56549" lon="2.87689">
        <ele>1114.5999755859</ele>
        <time>2013-08-18T13:52:56.000Z</time>
      </trkpt>
      <trkpt lat="45.56556" lon="2.87685">
        <ele>1115.1999511719</ele>
        <time>2013-08-18T13:53:11.000Z</time>
      </trkpt>
      <trkpt lat="45.56559" lon="2.87686">
        <ele>1115.1999511719</ele>
        <time>2013-08-18T13:53:17.000Z</time>
      </trkpt>
      <trkpt lat="45.56573" lon="2.87685">
        <ele>1116.1999511719</ele>
        <time>2013-08-18T13:53:34.000Z</time>
      </trkpt>
      <trkpt lat="45.56577" lon="2.87683">
        <ele>1116.5999755859</ele>
        <time>2013-08-18T13:53:58.000Z</time>
      </trkpt>
      <trkpt lat="45.56583" lon="2.87681">
        <ele>1117.1999511719</ele>
        <time>2013-08-18T13:54:03.000Z</time>
      </trkpt>
      <trkpt lat="45.56603" lon="2.87684">
        <ele>1118</ele>
        <time>2013-08-18T13:54:21.000Z</time>
      </trkpt>
      <trkpt lat="45.56625" lon="2.87694">
        <ele>1118.4000244141</ele>
        <time>2013-08-18T13:54:39.000Z</time>
      </trkpt>
      <trkpt lat="45.56628" lon="2.87698">
        <ele>1118.1999511719</ele>
        <time>2013-08-18T13:54:44.000Z</time>
      </trkpt>
      <trkpt lat="45.56634" lon="2.8771">
        <ele>1117.4000244141</ele>
        <time>2013-08-18T13:54:55.000Z</time>
      </trkpt>
      <trkpt lat="45.56639" lon="2.87732">
        <ele>1115.5999755859</ele>
        <time>2013-08-18T13:55:13.000Z</time>
      </trkpt>
      <trkpt lat="45.56641" lon="2.87745">
        <ele>1114.5999755859</ele>
        <time>2013-08-18T13:55:21.000Z</time>
      </trkpt>
      <trkpt lat="45.56641" lon="2.8777">
        <ele>1112.4000244141</ele>
        <time>2013-08-18T13:55:39.000Z</time>
      </trkpt>
      <trkpt lat="45.56644" lon="2.87794">
        <ele>1111</ele>
        <time>2013-08-18T13:55:58.000Z</time>
      </trkpt>
      <trkpt lat="45.56646" lon="2.87809">
        <ele>1110</ele>
        <time>2013-08-18T13:56:11.000Z</time>
      </trkpt>
      <trkpt lat="45.5665" lon="2.87833">
        <ele>1108.5999755859</ele>
        <time>2013-08-18T13:56:26.000Z</time>
      </trkpt>
      <trkpt lat="45.56655" lon="2.87858">
        <ele>1106.8000488281</ele>
        <time>2013-08-18T13:56:44.000Z</time>
      </trkpt>
      <trkpt lat="45.56658" lon="2.87882">
        <ele>1105</ele>
        <time>2013-08-18T13:57:04.000Z</time>
      </trkpt>
      <trkpt lat="45.56662" lon="2.87907">
        <ele>1103.4000244141</ele>
        <time>2013-08-18T13:57:23.000Z</time>
      </trkpt>
      <trkpt lat="45.56667" lon="2.87938">
        <ele>1101.1999511719</ele>
        <time>2013-08-18T13:57:42.000Z</time>
      </trkpt>
      <trkpt lat="45.56671" lon="2.87959">
        <ele>1099.4000244141</ele>
        <time>2013-08-18T13:57:59.000Z</time>
      </trkpt>
      <trkpt lat="45.56672" lon="2.87986">
        <ele>1097.5999755859</ele>
        <time>2013-08-18T13:58:16.000Z</time>
      </trkpt>
      <trkpt lat="45.56674" lon="2.87994">
        <ele>1097.1999511719</ele>
        <time>2013-08-18T13:58:31.000Z</time>
      </trkpt>
      <trkpt lat="45.56673" lon="2.87999">
        <ele>1097</ele>
        <time>2013-08-18T13:58:54.000Z</time>
      </trkpt>
      <trkpt lat="45.56673" lon="2.88002">
        <ele>1096.8000488281</ele>
        <time>2013-08-18T13:59:19.000Z</time>
      </trkpt>
      <trkpt lat="45.56668" lon="2.88011">
        <ele>1095.8000488281</ele>
        <time>2013-08-18T13:59:33.000Z</time>
      </trkpt>
      <trkpt lat="45.56662" lon="2.88031">
        <ele>1092.8000488281</ele>
        <time>2013-08-18T13:59:50.000Z</time>
      </trkpt>
      <trkpt lat="45.56658" lon="2.88043">
        <ele>1092.1999511719</ele>
        <time>2013-08-18T14:00:06.000Z</time>
      </trkpt>
      <trkpt lat="45.56657" lon="2.8805">
        <ele>1091.8000488281</ele>
        <time>2013-08-18T14:00:27.000Z</time>
      </trkpt>
      <trkpt lat="45.56654" lon="2.88072">
        <ele>1090.5999755859</ele>
        <time>2013-08-18T14:00:43.000Z</time>
      </trkpt>
      <trkpt lat="45.56651" lon="2.88094">
        <ele>1089.4000244141</ele>
        <time>2013-08-18T14:00:59.000Z</time>
      </trkpt>
      <trkpt lat="45.56646" lon="2.88121">
        <ele>1087.1999511719</ele>
        <time>2013-08-18T14:01:14.000Z</time>
      </trkpt>
      <trkpt lat="45.56644" lon="2.88134">
        <ele>1086</ele>
        <time>2013-08-18T14:01:30.000Z</time>
      </trkpt>
      <trkpt lat="45.56636" lon="2.88161">
        <ele>1084</ele>
        <time>2013-08-18T14:01:49.000Z</time>
      </trkpt>
      <trkpt lat="45.56629" lon="2.88176">
        <ele>1082.8000488281</ele>
        <time>2013-08-18T14:02:05.000Z</time>
      </trkpt>
      <trkpt lat="45.5663" lon="2.88175">
        <ele>1082.8000488281</ele>
        <time>2013-08-18T14:02:21.000Z</time>
      </trkpt>
      <trkpt lat="45.5663" lon="2.8818">
        <ele>1082.1999511719</ele>
        <time>2013-08-18T14:02:40.000Z</time>
      </trkpt>
      <trkpt lat="45.56629" lon="2.88183">
        <ele>1082</ele>
        <time>2013-08-18T14:02:42.000Z</time>
      </trkpt>
      <trkpt lat="45.56611" lon="2.88199">
        <ele>1080.1999511719</ele>
        <time>2013-08-18T14:03:02.000Z</time>
      </trkpt>
      <trkpt lat="45.56602" lon="2.88208">
        <ele>1079.1999511719</ele>
        <time>2013-08-18T14:03:14.000Z</time>
      </trkpt>
      <trkpt lat="45.56588" lon="2.88227">
        <ele>1078.1999511719</ele>
        <time>2013-08-18T14:03:34.000Z</time>
      </trkpt>
      <trkpt lat="45.56583" lon="2.88253">
        <ele>1077.1999511719</ele>
        <time>2013-08-18T14:03:53.000Z</time>
      </trkpt>
      <trkpt lat="45.56585" lon="2.88276">
        <ele>1076</ele>
        <time>2013-08-18T14:04:10.000Z</time>
      </trkpt>
      <trkpt lat="45.56591" lon="2.88291">
        <ele>1075</ele>
        <time>2013-08-18T14:04:21.000Z</time>
      </trkpt>
      <trkpt lat="45.56605" lon="2.88318">
        <ele>1073.1999511719</ele>
        <time>2013-08-18T14:04:42.000Z</time>
      </trkpt>
      <trkpt lat="45.5662" lon="2.88337">
        <ele>1071.5999755859</ele>
        <time>2013-08-18T14:05:00.000Z</time>
      </trkpt>
      <trkpt lat="45.56629" lon="2.88352">
        <ele>1070.4000244141</ele>
        <time>2013-08-18T14:05:17.000Z</time>
      </trkpt>
      <trkpt lat="45.56632" lon="2.88369">
        <ele>1069.5999755859</ele>
        <time>2013-08-18T14:05:33.000Z</time>
      </trkpt>
      <trkpt lat="45.56635" lon="2.88393">
        <ele>1068.5999755859</ele>
        <time>2013-08-18T14:05:50.000Z</time>
      </trkpt>
      <trkpt lat="45.5664" lon="2.88417">
        <ele>1067.8000488281</ele>
        <time>2013-08-18T14:06:07.000Z</time>
      </trkpt>
      <trkpt lat="45.56646" lon="2.88443">
        <ele>1065.5999755859</ele>
        <time>2013-08-18T14:06:26.000Z</time>
      </trkpt>
      <trkpt lat="45.56649" lon="2.88464">
        <ele>1063.4000244141</ele>
        <time>2013-08-18T14:06:44.000Z</time>
      </trkpt>
      <trkpt lat="45.56652" lon="2.88474">
        <ele>1062.1999511719</ele>
        <time>2013-08-18T14:06:58.000Z</time>
      </trkpt>
      <trkpt lat="45.56653" lon="2.88476">
        <ele>1062</ele>
        <time>2013-08-18T14:07:19.000Z</time>
      </trkpt>
      <trkpt lat="45.56653" lon="2.88476">
        <ele>1062</ele>
        <time>2013-08-18T14:07:41.000Z</time>
      </trkpt>
      <trkpt lat="45.56653" lon="2.8848">
        <ele>1061.5999755859</ele>
        <time>2013-08-18T14:08:09.000Z</time>
      </trkpt>
      <trkpt lat="45.56653" lon="2.8848">
        <ele>1061.5999755859</ele>
        <time>2013-08-18T14:08:36.000Z</time>
      </trkpt>
      <trkpt lat="45.56656" lon="2.88489">
        <ele>1060.5999755859</ele>
        <time>2013-08-18T14:08:59.000Z</time>
      </trkpt>
      <trkpt lat="45.56661" lon="2.88499">
        <ele>1059.4000244141</ele>
        <time>2013-08-18T14:09:17.000Z</time>
      </trkpt>
      <trkpt lat="45.56666" lon="2.88513">
        <ele>1058</ele>
        <time>2013-08-18T14:09:31.000Z</time>
      </trkpt>
      <trkpt lat="45.56678" lon="2.8853">
        <ele>1056</ele>
        <time>2013-08-18T14:09:46.000Z</time>
      </trkpt>
      <trkpt lat="45.56679" lon="2.88538">
        <ele>1055.1999511719</ele>
        <time>2013-08-18T14:09:55.000Z</time>
      </trkpt>
      <trkpt lat="45.56678" lon="2.8856">
        <ele>1053.8000488281</ele>
        <time>2013-08-18T14:10:12.000Z</time>
      </trkpt>
      <trkpt lat="45.5668" lon="2.88565">
        <ele>1053.4000244141</ele>
        <time>2013-08-18T14:10:17.000Z</time>
      </trkpt>
      <trkpt lat="45.56682" lon="2.8857">
        <ele>1053</ele>
        <time>2013-08-18T14:10:21.000Z</time>
      </trkpt>
      <trkpt lat="45.56688" lon="2.88577">
        <ele>1052.1999511719</ele>
        <time>2013-08-18T14:10:27.000Z</time>
      </trkpt>
      <trkpt lat="45.56694" lon="2.88585">
        <ele>1051.1999511719</ele>
        <time>2013-08-18T14:10:44.000Z</time>
      </trkpt>
      <trkpt lat="45.56703" lon="2.8859">
        <ele>1050.1999511719</ele>
        <time>2013-08-18T14:10:58.000Z</time>
      </trkpt>
      <trkpt lat="45.56704" lon="2.8859">
        <ele>1050.1999511719</ele>
        <time>2013-08-18T14:11:28.000Z</time>
      </trkpt>
      <trkpt lat="45.56709" lon="2.88601">
        <ele>1049.4000244141</ele>
        <time>2013-08-18T14:11:40.000Z</time>
      </trkpt>
      <trkpt lat="45.56709" lon="2.88603">
        <ele>1049.1999511719</ele>
        <time>2013-08-18T14:11:53.000Z</time>
      </trkpt>
      <trkpt lat="45.56712" lon="2.88604">
        <ele>1049</ele>
        <time>2013-08-18T14:12:41.000Z</time>
      </trkpt>
      <trkpt lat="45.56714" lon="2.88607">
        <ele>1048.8000488281</ele>
        <time>2013-08-18T14:13:24.000Z</time>
      </trkpt>
      <trkpt lat="45.56714" lon="2.88609">
        <ele>1048.5999755859</ele>
        <time>2013-08-18T14:13:57.000Z</time>
      </trkpt>
      <trkpt lat="45.56714" lon="2.88608">
        <ele>1048.8000488281</ele>
        <time>2013-08-18T14:14:14.000Z</time>
      </trkpt>
      <trkpt lat="45.56711" lon="2.88618">
        <ele>1048.5999755859</ele>
        <time>2013-08-18T14:14:35.000Z</time>
      </trkpt>
      <trkpt lat="45.56712" lon="2.88625">
        <ele>1048.1999511719</ele>
        <time>2013-08-18T14:14:51.000Z</time>
      </trkpt>
      <trkpt lat="45.56715" lon="2.88635">
        <ele>1047.5999755859</ele>
        <time>2013-08-18T14:15:05.000Z</time>
      </trkpt>
      <trkpt lat="45.56712" lon="2.88655">
        <ele>1047.1999511719</ele>
        <time>2013-08-18T14:15:25.000Z</time>
      </trkpt>
      <trkpt lat="45.56713" lon="2.88691">
        <ele>1044.8000488281</ele>
        <time>2013-08-18T14:15:45.000Z</time>
      </trkpt>
      <trkpt lat="45.56713" lon="2.88717">
        <ele>1042.5999755859</ele>
        <time>2013-08-18T14:16:05.000Z</time>
      </trkpt>
      <trkpt lat="45.56717" lon="2.88739">
        <ele>1040.5999755859</ele>
        <time>2013-08-18T14:16:23.000Z</time>
      </trkpt>
      <trkpt lat="45.56726" lon="2.88767">
        <ele>1040.1999511719</ele>
        <time>2013-08-18T14:16:40.000Z</time>
      </trkpt>
      <trkpt lat="45.56727" lon="2.88769">
        <ele>1040.1999511719</ele>
        <time>2013-08-18T14:16:42.000Z</time>
      </trkpt>
      <trkpt lat="45.5673" lon="2.8878">
        <ele>1039.5999755859</ele>
        <time>2013-08-18T14:16:50.000Z</time>
      </trkpt>
      <trkpt lat="45.56732" lon="2.88786">
        <ele>1039.4000244141</ele>
        <time>2013-08-18T14:16:53.000Z</time>
      </trkpt>
      <trkpt lat="45.56737" lon="2.88806">
        <ele>1038.1999511719</ele>
        <time>2013-08-18T14:17:09.000Z</time>
      </trkpt>
      <trkpt lat="45.56742" lon="2.88825">
        <ele>1036.8000488281</ele>
        <time>2013-08-18T14:17:25.000Z</time>
      </trkpt>
      <trkpt lat="45.56744" lon="2.88835">
        <ele>1036.1999511719</ele>
        <time>2013-08-18T14:17:40.000Z</time>
      </trkpt>
      <trkpt lat="45.56747" lon="2.88847">
        <ele>1036</ele>
        <time>2013-08-18T14:18:11.000Z</time>
      </trkpt>
      <trkpt lat="45.56748" lon="2.88861">
        <ele>1035</ele>
        <time>2013-08-18T14:18:21.000Z</time>
      </trkpt>
      <trkpt lat="45.56749" lon="2.88867">
        <ele>1035</ele>
        <time>2013-08-18T14:18:25.000Z</time>
      </trkpt>
      <trkpt lat="45.56752" lon="2.88892">
        <ele>1033</ele>
        <time>2013-08-18T14:18:44.000Z</time>
      </trkpt>
      <trkpt lat="45.56753" lon="2.88897">
        <ele>1032.5999755859</ele>
        <time>2013-08-18T14:18:48.000Z</time>
      </trkpt>
      <trkpt lat="45.56755" lon="2.88907">
        <ele>1032.4000244141</ele>
        <time>2013-08-18T14:18:55.000Z</time>
      </trkpt>
      <trkpt lat="45.56757" lon="2.88921">
        <ele>1031.4000244141</ele>
        <time>2013-08-18T14:19:04.000Z</time>
      </trkpt>
      <trkpt lat="45.5676" lon="2.88945">
        <ele>1028.5999755859</ele>
        <time>2013-08-18T14:19:22.000Z</time>
      </trkpt>
      <trkpt lat="45.5676" lon="2.88949">
        <ele>1028.4000244141</ele>
        <time>2013-08-18T14:19:37.000Z</time>
      </trkpt>
      <trkpt lat="45.56761" lon="2.88949">
        <ele>1028.4000244141</ele>
        <time>2013-08-18T14:20:03.000Z</time>
      </trkpt>
      <trkpt lat="45.56762" lon="2.88949">
        <ele>1028.8000488281</ele>
        <time>2013-08-18T14:20:20.000Z</time>
      </trkpt>
      <trkpt lat="45.56762" lon="2.8897">
        <ele>1025.8000488281</ele>
        <time>2013-08-18T14:20:37.000Z</time>
      </trkpt>
      <trkpt lat="45.56761" lon="2.89003">
        <ele>1021.799987793</ele>
        <time>2013-08-18T14:20:55.000Z</time>
      </trkpt>
      <trkpt lat="45.56763" lon="2.89016">
        <ele>1019.799987793</ele>
        <time>2013-08-18T14:21:11.000Z</time>
      </trkpt>
      <trkpt lat="45.56762" lon="2.89026">
        <ele>1017.4000244141</ele>
        <time>2013-08-18T14:21:29.000Z</time>
      </trkpt>
      <trkpt lat="45.56759" lon="2.89048">
        <ele>1011.4000244141</ele>
        <time>2013-08-18T14:21:44.000Z</time>
      </trkpt>
      <trkpt lat="45.5676" lon="2.89088">
        <ele>1007.200012207</ele>
        <time>2013-08-18T14:21:56.000Z</time>
      </trkpt>
      <trkpt lat="45.5676" lon="2.89091">
        <ele>1007</ele>
        <time>2013-08-18T14:22:09.000Z</time>
      </trkpt>
      <trkpt lat="45.56762" lon="2.89111">
        <ele>1005.200012207</ele>
        <time>2013-08-18T14:22:26.000Z</time>
      </trkpt>
      <trkpt lat="45.56764" lon="2.89131">
        <ele>1003.4000244141</ele>
        <time>2013-08-18T14:22:43.000Z</time>
      </trkpt>
      <trkpt lat="45.56766" lon="2.89145">
        <ele>1002.4000244141</ele>
        <time>2013-08-18T14:23:01.000Z</time>
      </trkpt>
      <trkpt lat="45.56769" lon="2.89159">
        <ele>1001.4000244141</ele>
        <time>2013-08-18T14:23:12.000Z</time>
      </trkpt>
      <trkpt lat="45.56775" lon="2.8918">
        <ele>999.79998779297</ele>
        <time>2013-08-18T14:23:29.000Z</time>
      </trkpt>
      <trkpt lat="45.56778" lon="2.89191">
        <ele>998.20001220703</ele>
        <time>2013-08-18T14:23:46.000Z</time>
      </trkpt>
      <trkpt lat="45.56783" lon="2.89218">
        <ele>994.40002441406</ele>
        <time>2013-08-18T14:24:05.000Z</time>
      </trkpt>
      <trkpt lat="45.56786" lon="2.89241">
        <ele>991</ele>
        <time>2013-08-18T14:24:24.000Z</time>
      </trkpt>
      <trkpt lat="45.56789" lon="2.89259">
        <ele>987.79998779297</ele>
        <time>2013-08-18T14:24:39.000Z</time>
      </trkpt>
      <trkpt lat="45.5679" lon="2.89263">
        <ele>987</ele>
        <time>2013-08-18T14:24:52.000Z</time>
      </trkpt>
      <trkpt lat="45.56798" lon="2.89279">
        <ele>985.20001220703</ele>
        <time>2013-08-18T14:25:09.000Z</time>
      </trkpt>
      <trkpt lat="45.5681" lon="2.89296">
        <ele>983.59997558594</ele>
        <time>2013-08-18T14:25:27.000Z</time>
      </trkpt>
      <trkpt lat="45.56814" lon="2.89298">
        <ele>983.40002441406</ele>
        <time>2013-08-18T14:25:47.000Z</time>
      </trkpt>
      <trkpt lat="45.56818" lon="2.89303">
        <ele>983</ele>
        <time>2013-08-18T14:26:06.000Z</time>
      </trkpt>
      <trkpt lat="45.56821" lon="2.89307">
        <ele>982.79998779297</ele>
        <time>2013-08-18T14:26:46.000Z</time>
      </trkpt>
      <trkpt lat="45.56824" lon="2.89307">
        <ele>983</ele>
        <time>2013-08-18T14:27:18.000Z</time>
      </trkpt>
      <trkpt lat="45.56828" lon="2.89309">
        <ele>983</ele>
        <time>2013-08-18T14:27:38.000Z</time>
      </trkpt>
      <trkpt lat="45.56832" lon="2.89316">
        <ele>982.20001220703</ele>
        <time>2013-08-18T14:28:01.000Z</time>
      </trkpt>
      <trkpt lat="45.56836" lon="2.89324">
        <ele>981</ele>
        <time>2013-08-18T14:28:28.000Z</time>
      </trkpt>
      <trkpt lat="45.56838" lon="2.89331">
        <ele>979.79998779297</ele>
        <time>2013-08-18T14:28:55.000Z</time>
      </trkpt>
      <trkpt lat="45.56839" lon="2.89332">
        <ele>979.59997558594</ele>
        <time>2013-08-18T14:29:26.000Z</time>
      </trkpt>
      <trkpt lat="45.56841" lon="2.89334">
        <ele>979.59997558594</ele>
        <time>2013-08-18T14:29:51.000Z</time>
      </trkpt>
      <trkpt lat="45.56844" lon="2.89337">
        <ele>979.40002441406</ele>
        <time>2013-08-18T14:30:10.000Z</time>
      </trkpt>
      <trkpt lat="45.56849" lon="2.89345">
        <ele>977.79998779297</ele>
        <time>2013-08-18T14:30:25.000Z</time>
      </trkpt>
      <trkpt lat="45.56862" lon="2.89359">
        <ele>974.79998779297</ele>
        <time>2013-08-18T14:30:46.000Z</time>
      </trkpt>
      <trkpt lat="45.56869" lon="2.89365">
        <ele>974</ele>
        <time>2013-08-18T14:31:02.000Z</time>
      </trkpt>
      <trkpt lat="45.56878" lon="2.8937">
        <ele>973.40002441406</ele>
        <time>2013-08-18T14:31:18.000Z</time>
      </trkpt>
      <trkpt lat="45.56883" lon="2.89372">
        <ele>973.40002441406</ele>
        <time>2013-08-18T14:31:23.000Z</time>
      </trkpt>
      <trkpt lat="45.56891" lon="2.89376">
        <ele>972.79998779297</ele>
        <time>2013-08-18T14:31:37.000Z</time>
      </trkpt>
      <trkpt lat="45.56897" lon="2.89383">
        <ele>970.59997558594</ele>
        <time>2013-08-18T14:31:53.000Z</time>
      </trkpt>
      <trkpt lat="45.56906" lon="2.89387">
        <ele>969.59997558594</ele>
        <time>2013-08-18T14:32:07.000Z</time>
      </trkpt>
      <trkpt lat="45.56917" lon="2.89396">
        <ele>967</ele>
        <time>2013-08-18T14:32:21.000Z</time>
      </trkpt>
      <trkpt lat="45.5693" lon="2.89404">
        <ele>964.79998779297</ele>
        <time>2013-08-18T14:32:38.000Z</time>
      </trkpt>
      <trkpt lat="45.5694" lon="2.89411">
        <ele>962.79998779297</ele>
        <time>2013-08-18T14:32:56.000Z</time>
      </trkpt>
      <trkpt lat="45.56956" lon="2.89422">
        <ele>960</ele>
        <time>2013-08-18T14:33:13.000Z</time>
      </trkpt>
      <trkpt lat="45.56968" lon="2.8942">
        <ele>960.79998779297</ele>
        <time>2013-08-18T14:33:26.000Z</time>
      </trkpt>
      <trkpt lat="45.56976" lon="2.89422">
        <ele>961</ele>
        <time>2013-08-18T14:33:41.000Z</time>
      </trkpt>
      <trkpt lat="45.57" lon="2.89415">
        <ele>964.59997558594</ele>
        <time>2013-08-18T14:33:56.000Z</time>
      </trkpt>
      <trkpt lat="45.57025" lon="2.89422">
        <ele>964.40002441406</ele>
        <time>2013-08-18T14:34:10.000Z</time>
      </trkpt>
      <trkpt lat="45.57031" lon="2.89427">
        <ele>963.40002441406</ele>
        <time>2013-08-18T14:34:20.000Z</time>
      </trkpt>
      <trkpt lat="45.57033" lon="2.89429">
        <ele>963</ele>
        <time>2013-08-18T14:34:22.000Z</time>
      </trkpt>
      <trkpt lat="45.57043" lon="2.89438">
        <ele>961</ele>
        <time>2013-08-18T14:34:32.000Z</time>
      </trkpt>
      <trkpt lat="45.57057" lon="2.89457">
        <ele>956.79998779297</ele>
        <time>2013-08-18T14:34:48.000Z</time>
      </trkpt>
      <trkpt lat="45.57064" lon="2.89472">
        <ele>953.59997558594</ele>
        <time>2013-08-18T14:35:03.000Z</time>
      </trkpt>
      <trkpt lat="45.57076" lon="2.89484">
        <ele>952</ele>
        <time>2013-08-18T14:35:17.000Z</time>
      </trkpt>
      <trkpt lat="45.57091" lon="2.895">
        <ele>949.59997558594</ele>
        <time>2013-08-18T14:35:33.000Z</time>
      </trkpt>
      <trkpt lat="45.5711" lon="2.89521">
        <ele>944.79998779297</ele>
        <time>2013-08-18T14:35:50.000Z</time>
      </trkpt>
      <trkpt lat="45.57123" lon="2.8953">
        <ele>942.79998779297</ele>
        <time>2013-08-18T14:36:07.000Z</time>
      </trkpt>
      <trkpt lat="45.57136" lon="2.89539">
        <ele>940.59997558594</ele>
        <time>2013-08-18T14:36:22.000Z</time>
      </trkpt>
      <trkpt lat="45.57154" lon="2.89545">
        <ele>936</ele>
        <time>2013-08-18T14:36:38.000Z</time>
      </trkpt>
      <trkpt lat="45.57167" lon="2.89548">
        <ele>933</ele>
        <time>2013-08-18T14:36:54.000Z</time>
      </trkpt>
      <trkpt lat="45.5717" lon="2.89545">
        <ele>933.59997558594</ele>
        <time>2013-08-18T14:37:30.000Z</time>
      </trkpt>
      <trkpt lat="45.57171" lon="2.89545">
        <ele>933.59997558594</ele>
        <time>2013-08-18T14:38:05.000Z</time>
      </trkpt>
      <trkpt lat="45.5718" lon="2.89547">
        <ele>931.40002441406</ele>
        <time>2013-08-18T14:38:33.000Z</time>
      </trkpt>
      <trkpt lat="45.5719" lon="2.8955">
        <ele>928.40002441406</ele>
        <time>2013-08-18T14:38:49.000Z</time>
      </trkpt>
      <trkpt lat="45.57203" lon="2.89554">
        <ele>925</ele>
        <time>2013-08-18T14:39:05.000Z</time>
      </trkpt>
      <trkpt lat="45.57206" lon="2.89552">
        <ele>925.20001220703</ele>
        <time>2013-08-18T14:39:20.000Z</time>
      </trkpt>
      <trkpt lat="45.5721" lon="2.89551">
        <ele>925</ele>
        <time>2013-08-18T14:39:42.000Z</time>
      </trkpt>
      <trkpt lat="45.5721" lon="2.89551">
        <ele>925</ele>
        <time>2013-08-18T14:40:00.000Z</time>
      </trkpt>
      <trkpt lat="45.57209" lon="2.8955">
        <ele>925.79998779297</ele>
        <time>2013-08-18T14:40:23.000Z</time>
      </trkpt>
      <trkpt lat="45.5721" lon="2.89551">
        <ele>925.20001220703</ele>
        <time>2013-08-18T14:40:51.000Z</time>
      </trkpt>
      <trkpt lat="45.5721" lon="2.89552">
        <ele>924.79998779297</ele>
        <time>2013-08-18T14:41:12.000Z</time>
      </trkpt>
      <trkpt lat="45.57211" lon="2.89549">
        <ele>925.59997558594</ele>
        <time>2013-08-18T14:41:48.000Z</time>
      </trkpt>
      <trkpt lat="45.57212" lon="2.8955">
        <ele>925</ele>
        <time>2013-08-18T14:42:03.000Z</time>
      </trkpt>
      <trkpt lat="45.57213" lon="2.89551">
        <ele>924.59997558594</ele>
        <time>2013-08-18T14:42:32.000Z</time>
      </trkpt>
      <trkpt lat="45.57213" lon="2.8955">
        <ele>925.20001220703</ele>
        <time>2013-08-18T14:42:57.000Z</time>
      </trkpt>
      <trkpt lat="45.57214" lon="2.89548">
        <ele>925.79998779297</ele>
        <time>2013-08-18T14:43:10.000Z</time>
      </trkpt>
      <trkpt lat="45.57214" lon="2.89549">
        <ele>925.20001220703</ele>
        <time>2013-08-18T14:43:35.000Z</time>
      </trkpt>
      <trkpt lat="45.57215" lon="2.89549">
        <ele>925.20001220703</ele>
        <time>2013-08-18T14:43:55.000Z</time>
      </trkpt>
      <trkpt lat="45.57214" lon="2.89549">
        <ele>925.20001220703</ele>
        <time>2013-08-18T14:44:18.000Z</time>
      </trkpt>
      <trkpt lat="45.57214" lon="2.89549">
        <ele>925.40002441406</ele>
        <time>2013-08-18T14:44:35.000Z</time>
      </trkpt>
      <trkpt lat="45.57214" lon="2.89547">
        <ele>926.20001220703</ele>
        <time>2013-08-18T14:44:54.000Z</time>
      </trkpt>
      <trkpt lat="45.57214" lon="2.89548">
        <ele>925.79998779297</ele>
        <time>2013-08-18T14:45:13.000Z</time>
      </trkpt>
      <trkpt lat="45.57213" lon="2.89549">
        <ele>925.20001220703</ele>
        <time>2013-08-18T14:45:46.000Z</time>
      </trkpt>
      <trkpt lat="45.5722" lon="2.89549">
        <ele>924.79998779297</ele>
        <time>2013-08-18T14:46:03.000Z</time>
      </trkpt>
      <trkpt lat="45.57225" lon="2.89542">
        <ele>927.59997558594</ele>
        <time>2013-08-18T14:46:16.000Z</time>
      </trkpt>
      <trkpt lat="45.57226" lon="2.89539">
        <ele>928.79998779297</ele>
        <time>2013-08-18T14:46:19.000Z</time>
      </trkpt>
      <trkpt lat="45.57228" lon="2.8953">
        <ele>932.40002441406</ele>
        <time>2013-08-18T14:46:31.000Z</time>
      </trkpt>
      <trkpt lat="45.57228" lon="2.89526">
        <ele>934</ele>
        <time>2013-08-18T14:46:43.000Z</time>
      </trkpt>
      <trkpt lat="45.57228" lon="2.89519">
        <ele>936.59997558594</ele>
        <time>2013-08-18T14:46:58.000Z</time>
      </trkpt>
      <trkpt lat="45.57227" lon="2.89519">
        <ele>937</ele>
        <time>2013-08-18T14:47:20.000Z</time>
      </trkpt>
      <trkpt lat="45.57227" lon="2.89518">
        <ele>937.20001220703</ele>
        <time>2013-08-18T14:47:38.000Z</time>
      </trkpt>
      <trkpt lat="45.57231" lon="2.8951">
        <ele>937.59997558594</ele>
        <time>2013-08-18T14:47:51.000Z</time>
      </trkpt>
      <trkpt lat="45.57243" lon="2.89509">
        <ele>933.79998779297</ele>
        <time>2013-08-18T14:48:05.000Z</time>
      </trkpt>
      <trkpt lat="45.57249" lon="2.89507">
        <ele>932.20001220703</ele>
        <time>2013-08-18T14:48:18.000Z</time>
      </trkpt>
      <trkpt lat="45.57261" lon="2.89506">
        <ele>928.79998779297</ele>
        <time>2013-08-18T14:48:30.000Z</time>
      </trkpt>
      <trkpt lat="45.57275" lon="2.89497">
        <ele>928</ele>
        <time>2013-08-18T14:48:44.000Z</time>
      </trkpt>
      <trkpt lat="45.57289" lon="2.89489">
        <ele>926</ele>
        <time>2013-08-18T14:48:58.000Z</time>
      </trkpt>
      <trkpt lat="45.57299" lon="2.8948">
        <ele>922.40002441406</ele>
        <time>2013-08-18T14:49:13.000Z</time>
      </trkpt>
      <trkpt lat="45.57312" lon="2.89466">
        <ele>928.59997558594</ele>
        <time>2013-08-18T14:49:29.000Z</time>
      </trkpt>
      <trkpt lat="45.5732" lon="2.8945">
        <ele>935.40002441406</ele>
        <time>2013-08-18T14:49:44.000Z</time>
      </trkpt>
      <trkpt lat="45.57325" lon="2.89439">
        <ele>938.59997558594</ele>
        <time>2013-08-18T14:49:57.000Z</time>
      </trkpt>
      <trkpt lat="45.57326" lon="2.89421">
        <ele>939.20001220703</ele>
        <time>2013-08-18T14:50:12.000Z</time>
      </trkpt>
      <trkpt lat="45.57326" lon="2.8942">
        <ele>939.40002441406</ele>
        <time>2013-08-18T14:50:30.000Z</time>
      </trkpt>
      <trkpt lat="45.57326" lon="2.89416">
        <ele>940</ele>
        <time>2013-08-18T14:50:37.000Z</time>
      </trkpt>
      <trkpt lat="45.57321" lon="2.89406">
        <ele>940</ele>
        <time>2013-08-18T14:50:48.000Z</time>
      </trkpt>
      <trkpt lat="45.57321" lon="2.89387">
        <ele>942.59997558594</ele>
        <time>2013-08-18T14:51:01.000Z</time>
      </trkpt>
      <trkpt lat="45.57325" lon="2.89379">
        <ele>944.79998779297</ele>
        <time>2013-08-18T14:51:17.000Z</time>
      </trkpt>
      <trkpt lat="45.57326" lon="2.89381">
        <ele>944.79998779297</ele>
        <time>2013-08-18T14:51:43.000Z</time>
      </trkpt>
      <trkpt lat="45.57324" lon="2.89382">
        <ele>944</ele>
        <time>2013-08-18T14:52:12.000Z</time>
      </trkpt>
      <trkpt lat="45.57324" lon="2.89382">
        <ele>944.20001220703</ele>
        <time>2013-08-18T14:52:38.000Z</time>
      </trkpt>
      <trkpt lat="45.57324" lon="2.89381">
        <ele>944.40002441406</ele>
        <time>2013-08-18T14:52:55.000Z</time>
      </trkpt>
      <trkpt lat="45.57325" lon="2.8938">
        <ele>944.79998779297</ele>
        <time>2013-08-18T14:53:18.000Z</time>
      </trkpt>
      <trkpt lat="45.57327" lon="2.89374">
        <ele>946.20001220703</ele>
        <time>2013-08-18T14:53:36.000Z</time>
      </trkpt>
      <trkpt lat="45.57327" lon="2.89373">
        <ele>946.20001220703</ele>
        <time>2013-08-18T14:53:51.000Z</time>
      </trkpt>
      <trkpt lat="45.57327" lon="2.8937">
        <ele>946.59997558594</ele>
        <time>2013-08-18T14:54:17.000Z</time>
      </trkpt>
      <trkpt lat="45.57327" lon="2.8937">
        <ele>946.79998779297</ele>
        <time>2013-08-18T14:54:33.000Z</time>
      </trkpt>
      <trkpt lat="45.57328" lon="2.89366">
        <ele>947.40002441406</ele>
        <time>2013-08-18T14:54:50.000Z</time>
      </trkpt>
      <trkpt lat="45.57327" lon="2.89361">
        <ele>947.40002441406</ele>
        <time>2013-08-18T14:55:25.000Z</time>
      </trkpt>
      <trkpt lat="45.57328" lon="2.89358">
        <ele>947.59997558594</ele>
        <time>2013-08-18T14:55:43.000Z</time>
      </trkpt>
      <trkpt lat="45.57329" lon="2.89357">
        <ele>947.59997558594</ele>
        <time>2013-08-18T14:55:59.000Z</time>
      </trkpt>
      <trkpt lat="45.5733" lon="2.89353">
        <ele>947.79998779297</ele>
        <time>2013-08-18T14:56:27.000Z</time>
      </trkpt>
      <trkpt lat="45.5733" lon="2.89351">
        <ele>947.79998779297</ele>
        <time>2013-08-18T14:56:43.000Z</time>
      </trkpt>
      <trkpt lat="45.5733" lon="2.89349">
        <ele>947.79998779297</ele>
        <time>2013-08-18T14:56:57.000Z</time>
      </trkpt>
      <trkpt lat="45.5733" lon="2.89329">
        <ele>949</ele>
        <time>2013-08-18T14:57:12.000Z</time>
      </trkpt>
      <trkpt lat="45.57336" lon="2.89305">
        <ele>952.40002441406</ele>
        <time>2013-08-18T14:57:27.000Z</time>
      </trkpt>
      <trkpt lat="45.57344" lon="2.89286">
        <ele>956.20001220703</ele>
        <time>2013-08-18T14:57:39.000Z</time>
      </trkpt>
      <trkpt lat="45.5735" lon="2.89275">
        <ele>959</ele>
        <time>2013-08-18T14:57:51.000Z</time>
      </trkpt>
      <trkpt lat="45.57351" lon="2.89273">
        <ele>959.40002441406</ele>
        <time>2013-08-18T14:57:52.000Z</time>
      </trkpt>
      <trkpt lat="45.57358" lon="2.89268">
        <ele>961.40002441406</ele>
        <time>2013-08-18T14:58:02.000Z</time>
      </trkpt>
      <trkpt lat="45.57362" lon="2.89268">
        <ele>962.20001220703</ele>
        <time>2013-08-18T14:58:06.000Z</time>
      </trkpt>
      <trkpt lat="45.57368" lon="2.89275">
        <ele>962.20001220703</ele>
        <time>2013-08-18T14:58:18.000Z</time>
      </trkpt>
      <trkpt lat="45.57369" lon="2.89272">
        <ele>962.59997558594</ele>
        <time>2013-08-18T14:58:33.000Z</time>
      </trkpt>
      <trkpt lat="45.57363" lon="2.89278">
        <ele>960.59997558594</ele>
        <time>2013-08-18T14:58:50.000Z</time>
      </trkpt>
      <trkpt lat="45.57362" lon="2.89294">
        <ele>958</ele>
        <time>2013-08-18T14:59:04.000Z</time>
      </trkpt>
      <trkpt lat="45.57364" lon="2.89305">
        <ele>956.79998779297</ele>
        <time>2013-08-18T14:59:19.000Z</time>
      </trkpt>
      <trkpt lat="45.57364" lon="2.89309">
        <ele>956</ele>
        <time>2013-08-18T14:59:36.000Z</time>
      </trkpt>
      <trkpt lat="45.57358" lon="2.89308">
        <ele>955.20001220703</ele>
        <time>2013-08-18T14:59:59.000Z</time>
      </trkpt>
      <trkpt lat="45.57359" lon="2.8931">
        <ele>955</ele>
        <time>2013-08-18T15:00:02.000Z</time>
      </trkpt>
      <trkpt lat="45.57358" lon="2.89331">
        <ele>952.40002441406</ele>
        <time>2013-08-18T15:00:18.000Z</time>
      </trkpt>
      <trkpt lat="45.57361" lon="2.89344">
        <ele>951.79998779297</ele>
        <time>2013-08-18T15:00:27.000Z</time>
      </trkpt>
      <trkpt lat="45.57365" lon="2.89367">
        <ele>952.40002441406</ele>
        <time>2013-08-18T15:00:43.000Z</time>
      </trkpt>
      <trkpt lat="45.57373" lon="2.89383">
        <ele>953.40002441406</ele>
        <time>2013-08-18T15:00:57.000Z</time>
      </trkpt>
      <trkpt lat="45.57378" lon="2.894">
        <ele>954</ele>
        <time>2013-08-18T15:01:13.000Z</time>
      </trkpt>
      <trkpt lat="45.57382" lon="2.89413">
        <ele>954.59997558594</ele>
        <time>2013-08-18T15:01:23.000Z</time>
      </trkpt>
      <trkpt lat="45.57382" lon="2.89428">
        <ele>954.40002441406</ele>
        <time>2013-08-18T15:01:37.000Z</time>
      </trkpt>
      <trkpt lat="45.57383" lon="2.89429">
        <ele>954.59997558594</ele>
        <time>2013-08-18T15:01:55.000Z</time>
      </trkpt>
      <trkpt lat="45.57381" lon="2.89433">
        <ele>954</ele>
        <time>2013-08-18T15:02:10.000Z</time>
      </trkpt>
      <trkpt lat="45.57381" lon="2.89434">
        <ele>953.79998779297</ele>
        <time>2013-08-18T15:02:31.000Z</time>
      </trkpt>
      <trkpt lat="45.5738" lon="2.89434">
        <ele>953.59997558594</ele>
        <time>2013-08-18T15:02:52.000Z</time>
      </trkpt>
      <trkpt lat="45.57379" lon="2.89436">
        <ele>953.59997558594</ele>
        <time>2013-08-18T15:03:10.000Z</time>
      </trkpt>
      <trkpt lat="45.57382" lon="2.89445">
        <ele>954.20001220703</ele>
        <time>2013-08-18T15:03:30.000Z</time>
      </trkpt>
      <trkpt lat="45.5738" lon="2.89448">
        <ele>953.79998779297</ele>
        <time>2013-08-18T15:03:44.000Z</time>
      </trkpt>
      <trkpt lat="45.57379" lon="2.89454">
        <ele>953.40002441406</ele>
        <time>2013-08-18T15:04:00.000Z</time>
      </trkpt>
      <trkpt lat="45.57377" lon="2.89459">
        <ele>952.79998779297</ele>
        <time>2013-08-18T15:04:04.000Z</time>
      </trkpt>
      <trkpt lat="45.57373" lon="2.8947">
        <ele>951.59997558594</ele>
        <time>2013-08-18T15:04:21.000Z</time>
      </trkpt>
      <trkpt lat="45.57367" lon="2.89478">
        <ele>950.20001220703</ele>
        <time>2013-08-18T15:04:36.000Z</time>
      </trkpt>
      <trkpt lat="45.57364" lon="2.89489">
        <ele>948.79998779297</ele>
        <time>2013-08-18T15:04:51.000Z</time>
      </trkpt>
      <trkpt lat="45.57358" lon="2.89496">
        <ele>944.79998779297</ele>
        <time>2013-08-18T15:04:58.000Z</time>
      </trkpt>
      <trkpt lat="45.57351" lon="2.8951">
        <ele>938.59997558594</ele>
        <time>2013-08-18T15:05:11.000Z</time>
      </trkpt>
      <trkpt lat="45.5735" lon="2.89513">
        <ele>938</ele>
        <time>2013-08-18T15:05:13.000Z</time>
      </trkpt>
      <trkpt lat="45.57341" lon="2.89528">
        <ele>931.79998779297</ele>
        <time>2013-08-18T15:05:26.000Z</time>
      </trkpt>
      <trkpt lat="45.57334" lon="2.8954">
        <ele>927.59997558594</ele>
        <time>2013-08-18T15:05:35.000Z</time>
      </trkpt>
      <trkpt lat="45.57334" lon="2.89544">
        <ele>926.79998779297</ele>
        <time>2013-08-18T15:05:38.000Z</time>
      </trkpt>
      <trkpt lat="45.57328" lon="2.89562">
        <ele>922.20001220703</ele>
        <time>2013-08-18T15:05:52.000Z</time>
      </trkpt>
      <trkpt lat="45.57327" lon="2.89563">
        <ele>921.79998779297</ele>
        <time>2013-08-18T15:05:53.000Z</time>
      </trkpt>
      <trkpt lat="45.5732" lon="2.89576">
        <ele>916.79998779297</ele>
        <time>2013-08-18T15:06:06.000Z</time>
      </trkpt>
      <trkpt lat="45.57311" lon="2.89589">
        <ele>911.40002441406</ele>
        <time>2013-08-18T15:06:20.000Z</time>
      </trkpt>
      <trkpt lat="45.57306" lon="2.89599">
        <ele>908.40002441406</ele>
        <time>2013-08-18T15:06:29.000Z</time>
      </trkpt>
      <trkpt lat="45.57292" lon="2.89611">
        <ele>907.20001220703</ele>
        <time>2013-08-18T15:06:45.000Z</time>
      </trkpt>
      <trkpt lat="45.57281" lon="2.89621">
        <ele>907.20001220703</ele>
        <time>2013-08-18T15:07:01.000Z</time>
      </trkpt>
      <trkpt lat="45.57272" lon="2.89638">
        <ele>907.40002441406</ele>
        <time>2013-08-18T15:07:15.000Z</time>
      </trkpt>
      <trkpt lat="45.57267" lon="2.89646">
        <ele>906.20001220703</ele>
        <time>2013-08-18T15:07:23.000Z</time>
      </trkpt>
      <trkpt lat="45.57264" lon="2.89652">
        <ele>904.79998779297</ele>
        <time>2013-08-18T15:07:28.000Z</time>
      </trkpt>
      <trkpt lat="45.57255" lon="2.8966">
        <ele>902</ele>
        <time>2013-08-18T15:07:41.000Z</time>
      </trkpt>
      <trkpt lat="45.57251" lon="2.89661">
        <ele>901.20001220703</ele>
        <time>2013-08-18T15:07:50.000Z</time>
      </trkpt>
      <trkpt lat="45.57243" lon="2.8967">
        <ele>898.40002441406</ele>
        <time>2013-08-18T15:08:01.000Z</time>
      </trkpt>
      <trkpt lat="45.57239" lon="2.89676">
        <ele>897.59997558594</ele>
        <time>2013-08-18T15:08:18.000Z</time>
      </trkpt>
      <trkpt lat="45.57238" lon="2.89677">
        <ele>897.59997558594</ele>
        <time>2013-08-18T15:08:45.000Z</time>
      </trkpt>
      <trkpt lat="45.57237" lon="2.89678">
        <ele>897.40002441406</ele>
        <time>2013-08-18T15:09:12.000Z</time>
      </trkpt>
      <trkpt lat="45.57231" lon="2.89684">
        <ele>897</ele>
        <time>2013-08-18T15:09:30.000Z</time>
      </trkpt>
      <trkpt lat="45.57221" lon="2.89694">
        <ele>895.20001220703</ele>
        <time>2013-08-18T15:09:45.000Z</time>
      </trkpt>
      <trkpt lat="45.57221" lon="2.89692">
        <ele>895</ele>
        <time>2013-08-18T15:10:02.000Z</time>
      </trkpt>
      <trkpt lat="45.57218" lon="2.89691">
        <ele>894.59997558594</ele>
        <time>2013-08-18T15:10:07.000Z</time>
      </trkpt>
      <trkpt lat="45.57213" lon="2.89686">
        <ele>894.20001220703</ele>
        <time>2013-08-18T15:10:11.000Z</time>
      </trkpt>
      <trkpt lat="45.57195" lon="2.89691">
        <ele>894.20001220703</ele>
        <time>2013-08-18T15:10:29.000Z</time>
      </trkpt>
      <trkpt lat="45.57192" lon="2.89692">
        <ele>894.20001220703</ele>
        <time>2013-08-18T15:10:32.000Z</time>
      </trkpt>
      <trkpt lat="45.57184" lon="2.89697">
        <ele>894.20001220703</ele>
        <time>2013-08-18T15:10:47.000Z</time>
      </trkpt>
      <trkpt lat="45.57179" lon="2.897">
        <ele>894.20001220703</ele>
        <time>2013-08-18T15:10:52.000Z</time>
      </trkpt>
      <trkpt lat="45.57173" lon="2.89704">
        <ele>894.20001220703</ele>
        <time>2013-08-18T15:10:58.000Z</time>
      </trkpt>
      <trkpt lat="45.57165" lon="2.89707">
        <ele>894</ele>
        <time>2013-08-18T15:11:06.000Z</time>
      </trkpt>
      <trkpt lat="45.57148" lon="2.89727">
        <ele>892.59997558594</ele>
        <time>2013-08-18T15:11:26.000Z</time>
      </trkpt>
      <trkpt lat="45.57147" lon="2.89727">
        <ele>892.40002441406</ele>
        <time>2013-08-18T15:11:44.000Z</time>
      </trkpt>
      <trkpt lat="45.57144" lon="2.89739">
        <ele>892</ele>
        <time>2013-08-18T15:11:57.000Z</time>
      </trkpt>
      <trkpt lat="45.57147" lon="2.8974">
        <ele>892.20001220703</ele>
        <time>2013-08-18T15:12:13.000Z</time>
      </trkpt>
      <trkpt lat="45.57149" lon="2.89739">
        <ele>892.40002441406</ele>
        <time>2013-08-18T15:12:43.000Z</time>
      </trkpt>
      <trkpt lat="45.5715" lon="2.89742">
        <ele>892.20001220703</ele>
        <time>2013-08-18T15:13:16.000Z</time>
      </trkpt>
      <trkpt lat="45.5715" lon="2.89741">
        <ele>892.20001220703</ele>
        <time>2013-08-18T15:13:34.000Z</time>
      </trkpt>
      <trkpt lat="45.5715" lon="2.89741">
        <ele>892.40002441406</ele>
        <time>2013-08-18T15:14:12.000Z</time>
      </trkpt>
      <trkpt lat="45.57151" lon="2.89741">
        <ele>892.40002441406</ele>
        <time>2013-08-18T15:14:44.000Z</time>
      </trkpt>
      <trkpt lat="45.57151" lon="2.89742">
        <ele>892.40002441406</ele>
        <time>2013-08-18T15:15:25.000Z</time>
      </trkpt>
      <trkpt lat="45.5715" lon="2.8974">
        <ele>892.40002441406</ele>
        <time>2013-08-18T15:15:43.000Z</time>
      </trkpt>
      <trkpt lat="45.5715" lon="2.8974">
        <ele>892.40002441406</ele>
        <time>2013-08-18T15:15:56.000Z</time>
      </trkpt>
      <trkpt lat="45.57145" lon="2.89737">
        <ele>892.20001220703</ele>
        <time>2013-08-18T15:16:09.000Z</time>
      </trkpt>
      <trkpt lat="45.57144" lon="2.89755">
        <ele>891.59997558594</ele>
        <time>2013-08-18T15:16:22.000Z</time>
      </trkpt>
      <trkpt lat="45.57142" lon="2.89762">
        <ele>892.20001220703</ele>
        <time>2013-08-18T15:16:27.000Z</time>
      </trkpt>
      <trkpt lat="45.57138" lon="2.89773">
        <ele>891.79998779297</ele>
        <time>2013-08-18T15:16:34.000Z</time>
      </trkpt>
      <trkpt lat="45.5713" lon="2.89788">
        <ele>891.40002441406</ele>
        <time>2013-08-18T15:16:45.000Z</time>
      </trkpt>
      <trkpt lat="45.57122" lon="2.89792">
        <ele>891.20001220703</ele>
        <time>2013-08-18T15:16:52.000Z</time>
      </trkpt>
      <trkpt lat="45.57118" lon="2.89796">
        <ele>891.20001220703</ele>
        <time>2013-08-18T15:16:57.000Z</time>
      </trkpt>
      <trkpt lat="45.57113" lon="2.89812">
        <ele>891.40002441406</ele>
        <time>2013-08-18T15:17:10.000Z</time>
      </trkpt>
      <trkpt lat="45.57106" lon="2.89818">
        <ele>891.20001220703</ele>
        <time>2013-08-18T15:17:25.000Z</time>
      </trkpt>
      <trkpt lat="45.57105" lon="2.89815">
        <ele>891.20001220703</ele>
        <time>2013-08-18T15:17:29.000Z</time>
      </trkpt>
      <trkpt lat="45.57093" lon="2.89816">
        <ele>890.79998779297</ele>
        <time>2013-08-18T15:17:41.000Z</time>
      </trkpt>
      <trkpt lat="45.57093" lon="2.89824">
        <ele>890.59997558594</ele>
        <time>2013-08-18T15:17:52.000Z</time>
      </trkpt>
      <trkpt lat="45.57091" lon="2.89831">
        <ele>890.59997558594</ele>
        <time>2013-08-18T15:18:07.000Z</time>
      </trkpt>
      <trkpt lat="45.5709" lon="2.89832">
        <ele>890.40002441406</ele>
        <time>2013-08-18T15:18:08.000Z</time>
      </trkpt>
      <trkpt lat="45.57088" lon="2.89849">
        <ele>891</ele>
        <time>2013-08-18T15:18:20.000Z</time>
      </trkpt>
      <trkpt lat="45.57084" lon="2.89854">
        <ele>891.20001220703</ele>
        <time>2013-08-18T15:18:25.000Z</time>
      </trkpt>
      <trkpt lat="45.57075" lon="2.89875">
        <ele>891.59997558594</ele>
        <time>2013-08-18T15:18:42.000Z</time>
      </trkpt>
      <trkpt lat="45.57074" lon="2.8988">
        <ele>891.59997558594</ele>
        <time>2013-08-18T15:18:46.000Z</time>
      </trkpt>
      <trkpt lat="45.5707" lon="2.89899">
        <ele>891.40002441406</ele>
        <time>2013-08-18T15:19:00.000Z</time>
      </trkpt>
      <trkpt lat="45.57076" lon="2.89915">
        <ele>892.40002441406</ele>
        <time>2013-08-18T15:19:15.000Z</time>
      </trkpt>
      <trkpt lat="45.57084" lon="2.89924">
        <ele>893.20001220703</ele>
        <time>2013-08-18T15:19:31.000Z</time>
      </trkpt>
      <trkpt lat="45.57084" lon="2.89925">
        <ele>893.20001220703</ele>
        <time>2013-08-18T15:19:32.000Z</time>
      </trkpt>
      <trkpt lat="45.57087" lon="2.89935">
        <ele>894</ele>
        <time>2013-08-18T15:19:42.000Z</time>
      </trkpt>
      <trkpt lat="45.57087" lon="2.89938">
        <ele>894.40002441406</ele>
        <time>2013-08-18T15:19:44.000Z</time>
      </trkpt>
      <trkpt lat="45.57086" lon="2.89946">
        <ele>894.59997558594</ele>
        <time>2013-08-18T15:19:50.000Z</time>
      </trkpt>
      <trkpt lat="45.57082" lon="2.89955">
        <ele>894.79998779297</ele>
        <time>2013-08-18T15:19:58.000Z</time>
      </trkpt>
      <trkpt lat="45.57077" lon="2.89974">
        <ele>893.79998779297</ele>
        <time>2013-08-18T15:20:13.000Z</time>
      </trkpt>
      <trkpt lat="45.57078" lon="2.89978">
        <ele>893.79998779297</ele>
        <time>2013-08-18T15:20:16.000Z</time>
      </trkpt>
      <trkpt lat="45.57074" lon="2.89999">
        <ele>892.79998779297</ele>
        <time>2013-08-18T15:20:30.000Z</time>
      </trkpt>
      <trkpt lat="45.5707" lon="2.90018">
        <ele>893</ele>
        <time>2013-08-18T15:20:44.000Z</time>
      </trkpt>
      <trkpt lat="45.57056" lon="2.90034">
        <ele>889.79998779297</ele>
        <time>2013-08-18T15:21:00.000Z</time>
      </trkpt>
      <trkpt lat="45.57041" lon="2.9004">
        <ele>888.20001220703</ele>
        <time>2013-08-18T15:21:12.000Z</time>
      </trkpt>
      <trkpt lat="45.57024" lon="2.90053">
        <ele>887.40002441406</ele>
        <time>2013-08-18T15:21:29.000Z</time>
      </trkpt>
      <trkpt lat="45.57009" lon="2.90073">
        <ele>886.59997558594</ele>
        <time>2013-08-18T15:21:49.000Z</time>
      </trkpt>
      <trkpt lat="45.57005" lon="2.90086">
        <ele>886.40002441406</ele>
        <time>2013-08-18T15:22:05.000Z</time>
      </trkpt>
      <trkpt lat="45.57002" lon="2.90091">
        <ele>886.40002441406</ele>
        <time>2013-08-18T15:22:10.000Z</time>
      </trkpt>
      <trkpt lat="45.56998" lon="2.90119">
        <ele>887.79998779297</ele>
        <time>2013-08-18T15:22:29.000Z</time>
      </trkpt>
      <trkpt lat="45.56995" lon="2.90131">
        <ele>887.59997558594</ele>
        <time>2013-08-18T15:22:38.000Z</time>
      </trkpt>
      <trkpt lat="45.56991" lon="2.90152">
        <ele>887.20001220703</ele>
        <time>2013-08-18T15:22:52.000Z</time>
      </trkpt>
      <trkpt lat="45.56988" lon="2.90163">
        <ele>887</ele>
        <time>2013-08-18T15:23:00.000Z</time>
      </trkpt>
      <trkpt lat="45.56987" lon="2.90189">
        <ele>886.20001220703</ele>
        <time>2013-08-18T15:23:16.000Z</time>
      </trkpt>
      <trkpt lat="45.56986" lon="2.90211">
        <ele>885.59997558594</ele>
        <time>2013-08-18T15:23:29.000Z</time>
      </trkpt>
      <trkpt lat="45.56986" lon="2.90231">
        <ele>885.20001220703</ele>
        <time>2013-08-18T15:23:43.000Z</time>
      </trkpt>
      <trkpt lat="45.56987" lon="2.90233">
        <ele>885.20001220703</ele>
        <time>2013-08-18T15:23:45.000Z</time>
      </trkpt>
      <trkpt lat="45.56986" lon="2.90236">
        <ele>885</ele>
        <time>2013-08-18T15:23:47.000Z</time>
      </trkpt>
      <trkpt lat="45.56987" lon="2.90259">
        <ele>884.59997558594</ele>
        <time>2013-08-18T15:24:03.000Z</time>
      </trkpt>
      <trkpt lat="45.56987" lon="2.90282">
        <ele>883.59997558594</ele>
        <time>2013-08-18T15:24:19.000Z</time>
      </trkpt>
      <trkpt lat="45.56986" lon="2.90304">
        <ele>883.59997558594</ele>
        <time>2013-08-18T15:24:34.000Z</time>
      </trkpt>
      <trkpt lat="45.56986" lon="2.90329">
        <ele>883.59997558594</ele>
        <time>2013-08-18T15:24:50.000Z</time>
      </trkpt>
      <trkpt lat="45.56985" lon="2.90331">
        <ele>883.59997558594</ele>
        <time>2013-08-18T15:24:51.000Z</time>
      </trkpt>
      <trkpt lat="45.56985" lon="2.90339">
        <ele>883.59997558594</ele>
        <time>2013-08-18T15:24:56.000Z</time>
      </trkpt>
      <trkpt lat="45.56984" lon="2.90357">
        <ele>882.79998779297</ele>
        <time>2013-08-18T15:25:08.000Z</time>
      </trkpt>
      <trkpt lat="45.56983" lon="2.90377">
        <ele>882.59997558594</ele>
        <time>2013-08-18T15:25:21.000Z</time>
      </trkpt>
      <trkpt lat="45.56982" lon="2.904">
        <ele>882.20001220703</ele>
        <time>2013-08-18T15:25:36.000Z</time>
      </trkpt>
      <trkpt lat="45.56981" lon="2.90422">
        <ele>882</ele>
        <time>2013-08-18T15:25:51.000Z</time>
      </trkpt>
      <trkpt lat="45.5698" lon="2.90442">
        <ele>881.79998779297</ele>
        <time>2013-08-18T15:26:05.000Z</time>
      </trkpt>
      <trkpt lat="45.5698" lon="2.90465">
        <ele>881.79998779297</ele>
        <time>2013-08-18T15:26:20.000Z</time>
      </trkpt>
      <trkpt lat="45.56979" lon="2.9049">
        <ele>881.79998779297</ele>
        <time>2013-08-18T15:26:36.000Z</time>
      </trkpt>
      <trkpt lat="45.56978" lon="2.90505">
        <ele>881.79998779297</ele>
        <time>2013-08-18T15:26:46.000Z</time>
      </trkpt>
      <trkpt lat="45.56976" lon="2.90527">
        <ele>882.20001220703</ele>
        <time>2013-08-18T15:27:02.000Z</time>
      </trkpt>
      <trkpt lat="45.56974" lon="2.90544">
        <ele>882.79998779297</ele>
        <time>2013-08-18T15:27:15.000Z</time>
      </trkpt>
      <trkpt lat="45.56974" lon="2.90545">
        <ele>882.79998779297</ele>
        <time>2013-08-18T15:27:16.000Z</time>
      </trkpt>
      <trkpt lat="45.56974" lon="2.90572">
        <ele>883.40002441406</ele>
        <time>2013-08-18T15:27:33.000Z</time>
      </trkpt>
      <trkpt lat="45.56974" lon="2.90598">
        <ele>884</ele>
        <time>2013-08-18T15:27:50.000Z</time>
      </trkpt>
      <trkpt lat="45.56974" lon="2.90616">
        <ele>883.79998779297</ele>
        <time>2013-08-18T15:28:03.000Z</time>
      </trkpt>
      <trkpt lat="45.56973" lon="2.90621">
        <ele>883.59997558594</ele>
        <time>2013-08-18T15:28:07.000Z</time>
      </trkpt>
      <trkpt lat="45.56972" lon="2.90636">
        <ele>883.40002441406</ele>
        <time>2013-08-18T15:28:19.000Z</time>
      </trkpt>
      <trkpt lat="45.56969" lon="2.90652">
        <ele>883.20001220703</ele>
        <time>2013-08-18T15:28:33.000Z</time>
      </trkpt>
      <trkpt lat="45.56964" lon="2.90668">
        <ele>883.20001220703</ele>
        <time>2013-08-18T15:28:47.000Z</time>
      </trkpt>
      <trkpt lat="45.56961" lon="2.90682">
        <ele>883.59997558594</ele>
        <time>2013-08-18T15:28:59.000Z</time>
      </trkpt>
      <trkpt lat="45.56957" lon="2.90711">
        <ele>883.40002441406</ele>
        <time>2013-08-18T15:29:17.000Z</time>
      </trkpt>
      <trkpt lat="45.56953" lon="2.90727">
        <ele>883.40002441406</ele>
        <time>2013-08-18T15:29:31.000Z</time>
      </trkpt>
      <trkpt lat="45.56952" lon="2.90738">
        <ele>883.40002441406</ele>
        <time>2013-08-18T15:29:38.000Z</time>
      </trkpt>
      <trkpt lat="45.56952" lon="2.90747">
        <ele>883.79998779297</ele>
        <time>2013-08-18T15:29:45.000Z</time>
      </trkpt>
      <trkpt lat="45.56953" lon="2.9078">
        <ele>883.79998779297</ele>
        <time>2013-08-18T15:30:01.000Z</time>
      </trkpt>
      <trkpt lat="45.56953" lon="2.90797">
        <ele>883.20001220703</ele>
        <time>2013-08-18T15:30:09.000Z</time>
      </trkpt>
      <trkpt lat="45.56954" lon="2.90811">
        <ele>882.79998779297</ele>
        <time>2013-08-18T15:30:17.000Z</time>
      </trkpt>
      <trkpt lat="45.56949" lon="2.90835">
        <ele>883.20001220703</ele>
        <time>2013-08-18T15:30:35.000Z</time>
      </trkpt>
      <trkpt lat="45.56948" lon="2.90838">
        <ele>883.40002441406</ele>
        <time>2013-08-18T15:30:37.000Z</time>
      </trkpt>
      <trkpt lat="45.56948" lon="2.90847">
        <ele>883.40002441406</ele>
        <time>2013-08-18T15:30:42.000Z</time>
      </trkpt>
      <trkpt lat="45.56946" lon="2.90866">
        <ele>883.59997558594</ele>
        <time>2013-08-18T15:30:54.000Z</time>
      </trkpt>
      <trkpt lat="45.56944" lon="2.90886">
        <ele>884.20001220703</ele>
        <time>2013-08-18T15:31:09.000Z</time>
      </trkpt>
      <trkpt lat="45.5694" lon="2.90906">
        <ele>884</ele>
        <time>2013-08-18T15:31:25.000Z</time>
      </trkpt>
      <trkpt lat="45.56937" lon="2.90914">
        <ele>883.59997558594</ele>
        <time>2013-08-18T15:31:31.000Z</time>
      </trkpt>
      <trkpt lat="45.56935" lon="2.90929">
        <ele>883.20001220703</ele>
        <time>2013-08-18T15:31:40.000Z</time>
      </trkpt>
      <trkpt lat="45.56933" lon="2.90942">
        <ele>883.79998779297</ele>
        <time>2013-08-18T15:31:46.000Z</time>
      </trkpt>
      <trkpt lat="45.56925" lon="2.90959">
        <ele>885.40002441406</ele>
        <time>2013-08-18T15:31:58.000Z</time>
      </trkpt>
      <trkpt lat="45.56917" lon="2.90975">
        <ele>885</ele>
        <time>2013-08-18T15:32:09.000Z</time>
      </trkpt>
      <trkpt lat="45.56913" lon="2.90979">
        <ele>884.59997558594</ele>
        <time>2013-08-18T15:32:13.000Z</time>
      </trkpt>
      <trkpt lat="45.56908" lon="2.90987">
        <ele>884.20001220703</ele>
        <time>2013-08-18T15:32:20.000Z</time>
      </trkpt>
      <trkpt lat="45.56904" lon="2.90992">
        <ele>883.79998779297</ele>
        <time>2013-08-18T15:32:24.000Z</time>
      </trkpt>
      <trkpt lat="45.56891" lon="2.91009">
        <ele>883</ele>
        <time>2013-08-18T15:32:41.000Z</time>
      </trkpt>
      <trkpt lat="45.56881" lon="2.91017">
        <ele>883.40002441406</ele>
        <time>2013-08-18T15:32:52.000Z</time>
      </trkpt>
      <trkpt lat="45.56863" lon="2.91031">
        <ele>885.59997558594</ele>
        <time>2013-08-18T15:33:11.000Z</time>
      </trkpt>
      <trkpt lat="45.5685" lon="2.91043">
        <ele>887</ele>
        <time>2013-08-18T15:33:25.000Z</time>
      </trkpt>
      <trkpt lat="45.56843" lon="2.91055">
        <ele>886.59997558594</ele>
        <time>2013-08-18T15:33:36.000Z</time>
      </trkpt>
      <trkpt lat="45.56839" lon="2.91065">
        <ele>884.79998779297</ele>
        <time>2013-08-18T15:33:43.000Z</time>
      </trkpt>
      <trkpt lat="45.56839" lon="2.91073">
        <ele>883.20001220703</ele>
        <time>2013-08-18T15:33:51.000Z</time>
      </trkpt>
      <trkpt lat="45.56844" lon="2.91073">
        <ele>883.20001220703</ele>
        <time>2013-08-18T15:34:07.000Z</time>
      </trkpt>
      <trkpt lat="45.56842" lon="2.91074">
        <ele>883</ele>
        <time>2013-08-18T15:34:32.000Z</time>
      </trkpt>
      <trkpt lat="45.56839" lon="2.91078">
        <ele>882.20001220703</ele>
        <time>2013-08-18T15:34:36.000Z</time>
      </trkpt>
      <trkpt lat="45.56836" lon="2.91085">
        <ele>880.79998779297</ele>
        <time>2013-08-18T15:34:41.000Z</time>
      </trkpt>
      <trkpt lat="45.56833" lon="2.91094">
        <ele>879.79998779297</ele>
        <time>2013-08-18T15:34:47.000Z</time>
      </trkpt>
      <trkpt lat="45.56829" lon="2.91115">
        <ele>879.59997558594</ele>
        <time>2013-08-18T15:35:03.000Z</time>
      </trkpt>
      <trkpt lat="45.56825" lon="2.91125">
        <ele>879</ele>
        <time>2013-08-18T15:35:10.000Z</time>
      </trkpt>
      <trkpt lat="45.56823" lon="2.9113">
        <ele>878.59997558594</ele>
        <time>2013-08-18T15:35:14.000Z</time>
      </trkpt>
      <trkpt lat="45.56821" lon="2.91136">
        <ele>878.20001220703</ele>
        <time>2013-08-18T15:35:18.000Z</time>
      </trkpt>
      <trkpt lat="45.56821" lon="2.91138">
        <ele>878</ele>
        <time>2013-08-18T15:35:20.000Z</time>
      </trkpt>
      <trkpt lat="45.56815" lon="2.91162">
        <ele>876.40002441406</ele>
        <time>2013-08-18T15:35:36.000Z</time>
      </trkpt>
      <trkpt lat="45.56814" lon="2.91164">
        <ele>876.40002441406</ele>
        <time>2013-08-18T15:35:37.000Z</time>
      </trkpt>
      <trkpt lat="45.5681" lon="2.91182">
        <ele>875.40002441406</ele>
        <time>2013-08-18T15:35:52.000Z</time>
      </trkpt>
      <trkpt lat="45.56812" lon="2.91184">
        <ele>875.40002441406</ele>
        <time>2013-08-18T15:35:56.000Z</time>
      </trkpt>
      <trkpt lat="45.56823" lon="2.91189">
        <ele>876</ele>
        <time>2013-08-18T15:36:13.000Z</time>
      </trkpt>
      <trkpt lat="45.56823" lon="2.91188">
        <ele>876</ele>
        <time>2013-08-18T15:36:16.000Z</time>
      </trkpt>
      <trkpt lat="45.56811" lon="2.9119">
        <ele>875.40002441406</ele>
        <time>2013-08-18T15:36:30.000Z</time>
      </trkpt>
      <trkpt lat="45.56806" lon="2.912">
        <ele>875.20001220703</ele>
        <time>2013-08-18T15:36:43.000Z</time>
      </trkpt>
      <trkpt lat="45.56803" lon="2.91209">
        <ele>875</ele>
        <time>2013-08-18T15:36:55.000Z</time>
      </trkpt>
      <trkpt lat="45.56803" lon="2.91212">
        <ele>875</ele>
        <time>2013-08-18T15:36:58.000Z</time>
      </trkpt>
      <trkpt lat="45.568" lon="2.9122">
        <ele>875.20001220703</ele>
        <time>2013-08-18T15:37:04.000Z</time>
      </trkpt>
      <trkpt lat="45.56795" lon="2.91243">
        <ele>875.79998779297</ele>
        <time>2013-08-18T15:37:20.000Z</time>
      </trkpt>
      <trkpt lat="45.56793" lon="2.91266">
        <ele>876</ele>
        <time>2013-08-18T15:37:34.000Z</time>
      </trkpt>
      <trkpt lat="45.56793" lon="2.91285">
        <ele>876.59997558594</ele>
        <time>2013-08-18T15:37:48.000Z</time>
      </trkpt>
      <trkpt lat="45.56794" lon="2.91306">
        <ele>877</ele>
        <time>2013-08-18T15:38:03.000Z</time>
      </trkpt>
      <trkpt lat="45.56799" lon="2.91319">
        <ele>876.79998779297</ele>
        <time>2013-08-18T15:38:14.000Z</time>
      </trkpt>
      <trkpt lat="45.56799" lon="2.91324">
        <ele>876.79998779297</ele>
        <time>2013-08-18T15:38:17.000Z</time>
      </trkpt>
      <trkpt lat="45.56798" lon="2.91327">
        <ele>877</ele>
        <time>2013-08-18T15:38:19.000Z</time>
      </trkpt>
      <trkpt lat="45.56798" lon="2.91344">
        <ele>877.20001220703</ele>
        <time>2013-08-18T15:38:30.000Z</time>
      </trkpt>
      <trkpt lat="45.56795" lon="2.91354">
        <ele>877.40002441406</ele>
        <time>2013-08-18T15:38:36.000Z</time>
      </trkpt>
      <trkpt lat="45.56794" lon="2.91367">
        <ele>877.40002441406</ele>
        <time>2013-08-18T15:38:44.000Z</time>
      </trkpt>
      <trkpt lat="45.56794" lon="2.91389">
        <ele>877</ele>
        <time>2013-08-18T15:38:59.000Z</time>
      </trkpt>
      <trkpt lat="45.56792" lon="2.91405">
        <ele>877</ele>
        <time>2013-08-18T15:39:10.000Z</time>
      </trkpt>
      <trkpt lat="45.56793" lon="2.91424">
        <ele>877.59997558594</ele>
        <time>2013-08-18T15:39:25.000Z</time>
      </trkpt>
      <trkpt lat="45.5679" lon="2.91427">
        <ele>878.20001220703</ele>
        <time>2013-08-18T15:39:45.000Z</time>
      </trkpt>
      <trkpt lat="45.5679" lon="2.91428">
        <ele>878.20001220703</ele>
        <time>2013-08-18T15:40:02.000Z</time>
      </trkpt>
      <trkpt lat="45.56791" lon="2.91427">
        <ele>878</ele>
        <time>2013-08-18T15:40:27.000Z</time>
      </trkpt>
      <trkpt lat="45.5679" lon="2.91429">
        <ele>878.20001220703</ele>
        <time>2013-08-18T15:40:55.000Z</time>
      </trkpt>
      <trkpt lat="45.5679" lon="2.9143">
        <ele>878.40002441406</ele>
        <time>2013-08-18T15:41:19.000Z</time>
      </trkpt>
      <trkpt lat="45.56789" lon="2.91431">
        <ele>878.40002441406</ele>
        <time>2013-08-18T15:41:51.000Z</time>
      </trkpt>
      <trkpt lat="45.56788" lon="2.91435">
        <ele>879</ele>
        <time>2013-08-18T15:41:59.000Z</time>
      </trkpt>
      <trkpt lat="45.56786" lon="2.91436">
        <ele>879.40002441406</ele>
        <time>2013-08-18T15:42:01.000Z</time>
      </trkpt>
      <trkpt lat="45.56785" lon="2.91447">
        <ele>880.20001220703</ele>
        <time>2013-08-18T15:42:08.000Z</time>
      </trkpt>
      <trkpt lat="45.56784" lon="2.91467">
        <ele>881.20001220703</ele>
        <time>2013-08-18T15:42:23.000Z</time>
      </trkpt>
      <trkpt lat="45.56783" lon="2.91472">
        <ele>881.59997558594</ele>
        <time>2013-08-18T15:42:31.000Z</time>
      </trkpt>
      <trkpt lat="45.56782" lon="2.91492">
        <ele>883.20001220703</ele>
        <time>2013-08-18T15:42:44.000Z</time>
      </trkpt>
      <trkpt lat="45.56785" lon="2.91512">
        <ele>884</ele>
        <time>2013-08-18T15:42:58.000Z</time>
      </trkpt>
      <trkpt lat="45.56779" lon="2.9153">
        <ele>885.40002441406</ele>
        <time>2013-08-18T15:43:13.000Z</time>
      </trkpt>
      <trkpt lat="45.56776" lon="2.91545">
        <ele>886.40002441406</ele>
        <time>2013-08-18T15:43:26.000Z</time>
      </trkpt>
      <trkpt lat="45.56775" lon="2.91563">
        <ele>886.59997558594</ele>
        <time>2013-08-18T15:43:43.000Z</time>
      </trkpt>
      <trkpt lat="45.56774" lon="2.91582">
        <ele>886.59997558594</ele>
        <time>2013-08-18T15:43:59.000Z</time>
      </trkpt>
      <trkpt lat="45.56771" lon="2.91605">
        <ele>887</ele>
        <time>2013-08-18T15:44:14.000Z</time>
      </trkpt>
      <trkpt lat="45.56771" lon="2.91625">
        <ele>886.79998779297</ele>
        <time>2013-08-18T15:44:27.000Z</time>
      </trkpt>
      <trkpt lat="45.56769" lon="2.91637">
        <ele>887</ele>
        <time>2013-08-18T15:44:38.000Z</time>
      </trkpt>
      <trkpt lat="45.56773" lon="2.91649">
        <ele>886</ele>
        <time>2013-08-18T15:44:51.000Z</time>
      </trkpt>
      <trkpt lat="45.56765" lon="2.91672">
        <ele>887.40002441406</ele>
        <time>2013-08-18T15:45:04.000Z</time>
      </trkpt>
      <trkpt lat="45.56763" lon="2.91692">
        <ele>887</ele>
        <time>2013-08-18T15:45:18.000Z</time>
      </trkpt>
      <trkpt lat="45.56769" lon="2.91722">
        <ele>884.59997558594</ele>
        <time>2013-08-18T15:45:35.000Z</time>
      </trkpt>
      <trkpt lat="45.5677" lon="2.91743">
        <ele>883.59997558594</ele>
        <time>2013-08-18T15:45:49.000Z</time>
      </trkpt>
      <trkpt lat="45.56768" lon="2.91756">
        <ele>883.40002441406</ele>
        <time>2013-08-18T15:46:02.000Z</time>
      </trkpt>
      <trkpt lat="45.5678" lon="2.91787">
        <ele>880</ele>
        <time>2013-08-18T15:46:18.000Z</time>
      </trkpt>
      <trkpt lat="45.56784" lon="2.91812">
        <ele>878.59997558594</ele>
        <time>2013-08-18T15:46:33.000Z</time>
      </trkpt>
      <trkpt lat="45.56788" lon="2.91835">
        <ele>877.59997558594</ele>
        <time>2013-08-18T15:46:47.000Z</time>
      </trkpt>
      <trkpt lat="45.56788" lon="2.91859">
        <ele>877.40002441406</ele>
        <time>2013-08-18T15:47:01.000Z</time>
      </trkpt>
      <trkpt lat="45.56786" lon="2.91869">
        <ele>877.59997558594</ele>
        <time>2013-08-18T15:47:09.000Z</time>
      </trkpt>
      <trkpt lat="45.56786" lon="2.91875">
        <ele>877.59997558594</ele>
        <time>2013-08-18T15:47:12.000Z</time>
      </trkpt>
      <trkpt lat="45.56783" lon="2.91885">
        <ele>878.20001220703</ele>
        <time>2013-08-18T15:47:26.000Z</time>
      </trkpt>
      <trkpt lat="45.56779" lon="2.91886">
        <ele>879.20001220703</ele>
        <time>2013-08-18T15:47:54.000Z</time>
      </trkpt>
      <trkpt lat="45.56777" lon="2.91888">
        <ele>879.79998779297</ele>
        <time>2013-08-18T15:48:14.000Z</time>
      </trkpt>
      <trkpt lat="45.56776" lon="2.91888">
        <ele>880</ele>
        <time>2013-08-18T15:48:39.000Z</time>
      </trkpt>
      <trkpt lat="45.56774" lon="2.91903">
        <ele>880.20001220703</ele>
        <time>2013-08-18T15:48:50.000Z</time>
      </trkpt>
      <trkpt lat="45.56772" lon="2.91926">
        <ele>879.79998779297</ele>
        <time>2013-08-18T15:49:04.000Z</time>
      </trkpt>
      <trkpt lat="45.56767" lon="2.91938">
        <ele>881.20001220703</ele>
        <time>2013-08-18T15:49:18.000Z</time>
      </trkpt>
      <trkpt lat="45.56763" lon="2.91955">
        <ele>882.40002441406</ele>
        <time>2013-08-18T15:49:32.000Z</time>
      </trkpt>
      <trkpt lat="45.56754" lon="2.91972">
        <ele>883.79998779297</ele>
        <time>2013-08-18T15:49:46.000Z</time>
      </trkpt>
      <trkpt lat="45.56749" lon="2.91993">
        <ele>883</ele>
        <time>2013-08-18T15:50:00.000Z</time>
      </trkpt>
      <trkpt lat="45.56738" lon="2.9201">
        <ele>883.59997558594</ele>
        <time>2013-08-18T15:50:15.000Z</time>
      </trkpt>
      <trkpt lat="45.5674" lon="2.92022">
        <ele>883.20001220703</ele>
        <time>2013-08-18T15:50:28.000Z</time>
      </trkpt>
      <trkpt lat="45.56742" lon="2.92025">
        <ele>883</ele>
        <time>2013-08-18T15:50:47.000Z</time>
      </trkpt>
      <trkpt lat="45.56742" lon="2.92026">
        <ele>883</ele>
        <time>2013-08-18T15:51:05.000Z</time>
      </trkpt>
      <trkpt lat="45.5674" lon="2.92029">
        <ele>883.20001220703</ele>
        <time>2013-08-18T15:51:09.000Z</time>
      </trkpt>
      <trkpt lat="45.56739" lon="2.92034">
        <ele>883.40002441406</ele>
        <time>2013-08-18T15:51:13.000Z</time>
      </trkpt>
      <trkpt lat="45.56742" lon="2.92046">
        <ele>883</ele>
        <time>2013-08-18T15:51:23.000Z</time>
      </trkpt>
      <trkpt lat="45.56742" lon="2.92066">
        <ele>883.40002441406</ele>
        <time>2013-08-18T15:51:39.000Z</time>
      </trkpt>
      <trkpt lat="45.56744" lon="2.92087">
        <ele>883.20001220703</ele>
        <time>2013-08-18T15:51:51.000Z</time>
      </trkpt>
      <trkpt lat="45.56741" lon="2.92108">
        <ele>883.79998779297</ele>
        <time>2013-08-18T15:52:06.000Z</time>
      </trkpt>
      <trkpt lat="45.5674" lon="2.92124">
        <ele>885.20001220703</ele>
        <time>2013-08-18T15:52:20.000Z</time>
      </trkpt>
      <trkpt lat="45.56736" lon="2.92141">
        <ele>888.20001220703</ele>
        <time>2013-08-18T15:52:33.000Z</time>
      </trkpt>
      <trkpt lat="45.56728" lon="2.92155">
        <ele>892.20001220703</ele>
        <time>2013-08-18T15:52:46.000Z</time>
      </trkpt>
      <trkpt lat="45.56722" lon="2.92172">
        <ele>895.59997558594</ele>
        <time>2013-08-18T15:52:59.000Z</time>
      </trkpt>
      <trkpt lat="45.56724" lon="2.92195">
        <ele>894.40002441406</ele>
        <time>2013-08-18T15:53:11.000Z</time>
      </trkpt>
      <trkpt lat="45.56725" lon="2.92209">
        <ele>893.40002441406</ele>
        <time>2013-08-18T15:53:20.000Z</time>
      </trkpt>
      <trkpt lat="45.56725" lon="2.92213">
        <ele>893</ele>
        <time>2013-08-18T15:53:24.000Z</time>
      </trkpt>
      <trkpt lat="45.56726" lon="2.9222">
        <ele>892.40002441406</ele>
        <time>2013-08-18T15:53:29.000Z</time>
      </trkpt>
      <trkpt lat="45.5673" lon="2.92234">
        <ele>890.59997558594</ele>
        <time>2013-08-18T15:53:43.000Z</time>
      </trkpt>
      <trkpt lat="45.56718" lon="2.9224">
        <ele>892.79998779297</ele>
        <time>2013-08-18T15:53:58.000Z</time>
      </trkpt>
      <trkpt lat="45.56717" lon="2.92247">
        <ele>892.79998779297</ele>
        <time>2013-08-18T15:54:18.000Z</time>
      </trkpt>
      <trkpt lat="45.56724" lon="2.92267">
        <ele>890.40002441406</ele>
        <time>2013-08-18T15:54:39.000Z</time>
      </trkpt>
      <trkpt lat="45.56727" lon="2.9228">
        <ele>889.40002441406</ele>
        <time>2013-08-18T15:54:49.000Z</time>
      </trkpt>
      <trkpt lat="45.5673" lon="2.92286">
        <ele>888.59997558594</ele>
        <time>2013-08-18T15:54:54.000Z</time>
      </trkpt>
      <trkpt lat="45.56739" lon="2.92303">
        <ele>886.40002441406</ele>
        <time>2013-08-18T15:55:06.000Z</time>
      </trkpt>
      <trkpt lat="45.56747" lon="2.92322">
        <ele>884.20001220703</ele>
        <time>2013-08-18T15:55:20.000Z</time>
      </trkpt>
      <trkpt lat="45.56754" lon="2.92342">
        <ele>882</ele>
        <time>2013-08-18T15:55:36.000Z</time>
      </trkpt>
      <trkpt lat="45.56764" lon="2.92363">
        <ele>880.20001220703</ele>
        <time>2013-08-18T15:55:52.000Z</time>
      </trkpt>
      <trkpt lat="45.5677" lon="2.92382">
        <ele>879</ele>
        <time>2013-08-18T15:56:04.000Z</time>
      </trkpt>
      <trkpt lat="45.56775" lon="2.92402">
        <ele>878.59997558594</ele>
        <time>2013-08-18T15:56:19.000Z</time>
      </trkpt>
      <trkpt lat="45.56777" lon="2.92418">
        <ele>880.20001220703</ele>
        <time>2013-08-18T15:56:28.000Z</time>
      </trkpt>
      <trkpt lat="45.56781" lon="2.9244">
        <ele>879.79998779297</ele>
        <time>2013-08-18T15:56:43.000Z</time>
      </trkpt>
      <trkpt lat="45.56784" lon="2.92459">
        <ele>878.59997558594</ele>
        <time>2013-08-18T15:56:55.000Z</time>
      </trkpt>
      <trkpt lat="45.56786" lon="2.92479">
        <ele>878.20001220703</ele>
        <time>2013-08-18T15:57:11.000Z</time>
      </trkpt>
      <trkpt lat="45.56787" lon="2.92498">
        <ele>878.20001220703</ele>
        <time>2013-08-18T15:57:25.000Z</time>
      </trkpt>
      <trkpt lat="45.56783" lon="2.925">
        <ele>880.20001220703</ele>
        <time>2013-08-18T15:57:44.000Z</time>
      </trkpt>
      <trkpt lat="45.56778" lon="2.92507">
        <ele>883</ele>
        <time>2013-08-18T15:58:01.000Z</time>
      </trkpt>
      <trkpt lat="45.56775" lon="2.9251">
        <ele>884</ele>
        <time>2013-08-18T15:58:12.000Z</time>
      </trkpt>
      <trkpt lat="45.56771" lon="2.92509">
        <ele>885.79998779297</ele>
        <time>2013-08-18T15:58:29.000Z</time>
      </trkpt>
      <trkpt lat="45.56769" lon="2.92515">
        <ele>886.40002441406</ele>
        <time>2013-08-18T15:58:43.000Z</time>
      </trkpt>
      <trkpt lat="45.56773" lon="2.92534">
        <ele>884.79998779297</ele>
        <time>2013-08-18T15:58:58.000Z</time>
      </trkpt>
      <trkpt lat="45.56776" lon="2.92548">
        <ele>883.59997558594</ele>
        <time>2013-08-18T15:59:10.000Z</time>
      </trkpt>
      <trkpt lat="45.56779" lon="2.92567">
        <ele>882.20001220703</ele>
        <time>2013-08-18T15:59:25.000Z</time>
      </trkpt>
      <trkpt lat="45.56783" lon="2.9258">
        <ele>880.20001220703</ele>
        <time>2013-08-18T15:59:35.000Z</time>
      </trkpt>
      <trkpt lat="45.56785" lon="2.92598">
        <ele>878.79998779297</ele>
        <time>2013-08-18T15:59:48.000Z</time>
      </trkpt>
      <trkpt lat="45.56787" lon="2.92608">
        <ele>878</ele>
        <time>2013-08-18T15:59:55.000Z</time>
      </trkpt>
      <trkpt lat="45.56791" lon="2.92624">
        <ele>876.79998779297</ele>
        <time>2013-08-18T16:00:06.000Z</time>
      </trkpt>
      <trkpt lat="45.5679" lon="2.92649">
        <ele>877</ele>
        <time>2013-08-18T16:00:22.000Z</time>
      </trkpt>
      <trkpt lat="45.56788" lon="2.92674">
        <ele>877.20001220703</ele>
        <time>2013-08-18T16:00:37.000Z</time>
      </trkpt>
      <trkpt lat="45.56788" lon="2.92684">
        <ele>877</ele>
        <time>2013-08-18T16:00:43.000Z</time>
      </trkpt>
      <trkpt lat="45.56787" lon="2.92699">
        <ele>877.59997558594</ele>
        <time>2013-08-18T16:00:52.000Z</time>
      </trkpt>
      <trkpt lat="45.56785" lon="2.92712">
        <ele>878</ele>
        <time>2013-08-18T16:01:00.000Z</time>
      </trkpt>
      <trkpt lat="45.56777" lon="2.92739">
        <ele>880.79998779297</ele>
        <time>2013-08-18T16:01:15.000Z</time>
      </trkpt>
      <trkpt lat="45.5677" lon="2.92762">
        <ele>884.20001220703</ele>
        <time>2013-08-18T16:01:30.000Z</time>
      </trkpt>
      <trkpt lat="45.56769" lon="2.92763">
        <ele>884.40002441406</ele>
        <time>2013-08-18T16:01:34.000Z</time>
      </trkpt>
      <trkpt lat="45.56769" lon="2.92765">
        <ele>884.40002441406</ele>
        <time>2013-08-18T16:01:36.000Z</time>
      </trkpt>
      <trkpt lat="45.5677" lon="2.92788">
        <ele>884.20001220703</ele>
        <time>2013-08-18T16:01:51.000Z</time>
      </trkpt>
      <trkpt lat="45.56772" lon="2.92812">
        <ele>883.40002441406</ele>
        <time>2013-08-18T16:02:07.000Z</time>
      </trkpt>
      <trkpt lat="45.56776" lon="2.92823">
        <ele>882.20001220703</ele>
        <time>2013-08-18T16:02:16.000Z</time>
      </trkpt>
      <trkpt lat="45.56784" lon="2.92845">
        <ele>879.20001220703</ele>
        <time>2013-08-18T16:02:33.000Z</time>
      </trkpt>
      <trkpt lat="45.56792" lon="2.92865">
        <ele>877.79998779297</ele>
        <time>2013-08-18T16:02:49.000Z</time>
      </trkpt>
      <trkpt lat="45.56802" lon="2.92884">
        <ele>875.59997558594</ele>
        <time>2013-08-18T16:03:05.000Z</time>
      </trkpt>
      <trkpt lat="45.56805" lon="2.92889">
        <ele>875.79998779297</ele>
        <time>2013-08-18T16:03:17.000Z</time>
      </trkpt>
      <trkpt lat="45.56812" lon="2.92899">
        <ele>876.20001220703</ele>
        <time>2013-08-18T16:03:35.000Z</time>
      </trkpt>
      <trkpt lat="45.56814" lon="2.92902">
        <ele>876.40002441406</ele>
        <time>2013-08-18T16:03:38.000Z</time>
      </trkpt>
      <trkpt lat="45.56827" lon="2.92922">
        <ele>877.20001220703</ele>
        <time>2013-08-18T16:03:55.000Z</time>
      </trkpt>
      <trkpt lat="45.56834" lon="2.92932">
        <ele>877.40002441406</ele>
        <time>2013-08-18T16:04:04.000Z</time>
      </trkpt>
      <trkpt lat="45.56839" lon="2.9294">
        <ele>877.20001220703</ele>
        <time>2013-08-18T16:04:12.000Z</time>
      </trkpt>
      <trkpt lat="45.56852" lon="2.92953">
        <ele>877.20001220703</ele>
        <time>2013-08-18T16:04:28.000Z</time>
      </trkpt>
      <trkpt lat="45.56866" lon="2.92957">
        <ele>876.79998779297</ele>
        <time>2013-08-18T16:04:44.000Z</time>
      </trkpt>
      <trkpt lat="45.56882" lon="2.9295">
        <ele>876.40002441406</ele>
        <time>2013-08-18T16:05:00.000Z</time>
      </trkpt>
      <trkpt lat="45.56902" lon="2.92946">
        <ele>876.40002441406</ele>
        <time>2013-08-18T16:05:18.000Z</time>
      </trkpt>
      <trkpt lat="45.5692" lon="2.92948">
        <ele>876.79998779297</ele>
        <time>2013-08-18T16:05:36.000Z</time>
      </trkpt>
      <trkpt lat="45.56933" lon="2.92952">
        <ele>877</ele>
        <time>2013-08-18T16:05:51.000Z</time>
      </trkpt>
      <trkpt lat="45.5694" lon="2.92954">
        <ele>877</ele>
        <time>2013-08-18T16:06:04.000Z</time>
      </trkpt>
      <trkpt lat="45.56951" lon="2.92953">
        <ele>877.20001220703</ele>
        <time>2013-08-18T16:06:17.000Z</time>
      </trkpt>
      <trkpt lat="45.56955" lon="2.92955">
        <ele>877.20001220703</ele>
        <time>2013-08-18T16:06:32.000Z</time>
      </trkpt>
      <trkpt lat="45.56964" lon="2.92951">
        <ele>877.20001220703</ele>
        <time>2013-08-18T16:06:43.000Z</time>
      </trkpt>
      <trkpt lat="45.56964" lon="2.92953">
        <ele>877.40002441406</ele>
        <time>2013-08-18T16:06:59.000Z</time>
      </trkpt>
      <trkpt lat="45.56962" lon="2.92964">
        <ele>877.40002441406</ele>
        <time>2013-08-18T16:07:13.000Z</time>
      </trkpt>
      <trkpt lat="45.56963" lon="2.92984">
        <ele>877.59997558594</ele>
        <time>2013-08-18T16:07:29.000Z</time>
      </trkpt>
      <trkpt lat="45.56963" lon="2.92985">
        <ele>877.59997558594</ele>
        <time>2013-08-18T16:07:50.000Z</time>
      </trkpt>
      <trkpt lat="45.56962" lon="2.92986">
        <ele>877.59997558594</ele>
        <time>2013-08-18T16:08:14.000Z</time>
      </trkpt>
      <trkpt lat="45.56962" lon="2.92986">
        <ele>877.59997558594</ele>
        <time>2013-08-18T16:08:36.000Z</time>
      </trkpt>
      <trkpt lat="45.56963" lon="2.92988">
        <ele>877.79998779297</ele>
        <time>2013-08-18T16:09:07.000Z</time>
      </trkpt>
      <trkpt lat="45.56964" lon="2.92986">
        <ele>877.79998779297</ele>
        <time>2013-08-18T16:09:28.000Z</time>
      </trkpt>
      <trkpt lat="45.56965" lon="2.92982">
        <ele>877.59997558594</ele>
        <time>2013-08-18T16:09:31.000Z</time>
      </trkpt>
      <trkpt lat="45.56964" lon="2.92959">
        <ele>877.40002441406</ele>
        <time>2013-08-18T16:09:47.000Z</time>
      </trkpt>
      <trkpt lat="45.56966" lon="2.92955">
        <ele>877.40002441406</ele>
        <time>2013-08-18T16:09:51.000Z</time>
      </trkpt>
      <trkpt lat="45.56981" lon="2.92942">
        <ele>877</ele>
        <time>2013-08-18T16:10:09.000Z</time>
      </trkpt>
      <trkpt lat="45.56982" lon="2.92941">
        <ele>877</ele>
        <time>2013-08-18T16:10:10.000Z</time>
      </trkpt>
      <trkpt lat="45.56987" lon="2.92939">
        <ele>877</ele>
        <time>2013-08-18T16:10:16.000Z</time>
      </trkpt>
      <trkpt lat="45.56998" lon="2.9292">
        <ele>877</ele>
        <time>2013-08-18T16:10:33.000Z</time>
      </trkpt>
      <trkpt lat="45.57013" lon="2.92903">
        <ele>878</ele>
        <time>2013-08-18T16:10:51.000Z</time>
      </trkpt>
      <trkpt lat="45.57025" lon="2.92891">
        <ele>878.40002441406</ele>
        <time>2013-08-18T16:11:06.000Z</time>
      </trkpt>
      <trkpt lat="45.57031" lon="2.92889">
        <ele>878</ele>
        <time>2013-08-18T16:11:13.000Z</time>
      </trkpt>
      <trkpt lat="45.57033" lon="2.92889">
        <ele>878</ele>
        <time>2013-08-18T16:11:15.000Z</time>
      </trkpt>
      <trkpt lat="45.57033" lon="2.92891">
        <ele>877.79998779297</ele>
        <time>2013-08-18T16:11:31.000Z</time>
      </trkpt>
      <trkpt lat="45.57034" lon="2.92895">
        <ele>877.79998779297</ele>
        <time>2013-08-18T16:11:55.000Z</time>
      </trkpt>
      <trkpt lat="45.5704" lon="2.9292">
        <ele>876.40002441406</ele>
        <time>2013-08-18T16:12:14.000Z</time>
      </trkpt>
      <trkpt lat="45.57051" lon="2.92944">
        <ele>876.20001220703</ele>
        <time>2013-08-18T16:12:31.000Z</time>
      </trkpt>
      <trkpt lat="45.57059" lon="2.92952">
        <ele>876.40002441406</ele>
        <time>2013-08-18T16:12:40.000Z</time>
      </trkpt>
      <trkpt lat="45.57076" lon="2.92953">
        <ele>876.59997558594</ele>
        <time>2013-08-18T16:12:57.000Z</time>
      </trkpt>
      <trkpt lat="45.57078" lon="2.92952">
        <ele>876.59997558594</ele>
        <time>2013-08-18T16:13:00.000Z</time>
      </trkpt>
      <trkpt lat="45.57096" lon="2.92942">
        <ele>877.40002441406</ele>
        <time>2013-08-18T16:13:18.000Z</time>
      </trkpt>
      <trkpt lat="45.57113" lon="2.92936">
        <ele>878</ele>
        <time>2013-08-18T16:13:36.000Z</time>
      </trkpt>
      <trkpt lat="45.5713" lon="2.92934">
        <ele>878.79998779297</ele>
        <time>2013-08-18T16:13:53.000Z</time>
      </trkpt>
      <trkpt lat="45.57145" lon="2.92935">
        <ele>878.79998779297</ele>
        <time>2013-08-18T16:14:06.000Z</time>
      </trkpt>
      <trkpt lat="45.57154" lon="2.92942">
        <ele>878.79998779297</ele>
        <time>2013-08-18T16:14:20.000Z</time>
      </trkpt>
      <trkpt lat="45.57155" lon="2.92951">
        <ele>878.59997558594</ele>
        <time>2013-08-18T16:14:27.000Z</time>
      </trkpt>
      <trkpt lat="45.57157" lon="2.9298">
        <ele>878.40002441406</ele>
        <time>2013-08-18T16:14:46.000Z</time>
      </trkpt>
      <trkpt lat="45.57158" lon="2.93005">
        <ele>878</ele>
        <time>2013-08-18T16:15:02.000Z</time>
      </trkpt>
      <trkpt lat="45.57159" lon="2.93016">
        <ele>879.20001220703</ele>
        <time>2013-08-18T16:15:16.000Z</time>
      </trkpt>
      <trkpt lat="45.57158" lon="2.93028">
        <ele>880.79998779297</ele>
        <time>2013-08-18T16:15:24.000Z</time>
      </trkpt>
      <trkpt lat="45.57158" lon="2.93034">
        <ele>881.40002441406</ele>
        <time>2013-08-18T16:15:27.000Z</time>
      </trkpt>
      <trkpt lat="45.57159" lon="2.93038">
        <ele>882</ele>
        <time>2013-08-18T16:15:30.000Z</time>
      </trkpt>
      <trkpt lat="45.57155" lon="2.93058">
        <ele>884.40002441406</ele>
        <time>2013-08-18T16:15:47.000Z</time>
      </trkpt>
      <trkpt lat="45.57153" lon="2.93066">
        <ele>885.40002441406</ele>
        <time>2013-08-18T16:16:01.000Z</time>
      </trkpt>
      <trkpt lat="45.5715" lon="2.93081">
        <ele>887</ele>
        <time>2013-08-18T16:16:18.000Z</time>
      </trkpt>
      <trkpt lat="45.57149" lon="2.93082">
        <ele>887.20001220703</ele>
        <time>2013-08-18T16:16:50.000Z</time>
      </trkpt>
      <trkpt lat="45.57149" lon="2.93085">
        <ele>887.59997558594</ele>
        <time>2013-08-18T16:17:06.000Z</time>
      </trkpt>
      <trkpt lat="45.57148" lon="2.93087">
        <ele>887.59997558594</ele>
        <time>2013-08-18T16:17:32.000Z</time>
      </trkpt>
      <trkpt lat="45.57149" lon="2.93089">
        <ele>888</ele>
        <time>2013-08-18T16:17:55.000Z</time>
      </trkpt>
      <trkpt lat="45.5715" lon="2.93088">
        <ele>887.79998779297</ele>
        <time>2013-08-18T16:18:15.000Z</time>
      </trkpt>
      <trkpt lat="45.57151" lon="2.93082">
        <ele>887.20001220703</ele>
        <time>2013-08-18T16:18:25.000Z</time>
      </trkpt>
      <trkpt lat="45.57156" lon="2.93065">
        <ele>885.20001220703</ele>
        <time>2013-08-18T16:18:42.000Z</time>
      </trkpt>
      <trkpt lat="45.57157" lon="2.93065">
        <ele>885.20001220703</ele>
        <time>2013-08-18T16:18:56.000Z</time>
      </trkpt>
      <trkpt lat="45.57159" lon="2.93064">
        <ele>885.20001220703</ele>
        <time>2013-08-18T16:19:21.000Z</time>
      </trkpt>
      <trkpt lat="45.5716" lon="2.93063">
        <ele>885</ele>
        <time>2013-08-18T16:19:53.000Z</time>
      </trkpt>
      <trkpt lat="45.5716" lon="2.93062">
        <ele>885</ele>
        <time>2013-08-18T16:20:18.000Z</time>
      </trkpt>
      <trkpt lat="45.5716" lon="2.93062">
        <ele>884.79998779297</ele>
        <time>2013-08-18T16:20:48.000Z</time>
      </trkpt>
      <trkpt lat="45.57161" lon="2.93062">
        <ele>884.79998779297</ele>
        <time>2013-08-18T16:21:09.000Z</time>
      </trkpt>
      <trkpt lat="45.57161" lon="2.93061">
        <ele>884.79998779297</ele>
        <time>2013-08-18T16:21:32.000Z</time>
      </trkpt>
      <trkpt lat="45.57161" lon="2.9306">
        <ele>884.79998779297</ele>
        <time>2013-08-18T16:21:46.000Z</time>
      </trkpt>
      <trkpt lat="45.57164" lon="2.93058">
        <ele>884.40002441406</ele>
        <time>2013-08-18T16:21:57.000Z</time>
      </trkpt>
      <trkpt lat="45.57165" lon="2.93052">
        <ele>883.79998779297</ele>
        <time>2013-08-18T16:22:03.000Z</time>
      </trkpt>
      <trkpt lat="45.57162" lon="2.93025">
        <ele>880.40002441406</ele>
        <time>2013-08-18T16:22:22.000Z</time>
      </trkpt>
      <trkpt lat="45.57163" lon="2.93009">
        <ele>878.20001220703</ele>
        <time>2013-08-18T16:22:33.000Z</time>
      </trkpt>
      <trkpt lat="45.57164" lon="2.92981">
        <ele>878.40002441406</ele>
        <time>2013-08-18T16:22:49.000Z</time>
      </trkpt>
      <trkpt lat="45.57163" lon="2.92953">
        <ele>878.59997558594</ele>
        <time>2013-08-18T16:23:08.000Z</time>
      </trkpt>
      <trkpt lat="45.57164" lon="2.92949">
        <ele>878.59997558594</ele>
        <time>2013-08-18T16:23:12.000Z</time>
      </trkpt>
      <trkpt lat="45.5716" lon="2.92924">
        <ele>879</ele>
        <time>2013-08-18T16:23:28.000Z</time>
      </trkpt>
      <trkpt lat="45.57159" lon="2.9291">
        <ele>878.59997558594</ele>
        <time>2013-08-18T16:23:36.000Z</time>
      </trkpt>
      <trkpt lat="45.57158" lon="2.92888">
        <ele>878.20001220703</ele>
        <time>2013-08-18T16:23:50.000Z</time>
      </trkpt>
      <trkpt lat="45.57154" lon="2.92869">
        <ele>877.59997558594</ele>
        <time>2013-08-18T16:24:04.000Z</time>
      </trkpt>
      <trkpt lat="45.57151" lon="2.92849">
        <ele>877.59997558594</ele>
        <time>2013-08-18T16:24:18.000Z</time>
      </trkpt>
      <trkpt lat="45.57142" lon="2.92837">
        <ele>877.20001220703</ele>
        <time>2013-08-18T16:24:33.000Z</time>
      </trkpt>
      <trkpt lat="45.57124" lon="2.92837">
        <ele>877.20001220703</ele>
        <time>2013-08-18T16:24:52.000Z</time>
      </trkpt>
      <trkpt lat="45.57118" lon="2.92839">
        <ele>877.20001220703</ele>
        <time>2013-08-18T16:24:58.000Z</time>
      </trkpt>
      <trkpt lat="45.571" lon="2.92842">
        <ele>877.40002441406</ele>
        <time>2013-08-18T16:25:14.000Z</time>
      </trkpt>
      <trkpt lat="45.57084" lon="2.92849">
        <ele>877.79998779297</ele>
        <time>2013-08-18T16:25:30.000Z</time>
      </trkpt>
      <trkpt lat="45.57072" lon="2.92861">
        <ele>878.20001220703</ele>
        <time>2013-08-18T16:25:44.000Z</time>
      </trkpt>
      <trkpt lat="45.5706" lon="2.92865">
        <ele>877.79998779297</ele>
        <time>2013-08-18T16:25:57.000Z</time>
      </trkpt>
      <trkpt lat="45.57045" lon="2.92861">
        <ele>877.79998779297</ele>
        <time>2013-08-18T16:26:09.000Z</time>
      </trkpt>
      <trkpt lat="45.57036" lon="2.9285">
        <ele>878.79998779297</ele>
        <time>2013-08-18T16:26:19.000Z</time>
      </trkpt>
      <trkpt lat="45.57032" lon="2.92843">
        <ele>879</ele>
        <time>2013-08-18T16:26:25.000Z</time>
      </trkpt>
      <trkpt lat="45.57024" lon="2.9283">
        <ele>879.40002441406</ele>
        <time>2013-08-18T16:26:38.000Z</time>
      </trkpt>
      <trkpt lat="45.57019" lon="2.92817">
        <ele>879.59997558594</ele>
        <time>2013-08-18T16:26:50.000Z</time>
      </trkpt>
      <trkpt lat="45.57019" lon="2.92806">
        <ele>879.59997558594</ele>
        <time>2013-08-18T16:27:03.000Z</time>
      </trkpt>
      <trkpt lat="45.57022" lon="2.92797">
        <ele>879.59997558594</ele>
        <time>2013-08-18T16:27:09.000Z</time>
      </trkpt>
      <trkpt lat="45.5702" lon="2.92773">
        <ele>880</ele>
        <time>2013-08-18T16:27:25.000Z</time>
      </trkpt>
      <trkpt lat="45.5702" lon="2.92771">
        <ele>880</ele>
        <time>2013-08-18T16:27:26.000Z</time>
      </trkpt>
      <trkpt lat="45.57018" lon="2.92752">
        <ele>880</ele>
        <time>2013-08-18T16:27:39.000Z</time>
      </trkpt>
      <trkpt lat="45.57021" lon="2.92731">
        <ele>879.20001220703</ele>
        <time>2013-08-18T16:27:52.000Z</time>
      </trkpt>
      <trkpt lat="45.57015" lon="2.92705">
        <ele>878.59997558594</ele>
        <time>2013-08-18T16:28:06.000Z</time>
      </trkpt>
      <trkpt lat="45.57009" lon="2.92674">
        <ele>878</ele>
        <time>2013-08-18T16:28:19.000Z</time>
      </trkpt>
      <trkpt lat="45.57013" lon="2.92665">
        <ele>877.20001220703</ele>
        <time>2013-08-18T16:28:28.000Z</time>
      </trkpt>
      <trkpt lat="45.57025" lon="2.92636">
        <ele>875.20001220703</ele>
        <time>2013-08-18T16:28:47.000Z</time>
      </trkpt>
      <trkpt lat="45.5703" lon="2.92621">
        <ele>874.40002441406</ele>
        <time>2013-08-18T16:29:03.000Z</time>
      </trkpt>
      <trkpt lat="45.57032" lon="2.9262">
        <ele>874.40002441406</ele>
        <time>2013-08-18T16:29:06.000Z</time>
      </trkpt>
      <trkpt lat="45.57039" lon="2.92613">
        <ele>874.20001220703</ele>
        <time>2013-08-18T16:29:12.000Z</time>
      </trkpt>
      <trkpt lat="45.57044" lon="2.92617">
        <ele>874.20001220703</ele>
        <time>2013-08-18T16:29:18.000Z</time>
      </trkpt>
      <trkpt lat="45.57056" lon="2.92637">
        <ele>875.20001220703</ele>
        <time>2013-08-18T16:29:37.000Z</time>
      </trkpt>
      <trkpt lat="45.5707" lon="2.92644">
        <ele>875.59997558594</ele>
        <time>2013-08-18T16:29:53.000Z</time>
      </trkpt>
      <trkpt lat="45.57075" lon="2.92641">
        <ele>875.40002441406</ele>
        <time>2013-08-18T16:30:00.000Z</time>
      </trkpt>
      <trkpt lat="45.57086" lon="2.92631">
        <ele>875</ele>
        <time>2013-08-18T16:30:15.000Z</time>
      </trkpt>
      <trkpt lat="45.57093" lon="2.92628">
        <ele>875</ele>
        <time>2013-08-18T16:30:23.000Z</time>
      </trkpt>
      <trkpt lat="45.57095" lon="2.92626">
        <ele>875.20001220703</ele>
        <time>2013-08-18T16:30:25.000Z</time>
      </trkpt>
      <trkpt lat="45.57096" lon="2.92613">
        <ele>875.40002441406</ele>
        <time>2013-08-18T16:30:37.000Z</time>
      </trkpt>
      <trkpt lat="45.57083" lon="2.92592">
        <ele>874.79998779297</ele>
        <time>2013-08-18T16:30:54.000Z</time>
      </trkpt>
      <trkpt lat="45.57079" lon="2.92588">
        <ele>874.79998779297</ele>
        <time>2013-08-18T16:30:58.000Z</time>
      </trkpt>
      <trkpt lat="45.57078" lon="2.92569">
        <ele>875</ele>
        <time>2013-08-18T16:31:12.000Z</time>
      </trkpt>
      <trkpt lat="45.57081" lon="2.92555">
        <ele>875.59997558594</ele>
        <time>2013-08-18T16:31:22.000Z</time>
      </trkpt>
      <trkpt lat="45.57082" lon="2.92553">
        <ele>875.79998779297</ele>
        <time>2013-08-18T16:31:24.000Z</time>
      </trkpt>
      <trkpt lat="45.57084" lon="2.92547">
        <ele>876</ele>
        <time>2013-08-18T16:31:28.000Z</time>
      </trkpt>
      <trkpt lat="45.57093" lon="2.92527">
        <ele>876.79998779297</ele>
        <time>2013-08-18T16:31:44.000Z</time>
      </trkpt>
      <trkpt lat="45.57109" lon="2.9251">
        <ele>877.79998779297</ele>
        <time>2013-08-18T16:32:03.000Z</time>
      </trkpt>
      <trkpt lat="45.5712" lon="2.92493">
        <ele>878</ele>
        <time>2013-08-18T16:32:17.000Z</time>
      </trkpt>
      <trkpt lat="45.57133" lon="2.92477">
        <ele>879.20001220703</ele>
        <time>2013-08-18T16:32:32.000Z</time>
      </trkpt>
      <trkpt lat="45.57138" lon="2.9247">
        <ele>879.40002441406</ele>
        <time>2013-08-18T16:32:44.000Z</time>
      </trkpt>
      <trkpt lat="45.57154" lon="2.92464">
        <ele>879.79998779297</ele>
        <time>2013-08-18T16:33:00.000Z</time>
      </trkpt>
      <trkpt lat="45.57166" lon="2.92458">
        <ele>880</ele>
        <time>2013-08-18T16:33:14.000Z</time>
      </trkpt>
      <trkpt lat="45.57182" lon="2.92449">
        <ele>879.79998779297</ele>
        <time>2013-08-18T16:33:30.000Z</time>
      </trkpt>
      <trkpt lat="45.57192" lon="2.92439">
        <ele>879.40002441406</ele>
        <time>2013-08-18T16:33:43.000Z</time>
      </trkpt>
      <trkpt lat="45.57202" lon="2.92431">
        <ele>879.20001220703</ele>
        <time>2013-08-18T16:33:56.000Z</time>
      </trkpt>
      <trkpt lat="45.57212" lon="2.92425">
        <ele>879</ele>
        <time>2013-08-18T16:34:06.000Z</time>
      </trkpt>
      <trkpt lat="45.57221" lon="2.92409">
        <ele>878.59997558594</ele>
        <time>2013-08-18T16:34:19.000Z</time>
      </trkpt>
      <trkpt lat="45.57228" lon="2.92389">
        <ele>878.20001220703</ele>
        <time>2013-08-18T16:34:35.000Z</time>
      </trkpt>
      <trkpt lat="45.57239" lon="2.92368">
        <ele>877.59997558594</ele>
        <time>2013-08-18T16:34:50.000Z</time>
      </trkpt>
      <trkpt lat="45.57242" lon="2.92364">
        <ele>877.40002441406</ele>
        <time>2013-08-18T16:34:53.000Z</time>
      </trkpt>
      <trkpt lat="45.57256" lon="2.92339">
        <ele>876.59997558594</ele>
        <time>2013-08-18T16:35:12.000Z</time>
      </trkpt>
      <trkpt lat="45.57258" lon="2.92338">
        <ele>876.40002441406</ele>
        <time>2013-08-18T16:35:14.000Z</time>
      </trkpt>
      <trkpt lat="45.57262" lon="2.92338">
        <ele>876.40002441406</ele>
        <time>2013-08-18T16:35:19.000Z</time>
      </trkpt>
      <trkpt lat="45.57274" lon="2.92334">
        <ele>875.59997558594</ele>
        <time>2013-08-18T16:35:34.000Z</time>
      </trkpt>
      <trkpt lat="45.57285" lon="2.92332">
        <ele>875</ele>
        <time>2013-08-18T16:35:50.000Z</time>
      </trkpt>
      <trkpt lat="45.57292" lon="2.9234">
        <ele>875.20001220703</ele>
        <time>2013-08-18T16:36:01.000Z</time>
      </trkpt>
      <trkpt lat="45.57302" lon="2.92355">
        <ele>875.40002441406</ele>
        <time>2013-08-18T16:36:15.000Z</time>
      </trkpt>
      <trkpt lat="45.57316" lon="2.92361">
        <ele>877.59997558594</ele>
        <time>2013-08-18T16:36:29.000Z</time>
      </trkpt>
      <trkpt lat="45.57319" lon="2.92361">
        <ele>878</ele>
        <time>2013-08-18T16:36:32.000Z</time>
      </trkpt>
      <trkpt lat="45.57324" lon="2.92364">
        <ele>878.79998779297</ele>
        <time>2013-08-18T16:36:37.000Z</time>
      </trkpt>
      <trkpt lat="45.57335" lon="2.92384">
        <ele>880.79998779297</ele>
        <time>2013-08-18T16:36:53.000Z</time>
      </trkpt>
      <trkpt lat="45.57336" lon="2.92388">
        <ele>881</ele>
        <time>2013-08-18T16:36:56.000Z</time>
      </trkpt>
      <trkpt lat="45.57345" lon="2.92394">
        <ele>882.40002441406</ele>
        <time>2013-08-18T16:37:05.000Z</time>
      </trkpt>
      <trkpt lat="45.57359" lon="2.92398">
        <ele>884.79998779297</ele>
        <time>2013-08-18T16:37:22.000Z</time>
      </trkpt>
      <trkpt lat="45.57362" lon="2.92403">
        <ele>885.20001220703</ele>
        <time>2013-08-18T16:37:28.000Z</time>
      </trkpt>
      <trkpt lat="45.57362" lon="2.92415">
        <ele>885.40002441406</ele>
        <time>2013-08-18T16:37:43.000Z</time>
      </trkpt>
      <trkpt lat="45.57362" lon="2.9243">
        <ele>885.59997558594</ele>
        <time>2013-08-18T16:37:56.000Z</time>
      </trkpt>
      <trkpt lat="45.57362" lon="2.92436">
        <ele>885.59997558594</ele>
        <time>2013-08-18T16:38:00.000Z</time>
      </trkpt>
      <trkpt lat="45.57363" lon="2.92441">
        <ele>885.59997558594</ele>
        <time>2013-08-18T16:38:03.000Z</time>
      </trkpt>
      <trkpt lat="45.57362" lon="2.92452">
        <ele>885.59997558594</ele>
        <time>2013-08-18T16:38:10.000Z</time>
      </trkpt>
      <trkpt lat="45.57362" lon="2.92473">
        <ele>885.59997558594</ele>
        <time>2013-08-18T16:38:23.000Z</time>
      </trkpt>
      <trkpt lat="45.57362" lon="2.92481">
        <ele>885.59997558594</ele>
        <time>2013-08-18T16:38:28.000Z</time>
      </trkpt>
      <trkpt lat="45.57364" lon="2.92488">
        <ele>885.79998779297</ele>
        <time>2013-08-18T16:38:36.000Z</time>
      </trkpt>
      <trkpt lat="45.57375" lon="2.92493">
        <ele>887.59997558594</ele>
        <time>2013-08-18T16:38:52.000Z</time>
      </trkpt>
      <trkpt lat="45.57376" lon="2.92496">
        <ele>887.59997558594</ele>
        <time>2013-08-18T16:39:16.000Z</time>
      </trkpt>
      <trkpt lat="45.57377" lon="2.925">
        <ele>887.79998779297</ele>
        <time>2013-08-18T16:39:37.000Z</time>
      </trkpt>
      <trkpt lat="45.57375" lon="2.92499">
        <ele>887.59997558594</ele>
        <time>2013-08-18T16:40:02.000Z</time>
      </trkpt>
      <trkpt lat="45.57374" lon="2.92499">
        <ele>887.40002441406</ele>
        <time>2013-08-18T16:40:38.000Z</time>
      </trkpt>
      <trkpt lat="45.57371" lon="2.92497">
        <ele>887</ele>
        <time>2013-08-18T16:41:13.000Z</time>
      </trkpt>
      <trkpt lat="45.5737" lon="2.92497">
        <ele>886.79998779297</ele>
        <time>2013-08-18T16:41:46.000Z</time>
      </trkpt>
      <trkpt lat="45.57369" lon="2.92496">
        <ele>886.79998779297</ele>
        <time>2013-08-18T16:42:19.000Z</time>
      </trkpt>
      <trkpt lat="45.57367" lon="2.92497">
        <ele>886.59997558594</ele>
        <time>2013-08-18T16:42:49.000Z</time>
      </trkpt>
      <trkpt lat="45.57367" lon="2.92498">
        <ele>886.59997558594</ele>
        <time>2013-08-18T16:43:14.000Z</time>
      </trkpt>
      <trkpt lat="45.57367" lon="2.92498">
        <ele>886.59997558594</ele>
        <time>2013-08-18T16:43:36.000Z</time>
      </trkpt>
      <trkpt lat="45.57367" lon="2.92495">
        <ele>886.40002441406</ele>
        <time>2013-08-18T16:43:44.000Z</time>
      </trkpt>
      <trkpt lat="45.57372" lon="2.92478">
        <ele>887</ele>
        <time>2013-08-18T16:44:09.000Z</time>
      </trkpt>
      <trkpt lat="45.57368" lon="2.92495">
        <ele>886.59997558594</ele>
        <time>2013-08-18T16:44:29.000Z</time>
      </trkpt>
      <trkpt lat="45.57357" lon="2.92516">
        <ele>885.59997558594</ele>
        <time>2013-08-18T16:44:48.000Z</time>
      </trkpt>
      <trkpt lat="45.5738" lon="2.92534">
        <ele>888.40002441406</ele>
        <time>2013-08-18T16:45:12.000Z</time>
      </trkpt>
      <trkpt lat="45.5738" lon="2.92532">
        <ele>888.40002441406</ele>
        <time>2013-08-18T16:45:38.000Z</time>
      </trkpt>
      <trkpt lat="45.57382" lon="2.92528">
        <ele>888.79998779297</ele>
        <time>2013-08-18T16:46:04.000Z</time>
      </trkpt>
      <trkpt lat="45.57392" lon="2.92526">
        <ele>889.59997558594</ele>
        <time>2013-08-18T16:46:26.000Z</time>
      </trkpt>
      <trkpt lat="45.57391" lon="2.92527">
        <ele>889.59997558594</ele>
        <time>2013-08-18T16:46:56.000Z</time>
      </trkpt>
      <trkpt lat="45.5739" lon="2.92528">
        <ele>889.59997558594</ele>
        <time>2013-08-18T16:47:22.000Z</time>
      </trkpt>
    </trkseg>
  </trk>
</gpx>